[[{"header":{"parameterUnit":"m.s-1","parameterCategory":1,"la1":30.6,"la2":28.766,"lo1":-90.7593,"lo2":-88.6598,"dy":0.0162,"dx":0.0183,"nx":116,"ny":114,"refTime":"2023-05-21T06:00:00:Z","depth":0,"parameterNumber":2,"parameterNumberName":"U-component_of_WINDS"},"data":[0.0,0.0,0.0,0.0,0.0,0.0,0.0,0.0,0.0,0.0,0.0,0.0,0.0,0.0,0.0,0.0,0.0,0.0,0.0,0.0,0.0,0.0,0.0,0.0,0.0,0.0,0.0,0.0,0.0,0.0,0.0,0.0,0.0,0.0,0.0,0.0,0.0,0.0,0.0,0.0,0.0,0.0,0.0,0.0,0.0,0.0,0.0,0.0,0.0,0.0,0.0,0.0,0.0,0.0,0.0,0.0,0.0,0.0,0.0,0.0,0.0,0.0,0.0,0.0,0.0,0.0,0.0,0.0,0.0,0.0,0.0,0.0,0.0,0.0,0.0,0.0,0.0,0.0,0.0,0.0,0.0,0.0,0.0,0.0,0.0,0.0,0.0,0.0,0.0,0.0,0.0,0.0,0.0,0.0,0.0,0.0,0.0,0.0,0.0,0.0,0.0,0.0,0.0,0.0,0.0,0.0,0.0,0.0,0.0,0.0,0.0,0.0,0.0,0.0,0.0,0.0,0.0,0.0,0.0,0.0,0.0,0.0,0.0,0.0,0.0,0.0,0.0,0.0,0.0,0.0,0.0,0.0,0.0,0.0,0.0,0.0,0.0,0.0,0.0,0.0,0.0,0.0,0.0,0.0,0.0,0.0,0.0,0.0,0.0,0.0,0.0,0.0,0.0,0.0,0.0,0.0,0.0,0.0,0.0,0.0,0.0,0.0,0.0,0.0,0.0,0.0,0.0,0.0,0.0,0.0,0.0,0.0,0.0,0.0,0.0,0.0,0.0,0.0,0.0,0.0,0.0,0.0,0.0,0.0,0.0,0.0,0.0,0.0,0.0,0.0,0.0,0.0,0.0,0.0,0.0,0.0,0.0,0.0,0.0,0.0,0.0,0.0,0.0,0.0,0.0,0.0,0.0,0.0,0.0,0.0,0.0,0.0,0.0,0.0,0.0,0.0,0.0,0.0,0.0,0.0,0.0,0.0,0.0,0.0,0.0,0.0,0.0,0.0,0.0,0.0,0.0,0.0,0.0,0.0,0.0,0.0,0.0,0.0,0.0,0.0,0.0,0.0,0.0,0.0,0.0,0.0,0.0,0.0,0.0,0.0,0.0,0.0,0.0,0.0,0.0,0.0,0.0,0.0,0.0,0.0,0.0,0.0,0.0,0.0,0.0,0.0,0.0,0.0,0.0,0.0,0.0,0.0,0.0,0.0,0.0,0.0,0.0,0.0,0.0,0.0,0.0,0.0,0.0,0.0,0.0,0.0,0.0,0.0,0.0,0.0,0.0,0.0,0.0,0.0,0.0,0.0,0.0,0.0,0.0,0.0,0.0,0.0,0.0,0.0,0.0,0.0,0.0,0.0,0.0,0.0,0.0,0.0,0.0,0.0,0.0,0.0,0.0,0.0,0.0,0.0,0.0,0.0,0.0,0.0,0.0,0.0,0.0,0.0,0.0,0.0,0.0,0.0,0.0,0.0,0.0,0.0,0.0,0.0,0.0,0.0,0.0,0.0,0.0,0.0,0.0,0.0,0.0,0.0,0.0,0.0,0.0,0.0,0.0,0.0,0.0,0.0,0.0,0.0,0.0,0.0,0.0,0.0,0.0,0.0,0.0,0.0,0.0,0.0,0.0,0.0,0.0,0.0,0.0,0.0,0.0,0.0,0.0,0.0,0.0,0.0,0.0,0.0,0.0,0.0,0.0,0.0,0.0,0.0,0.0,0.0,0.0,0.0,0.0,0.0,0.0,0.0,0.0,0.0,0.0,0.0,0.0,0.0,0.0,0.0,0.0,0.0,0.0,0.0,0.0,0.0,0.0,0.0,0.0,0.0,0.0,0.0,0.0,0.0,0.0,0.0,0.0,0.0,0.0,0.0,0.0,0.0,0.0,0.0,0.0,0.0,0.0,0.0,0.0,0.0,0.0,0.0,0.0,0.0,0.0,0.0,0.0,0.0,0.0,0.0,0.0,0.0,0.0,0.0,0.0,0.0,0.0,0.0,0.0,0.0,0.0,0.0,0.0,0.0,0.0,0.0,0.0,0.0,0.0,0.0,0.0,0.0,0.0,0.0,0.0,0.0,0.0,0.0,0.0,0.0,0.0,0.0,0.0,0.0,0.0,0.0,0.0,0.0,0.0,0.0,0.0,0.0,0.0,0.0,0.0,0.0,0.0,0.0,0.0,0.0,0.0,0.0,0.0,0.0,0.0,0.0,0.0,0.0,0.0,0.0,0.0,0.0,0.0,0.0,0.0,0.0,0.0,0.0,0.0,0.0,0.0,0.0,0.0,0.0,0.0,0.0,0.0,0.0,0.0,0.0,0.0,0.0,0.0,0.0,0.0,0.0,0.0,0.0,0.0,0.0,0.0,0.0,0.0,0.0,0.0,0.0,0.0,0.0,0.0,0.0,0.0,0.0,0.0,0.0,0.0,0.0,0.0,0.0,0.0,0.0,0.0,0.0,0.0,0.0,0.0,0.0,0.0,0.0,0.0,0.0,0.0,0.0,0.0,0.0,0.0,0.0,0.0,0.0,0.0,0.0,0.0,0.0,0.0,0.0,0.0,0.0,0.0,0.0,0.0,0.0,0.0,0.0,0.0,0.0,0.0,0.0,0.0,0.0,0.0,0.0,0.0,0.0,0.0,0.0,0.0,0.0,0.0,0.0,0.0,0.0,0.0,0.0,0.0,0.0,0.0,0.0,0.0,0.0,0.0,0.0,0.0,0.0,0.0,0.0,0.0,0.0,0.0,0.0,0.0,0.0,0.0,0.0,0.0,0.0,0.0,0.0,0.0,0.0,0.0,0.0,0.0,0.0,0.0,0.0,0.0,0.0,0.0,0.0,0.0,0.0,0.0,0.0,0.0,0.0,0.0,0.0,0.0,0.0,0.0,0.0,0.0,0.0,0.0,0.0,0.0,0.0,0.0,0.0,0.0,0.0,0.0,0.0,0.0,0.0,0.0,0.0,0.0,0.0,0.0,0.0,0.0,0.0,0.0,0.0,0.0,0.0,0.0,0.0,0.0,0.0,0.0,0.0,0.0,0.0,0.0,0.0,0.0,0.0,0.0,0.0,0.0,0.0,0.0,0.0,0.0,0.0,0.0,0.0,0.0,0.0,0.0,0.0,0.0,0.0,0.0,0.0,0.0,0.0,0.0,0.0,0.0,0.0,0.0,0.0,0.0,0.0,0.0,0.0,0.0,0.0,0.0,0.0,0.0,0.0,0.0,0.0,0.0,0.0,0.0,0.0,0.0,0.0,0.0,0.0,0.0,0.0,0.0,0.0,0.0,0.0,0.0,0.0,0.0,0.0,0.0,0.0,0.0,0.0,0.0,0.0,0.0,0.0,0.0,0.0,0.0,0.0,0.0,0.0,0.0,0.0,0.0,0.0,0.0,0.0,0.0,0.0,0.0,0.0,0.0,0.0,0.0,0.0,0.0,0.0,0.0,0.0,0.0,0.0,0.0,0.0,0.0,0.0,0.0,0.0,0.0,0.0,0.0,0.0,0.0,0.0,0.0,0.0,0.0,0.0,0.0,0.0,0.0,0.0,0.0,0.0,0.0,0.0,0.0,0.0,0.0,0.0,0.0,0.0,0.0,0.0,0.0,0.0,0.0,0.0,0.0,0.0,0.0,0.0,0.0,0.0,0.0,0.0,0.0,0.0,0.0,0.0,0.0,0.0,0.0,0.0,0.0,0.0,0.0,0.0,0.0,0.0,0.0,0.0,0.0,0.0,0.0,0.0,0.0,0.0,0.0,0.0,0.0,0.0,0.0,0.0,0.0,0.0,0.0,0.0,0.0,0.0,0.0,0.0,0.0,0.0,0.0,0.0,0.0,0.0,0.0,0.0,0.0,0.0,0.0,0.0,0.0,0.0,0.0,0.0,0.0,0.0,0.0,0.0,0.0,0.0,0.0,0.0,0.0,0.0,0.0,0.0,0.0,0.0,0.0,0.0,0.0,0.0,0.0,0.0,0.0,0.0,0.0,0.0,0.0,0.0,0.0,0.0,0.0,0.0,0.0,0.0,0.0,0.0,0.0,0.0,0.0,0.0,0.0,0.0,0.0,0.0,0.0,0.0,0.0,0.0,0.0,0.0,0.0,0.0,0.0,0.0,0.0,0.0,0.0,0.0,0.0,0.0,0.0,0.0,0.0,0.0,0.0,0.0,0.0,0.0,0.0,0.0,0.0,0.0,0.0,0.0,0.0,0.0,0.0,0.0,0.0,0.0,0.0,0.0,0.0,0.0,0.0,0.0,0.0,0.0,0.0,0.0,0.0,0.0,0.0,0.0,0.0,0.0,0.0,0.0,0.0,0.0,0.0,0.0,0.0,0.0,0.0,0.0,0.0,0.0,0.0,0.0,0.0,0.0,0.0,0.0,0.0,0.0,0.0,0.0,0.0,0.0,0.0,0.0,0.0,0.0,0.0,0.0,0.0,0.0,0.0,0.0,0.0,0.0,0.0,0.0,0.0,0.0,0.0,0.0,0.0,0.0,0.0,0.0,0.0,0.0,0.0,0.0,0.0,0.0,0.0,0.0,0.0,0.0,0.0,0.0,0.0,0.0,0.0,0.0,0.0,0.0,0.0,0.0,0.0,0.0,0.0,0.0,0.0,0.0,0.0,0.0,0.0,0.0,0.0,0.0,0.0,0.0,0.0,0.0,0.0,0.0,0.0,0.0,0.0,0.0,0.0,0.0,0.0,0.0,0.0,0.0,0.0,0.0,0.0,0.0,0.0,0.0,0.0,0.0,0.0,0.0,0.0,0.0,0.0,0.0,0.0,0.0,0.0,0.0,0.0,0.0,0.0,0.0,0.0,0.0,0.0,0.0,0.0,0.0,0.0,0.0,0.0,0.0,0.0,0.0,0.0,0.0,0.0,0.0,0.0,0.0,0.0,0.0,0.0,0.0,0.0,0.0,0.0,0.0,0.0,0.0,0.0,0.0,0.0,0.0,0.0,0.0,0.0,0.0,0.0,0.0,0.0,0.0,0.0,0.0,0.0,0.0,0.0,0.0,0.0,0.0,0.0,0.0,0.0,0.0,0.0,0.0,0.0,0.0,0.0,0.0,0.0,0.0,0.0,0.0,0.0,0.0,0.0,0.0,0.0,0.0,0.0,0.0,0.0,0.0,0.0,0.0,0.0,0.0,0.0,0.0,0.0,0.0,0.0,0.0,0.0,0.0,0.0,0.0,0.0,0.0,0.0,0.0,0.0,0.0,0.0,0.0,0.0,0.0,0.0,0.0,0.0,0.0,0.0,0.0,0.0,0.0,0.0,0.0,0.0,0.0,0.0,0.0,0.0,0.0,0.0,0.0,0.0,0.0,0.0,0.0,0.0,0.0,0.0,0.0,0.0,0.0,0.0,0.0,0.0,0.0,0.0,0.0,0.0,0.0,0.0,0.0,0.0,0.0,0.0,0.0,0.0,0.0,0.0,0.0,0.0,0.0,0.0,0.0,0.0,0.0,0.0,0.0,0.0,0.0,0.0,0.0,0.0,0.0,0.0,0.0,0.0,0.0,0.0,0.0,0.0,0.0,0.0,0.0,0.0,0.0,0.0,0.0,0.0,0.0,0.0,0.0,0.0,0.0,0.0,0.0,0.0,0.0,0.0,0.0,0.0,0.0,0.0,0.0,0.0,0.0,0.0,0.0,0.0,0.0,0.0,0.0,0.0,0.0,0.0,0.0,0.0,0.0,0.0,0.0,0.0,0.0,0.0,0.0,0.0,0.0,0.0,0.0,0.0,0.0,0.0,0.0,0.0,0.0,0.0,0.0,0.0,0.0,0.0,0.0,0.0,0.0,0.0,0.0,0.0,0.0,0.0,0.0,0.0,0.0,0.0,0.0,0.0,0.0,0.0,0.0,0.0,0.0,0.0,0.0,0.0,0.0,0.0,0.0,0.0,0.0,0.0,0.0,0.0,0.0,0.0,0.0,0.0,0.0,0.0,0.0,0.0,0.0,0.0,0.0,0.0,0.0,0.0,0.0,0.0,0.0,0.0,0.0,0.0,0.0,0.0,0.0,0.0,0.0,0.0,0.0,0.0,0.0,0.0,0.0,0.0,0.0,0.0,0.0,0.0,0.0,0.0,0.0,0.0,0.0,0.9278,0.0,0.0,0.0,0.0,0.0,0.0,0.0,0.0,0.0,0.0,0.0,0.0,0.0,0.0,0.0,0.0,0.0,0.0,0.0,0.0,0.0,0.0,0.0,0.0,0.0,0.0,0.0,0.0,0.0,0.0,0.0,0.0,0.0,0.0,0.0,0.0,0.0,0.0,1.9811,1.9798,1.9962,2.0291,1.9716,1.8885,1.7885,0.0,0.0,0.0,0.0,0.0,0.0,0.0,0.0,0.0,0.0,0.0,0.0,0.0,0.0,0.0,0.0,0.0,0.0,0.0,0.0,0.0,0.0,0.0,0.0,0.0,0.0,0.0,0.0,0.0,0.0,0.0,0.0,0.0,0.0,0.0,0.0,0.0,0.0,0.0,0.0,0.0,0.0,0.0,0.0,0.0,0.0,0.0,0.0,0.0,0.0,0.0,0.0,0.0,0.0,0.0,0.0,0.0,0.0,0.0,0.0,0.0,0.0,0.0,0.0,0.0,0.0,0.0,0.0,0.0,0.0,0.0,0.9621,0.0,0.0,0.0,0.0,0.0,0.0,0.0,0.0,0.0,0.0,0.0,0.0,0.0,0.0,0.0,0.0,0.0,0.0,0.0,0.0,0.0,0.0,0.0,1.9453,1.9757,1.9611,1.9989,2.0175,0.0,0.0,0.0,0.0,0.0,0.0,0.0,2.0029,1.9914,1.963,1.9872,2.0159,2.0517,2.0764,2.0021,1.849,1.8382,0.0,0.0,0.0,0.0,0.0,0.0,0.0,0.0,0.0,0.0,0.0,0.0,0.0,0.0,0.0,0.0,0.0,0.0,0.0,0.0,0.0,0.0,0.0,0.0,0.0,0.0,0.0,0.0,0.0,0.0,0.0,0.0,0.0,0.0,0.0,0.0,0.0,0.0,0.0,0.0,0.0,0.0,0.0,0.0,0.0,0.0,0.0,0.0,0.0,0.0,0.0,0.0,0.0,0.0,0.0,0.0,0.0,0.0,0.0,0.0,0.0,0.0,0.0,0.9855,0.989,1.0036,0.9708,0.9736,1.0017,0.9736,0.9345,0.898,0.0,0.0,0.0,0.0,0.0,0.0,0.0,0.0,0.0,0.0,0.0,0.0,0.0,0.0,0.0,0.0,0.0,0.0,0.0,0.0,0.0,0.0,1.9649,1.9971,2.0398,2.0142,2.0071,2.033,0.0,0.0,0.0,0.0,0.0,1.9824,1.9617,1.9591,1.976,2.0366,2.076,2.092,2.1078,2.0464,1.9246,1.9246,1.8544,1.7392,0.0,0.0,0.0,0.0,0.0,0.0,0.0,0.0,0.0,0.0,0.0,0.0,0.0,0.0,0.0,0.0,0.0,0.0,0.0,0.0,0.0,0.0,0.0,0.0,0.0,0.0,0.0,0.0,0.0,0.0,0.0,0.0,0.0,0.0,0.0,0.0,0.0,0.0,0.0,0.0,0.0,1.1132,1.1439,0.0,0.0,0.0,0.0,0.0,0.0,0.0,0.0,0.0,0.0,0.0,0.0,0.0,0.0,1.0482,0.9222,0.8867,0.9411,0.8883,0.8643,0.8666,0.8597,0.8575,0.859,0.8774,0.0,1.0135,0.9886,0.0,0.0,0.0,0.0,0.0,0.0,0.0,0.0,0.0,0.0,0.0,0.0,0.0,0.0,0.0,0.0,0.0,0.0,0.0,0.0,0.0,2.0048,2.0439,2.0479,2.0708,2.0764,2.0522,2.051,0.0,0.0,0.0,1.9707,1.9578,1.9873,2.0197,2.0591,2.0955,2.1219,2.1338,2.1628,2.1223,2.0245,2.0245,1.9176,1.7366,1.7055,0.0,0.0,0.0,0.0,0.0,0.0,0.0,0.0,0.0,0.0,0.0,0.0,0.0,0.0,0.0,0.0,0.0,0.0,0.0,0.0,0.0,0.0,0.0,0.0,0.0,0.0,0.0,0.0,0.0,0.0,0.0,0.0,0.0,0.0,0.0,0.0,0.0,0.0,0.0,1.1384,1.1366,1.1254,1.0836,1.0554,0.0,0.0,0.0,0.0,0.0,0.0,0.0,0.0,0.0,0.9275,0.9235,0.9327,0.9533,0.9044,0.8928,0.9177,0.8912,0.8715,0.857,0.857,0.853,0.8482,0.8764,0.927,0.991,0.9515,0.937,0.9433,0.0,0.0,0.0,0.0,1.0033,0.9943,0.0,0.0,0.0,0.0,0.0,0.0,0.0,0.0,0.0,0.0,0.0,0.0,1.9813,2.0543,2.0955,2.0801,2.1164,2.1208,2.0769,2.055,2.0195,1.9617,1.9512,1.9421,1.9343,2.0015,2.0659,2.1254,2.1379,2.1554,2.1762,2.1916,2.1569,2.0812,2.0528,1.9358,1.7605,1.7332,1.6749,1.6014,0.0,0.0,0.0,0.0,0.0,0.0,0.0,0.0,0.0,0.0,0.0,0.0,0.0,0.0,0.0,0.0,0.0,0.0,0.0,0.0,0.0,0.0,0.0,0.0,0.0,0.0,0.0,0.0,0.0,0.0,0.0,0.0,0.0,0.0,0.0,0.0,0.0,1.1118,1.1188,1.089,1.0755,1.0491,0.0,0.0,0.0,0.0,0.0,0.0,0.8886,0.9065,0.9023,0.8678,0.8931,0.8966,0.8721,0.8918,0.9017,0.8989,0.9064,0.9008,0.8851,0.8851,0.8827,0.878,0.9002,0.9294,0.9626,0.9415,0.9317,0.9286,0.9451,0.9363,0.9194,0.975,0.966,0.9446,0.0,0.0,0.0,0.0,0.0,0.0,0.0,0.0,0.0,0.0,0.0,2.1198,2.0694,2.1075,2.1503,2.1804,2.1212,2.0921,2.1068,2.0411,1.9901,1.9617,1.9225,1.9093,1.9212,1.9759,2.0465,2.1398,2.1529,2.178,2.2149,2.1667,2.1151,2.0565,1.9478,1.8829,1.8527,1.8383,1.7851,1.706,1.6379,0.0,0.0,0.0,0.0,0.0,0.0,0.0,0.0,0.0,0.0,0.0,0.0,0.0,0.0,0.0,0.0,0.0,0.0,0.0,0.0,0.0,0.0,0.0,0.0,0.0,0.0,0.0,0.0,0.0,0.0,0.0,0.0,0.0,0.0,0.0,0.0,0.0,0.0,1.0221,0.9804,0.0,0.0,0.0,0.0,0.92,0.9122,0.9093,0.9093,0.9108,0.9172,0.9347,0.9136,0.8929,0.8799,0.8799,0.8785,0.8715,0.8965,0.9152,0.928,0.928,0.9257,0.9265,0.9268,0.9477,0.98,0.9913,0.9871,0.9799,1.0188,1.0092,0.9814,1.0212,1.0351,1.0407,0.0,0.0,0.0,0.0,0.0,0.0,0.0,0.0,2.0053,2.0237,2.0835,2.1338,2.1574,2.1627,2.1751,2.2011,2.1502,2.1272,2.1459,2.0553,2.0026,2.0046,1.9492,1.9581,2.0406,2.0747,2.1276,2.2049,2.2004,2.1885,2.1679,2.1356,2.0752,1.9938,1.9522,1.905,1.852,1.8306,1.7901,1.7393,1.7295,1.6798,0.0,0.0,0.0,0.0,0.0,0.0,0.0,0.0,0.0,0.0,0.0,0.0,0.0,0.0,0.0,0.0,0.0,0.0,0.0,0.0,0.0,0.0,0.0,0.0,0.0,0.0,0.0,0.0,0.0,0.0,0.0,0.0,0.0,0.0,0.0,0.0,0.0,1.0375,0.9835,0.0,0.9309,0.9386,0.9357,0.9152,0.9314,0.9409,0.9352,0.9346,0.9341,0.9339,0.9241,0.917,0.9123,0.9123,0.9102,0.9087,0.9368,0.9424,0.9302,0.9511,0.9616,0.9616,0.9616,0.9877,1.0334,1.0561,1.0514,1.0361,1.0654,1.0692,1.0589,1.073,1.0786,1.0816,0.0,0.0,0.0,0.0,0.0,0.0,0.0,0.0,2.0464,2.1005,2.1358,2.1736,2.2196,2.2127,2.2221,2.2666,2.2209,2.1856,2.1799,2.0822,2.0132,1.9867,1.9345,1.9703,2.1108,2.1095,2.1387,2.2068,2.1972,2.1698,2.1264,2.094,2.0413,1.9712,1.946,1.9052,1.8479,1.8194,1.7985,1.7845,1.7886,1.7443,1.6735,0.0,0.0,0.0,0.0,0.0,0.0,0.0,0.0,0.0,0.0,0.0,0.0,0.0,0.0,0.0,0.0,0.0,0.0,0.0,0.0,0.0,0.0,0.0,0.0,0.0,0.0,0.0,0.0,0.0,0.0,0.0,0.0,0.0,0.0,0.0,1.0175,1.0234,0.9827,0.9518,0.945,0.9525,0.9553,0.9474,0.9577,0.9606,0.9563,0.9571,0.9493,0.9298,0.938,0.9354,0.9175,0.9175,0.9148,0.9093,0.938,0.9466,0.9332,0.9656,0.9865,0.9971,0.9971,1.021,1.0657,1.0917,1.0917,1.0803,1.1145,1.1274,1.1274,1.1274,1.1274,1.1309,0.0,0.0,0.0,0.0,0.0,0.0,0.0,2.056,2.0961,2.1361,2.2025,2.2487,2.2499,2.2496,2.2872,2.3797,2.3205,2.2563,2.2032,2.1168,2.0176,1.9033,1.8781,1.9441,2.1137,2.0691,2.0765,2.138,2.1391,2.1261,2.0968,2.0449,2.0119,1.9954,1.9238,1.8775,1.8505,1.8166,1.82,1.8482,1.8077,1.7902,1.7819,0.0,0.0,0.0,0.0,0.0,0.0,0.0,0.0,0.0,0.0,0.0,0.0,0.0,0.0,0.0,0.0,0.0,0.0,0.0,0.0,0.0,0.0,0.0,0.0,0.0,0.0,0.0,0.0,0.0,0.0,0.0,0.0,0.0,1.0587,1.0268,1.0003,0.9763,0.9667,0.9684,0.9901,0.9917,0.9995,1.0174,0.9899,0.972,0.9698,0.9698,0.9571,0.932,0.9553,0.9422,0.893,0.8904,0.8842,0.8743,0.9067,0.9284,0.9434,0.9706,1.0009,1.0312,1.0312,1.0445,1.0719,1.0994,1.1099,1.1147,1.1625,1.181,1.181,1.181,1.181,1.1895,0.0,0.0,0.0,0.0,0.0,0.0,0.0,2.1043,2.1511,2.1671,2.1871,2.211,2.2462,2.2408,2.2594,2.3192,2.275,2.228,2.1953,2.083,1.9796,1.8883,1.9673,2.0219,2.0411,2.1216,2.1467,2.1106,2.1448,2.1319,2.0695,2.0407,2.0075,1.9678,1.929,1.9077,1.897,1.8613,1.8577,1.8733,1.8193,1.789,1.7649,0.0,0.0,0.0,0.0,0.0,0.0,0.0,0.0,0.0,0.0,0.0,0.0,0.0,0.0,0.0,0.0,0.0,0.0,0.0,0.0,0.0,0.0,0.0,0.0,0.0,0.0,0.0,0.0,0.0,0.0,0.0,0.0,1.1548,1.1,1.058,1.0318,1.0345,1.0154,1.006,1.0105,1.0113,1.0029,0.9843,0.9977,1.0033,0.9918,0.9682,0.9578,0.9651,0.9301,0.9169,0.9251,0.9251,0.9354,0.9503,0.9585,0.9771,1.0064,1.0119,1.0312,1.0582,1.0582,1.0637,1.0719,1.0994,1.1099,1.1173,1.1715,1.1949,1.1975,1.2159,1.2239,1.2276,0.0,0.0,0.0,0.0,0.0,0.0,0.0,2.1348,2.1704,2.2088,2.1902,2.1944,2.2524,2.2587,2.2748,2.3137,2.2921,2.2413,2.1622,2.0189,1.93,1.9144,1.963,2.0082,2.0462,2.1025,2.1151,2.0831,2.1118,2.0956,2.0428,2.0311,2.0066,1.9718,1.9559,1.9315,1.8958,1.8452,1.8249,1.8202,1.7406,1.7385,1.774,1.6971,1.6572,1.6297,1.5272,1.4999,1.5148,1.5278,0.0,0.0,0.0,0.0,0.0,0.0,0.0,0.0,0.0,0.0,0.0,0.0,0.0,0.0,0.0,0.0,0.0,0.0,0.0,0.0,0.0,0.0,0.0,0.0,1.185,1.1619,1.1391,1.0866,1.051,1.0446,1.038,1.0402,1.048,1.0489,1.0438,1.0299,1.025,1.0214,1.0124,0.9938,0.9821,0.9812,0.9596,0.9517,0.9572,0.9572,0.9596,0.9623,0.9734,0.9933,1.0219,1.0334,1.0568,0.0,1.0915,1.0915,1.0911,1.1083,1.1135,0.0,0.0,0.0,0.0,0.0,1.2414,1.2436,0.0,0.0,0.0,0.0,0.0,0.0,0.0,2.1576,2.1792,2.2483,2.2032,2.1868,2.2514,2.2741,2.2911,2.3073,2.309,2.2449,2.0951,1.9442,1.8892,1.9534,1.9183,1.959,2.0838,2.0516,2.0397,2.0549,2.0616,2.0492,2.0208,2.0208,2.0104,1.9896,1.9848,1.9448,1.8751,1.806,1.7675,1.7401,1.6412,1.6744,1.7748,1.7161,1.662,1.6085,1.5199,1.4832,1.4842,1.5379,0.0,0.0,0.0,0.0,0.0,0.0,0.0,0.0,0.0,0.0,0.0,0.0,0.0,0.0,0.0,0.0,0.0,0.0,0.0,0.0,0.0,0.0,0.0,0.0,1.1865,1.1614,1.1722,1.1206,1.0741,1.0414,1.0562,1.076,1.0904,1.0921,1.0961,1.1008,1.061,1.0339,1.0312,0.0,0.0,0.0,0.0,1.0043,0.9813,0.9785,0.9706,0.9515,0.9706,0.9915,1.0137,1.0371,1.0708,1.1162,1.1191,1.1195,1.1195,1.1195,1.1224,1.1278,1.1516,1.1772,1.2046,1.2293,1.237,1.237,0.0,0.0,0.0,0.0,0.0,0.0,0.0,2.2086,2.2455,2.2449,2.2044,2.1763,2.1803,2.1903,2.176,2.1253,2.1177,2.0621,1.941,1.926,1.9243,1.9281,1.9844,2.0131,2.0027,2.0728,2.0821,2.0281,2.0659,2.064,2.0285,2.0285,2.0139,1.9896,1.9555,1.942,1.9364,1.859,1.8206,1.8078,1.7561,1.7072,1.6598,1.5631,1.5659,1.6091,1.5207,1.5257,1.5738,1.5856,1.5891,1.5945,1.6218,1.6338,0.0,0.0,0.0,0.0,0.0,0.0,0.0,0.0,0.0,0.0,0.0,0.0,0.0,0.0,0.0,0.0,0.0,0.0,0.0,1.249,1.2547,1.2445,1.1996,1.1828,1.163,1.1373,1.1377,1.1309,1.1076,1.1048,1.0901,1.05,1.0559,1.0527,1.0312,1.0036,0.0,0.9958,0.9592,0.9536,0.9806,0.9806,0.9921,1.0122,0.0,0.0,1.0252,1.0314,1.0501,1.0817,1.1076,1.1195,1.1195,1.1195,1.1368,1.1618,1.1661,1.1835,1.2086,1.2143,1.2172,1.2172,0.0,0.0,0.0,0.0,0.0,0.0,0.0,2.2148,2.2189,2.1887,2.1587,2.1164,2.0521,2.0681,2.0602,1.9954,1.9724,1.9265,1.8452,1.8779,1.8968,1.8904,1.9517,1.9806,1.9711,2.0279,2.049,2.0244,2.0478,2.043,2.0108,2.0199,2.0114,1.9884,1.9703,1.9412,1.905,1.8241,1.7639,1.7151,1.6599,1.6143,1.5714,1.5459,1.5501,1.5604,1.4939,1.4915,1.522,1.5385,1.554,1.5689,1.5932,1.6146,1.6345,0.0,0.0,0.0,0.0,0.0,0.0,0.0,0.0,0.0,0.0,0.0,0.0,0.0,0.0,1.2784,0.0,0.0,1.2845,1.2502,1.2438,1.2387,1.2223,1.2087,1.1896,1.1623,1.1596,1.1541,1.1377,1.1208,1.1031,1.085,1.0858,1.0811,1.0759,1.0421,1.0294,1.0353,0.9953,0.9846,1.004,1.004,1.004,1.004,1.004,1.02,1.046,1.0607,1.0916,1.1264,1.1441,1.15,1.15,1.15,1.1589,1.1736,1.1736,1.1999,1.2345,1.2345,1.2459,1.2602,0.0,0.0,0.0,0.0,0.0,0.0,0.0,2.2305,2.1989,2.1637,2.1209,2.052,1.9426,1.9528,1.936,1.8583,1.8401,1.8115,1.7596,1.818,1.8584,1.8671,1.9002,1.9327,1.9659,1.9821,1.9985,2.0167,2.0167,1.999,1.9666,1.9945,1.9957,1.9709,1.9781,1.9365,1.8581,1.7726,1.6921,1.6109,1.5403,1.5103,1.5144,1.5516,1.5413,1.503,1.4667,1.4533,1.4623,1.5012,1.5327,1.5604,1.5865,1.6242,1.6555,1.6341,1.6659,0.0,0.0,0.0,0.0,0.0,0.0,0.0,0.0,0.0,1.3476,1.3471,1.3211,1.2925,1.2808,1.2899,1.2858,1.2467,1.2273,1.2223,1.2387,1.2201,1.1982,1.1763,1.1735,1.168,1.157,1.1353,1.1272,1.1343,1.1158,1.1049,1.1097,1.0788,1.0514,1.0313,1.0142,0.9957,0.9748,1.0044,1.0018,0.9697,1.0164,1.0487,1.0711,1.095,1.1312,1.1695,1.1756,1.1851,1.1912,1.1912,1.1943,1.2004,1.1908,1.2265,1.2801,1.2603,1.2721,1.301,0.0,0.0,0.0,0.0,0.0,0.0,0.0,0.0,2.2815,2.2642,2.1525,2.0368,1.9402,1.8818,1.7934,1.6563,1.7011,1.7089,1.6434,1.7621,1.8522,1.8935,1.8994,1.9295,1.9856,1.9895,1.9825,1.9685,1.9685,1.939,1.8854,1.941,1.9444,1.9038,1.9391,1.9234,1.8628,1.7707,1.6985,1.6384,1.5462,1.5089,1.5082,1.4907,1.4764,1.4671,1.4614,1.4814,1.5197,1.585,1.6236,1.6495,1.6765,1.706,1.7234,1.6972,1.7279,1.7599,1.7067,1.7233,1.7537,1.7574,1.692,1.6072,0.0,0.0,1.3827,1.2855,1.2774,1.2815,1.2507,1.2706,1.2797,1.2463,1.2631,1.2713,1.2441,1.2326,1.2255,1.2223,1.2227,1.2,1.1468,1.1556,1.1515,1.1249,1.1191,1.1056,1.0759,1.0503,0.9873,0.8857,0.9097,0.8734,0.7729,0.9129,0.968,0.9381,1.0315,1.0853,1.1052,1.1017,1.1142,1.1366,1.1681,1.1964,1.2247,1.2247,1.2404,1.266,1.2373,1.2841,1.3562,1.26,1.2444,1.2748,0.0,0.0,0.0,0.0,0.0,0.0,0.0,0.0,0.0,2.2974,2.1618,2.0088,1.8639,1.7048,1.5766,1.4952,1.5875,1.6246,1.5657,1.7231,1.8218,1.8304,1.8405,1.8695,1.9192,1.9212,1.9163,1.9092,1.9092,1.8814,1.8302,1.8663,1.868,1.8376,1.8549,1.8355,1.7821,1.6976,1.6347,1.5863,1.5252,1.4881,1.4729,1.4641,1.4583,1.4592,1.4504,1.4733,0.0,1.5348,1.5591,1.5864,1.6279,1.6595,1.6815,1.6815,1.7239,1.7602,1.7222,1.6458,1.5844,1.618,1.5281,1.4325,1.4504,1.3876,1.3158,1.2812,1.2817,1.2799,1.2468,1.2523,1.255,0.0,1.249,1.2492,1.2349,1.2412,1.2285,1.1712,1.1758,1.1693,1.1326,1.1036,1.0628,1.0021,0.997,0.9619,0.8835,0.8483,0.8395,0.8592,0.8747,0.8998,0.9359,1.0055,1.0305,1.0184,1.0585,1.084,1.0936,1.1058,1.1288,1.1612,1.1957,1.2182,1.2308,1.2308,1.2367,1.2493,1.2584,1.2953,1.3434,1.3022,1.3181,1.3617,0.0,0.0,0.0,0.0,0.0,0.0,0.0,0.0,0.0,0.0,2.1701,1.9711,1.7271,1.5139,1.375,1.3396,1.4454,1.5054,1.4846,1.6324,1.7251,1.7419,1.7583,1.7882,1.8276,1.8252,1.8187,1.8147,1.8095,1.7853,1.7481,1.7805,1.7788,1.7539,1.772,1.74,1.6724,1.5944,1.5373,1.4995,1.4485,1.4239,1.4201,1.4279,1.4311,1.4282,1.4249,1.4529,1.4884,1.4842,1.5042,1.5428,1.5967,1.6326,1.66,1.6735,1.698,1.7214,1.7125,1.6003,1.4938,1.5219,1.413,1.3157,1.3821,1.3174,1.252,1.2729,1.2686,1.2577,1.2332,1.2305,1.2324,1.2352,1.2326,1.2305,1.236,1.2337,1.2054,1.1355,1.0985,1.0713,1.0556,1.0226,0.9685,0.8836,0.8759,0.8363,0.7467,0.7226,0.7311,0.7768,0.8244,0.8669,0.9089,0.9856,1.0015,0.9634,1.0206,1.0484,1.0558,1.0988,1.1426,1.1811,1.2071,1.2259,1.2454,1.2454,1.2454,1.2482,1.2825,1.3171,1.3489,1.3585,1.3902,1.4312,0.0,0.0,0.0,0.0,0.0,0.0,0.0,0.0,0.0,0.0,0.0,0.0,0.0,1.3305,1.2212,1.1803,1.2514,1.3251,1.3908,1.4537,1.5356,1.6409,1.6572,1.6822,1.7243,1.7125,1.6952,1.676,1.6571,1.636,1.6177,1.6768,1.6794,1.6374,1.6952,1.657,1.5399,1.4666,1.417,1.3789,1.3058,1.3028,1.347,1.3716,1.3708,1.3555,1.3755,1.4291,1.4862,1.466,1.5084,1.5773,1.6317,1.67,1.6974,1.6998,1.6631,1.634,1.6794,1.6359,1.5683,1.5381,1.4527,1.3698,1.3399,1.2707,1.2173,1.2371,1.2223,1.2028,1.2005,1.2005,1.2069,1.2274,1.2311,1.2379,1.2566,1.1986,1.1521,1.1492,0.9957,0.8891,0.0,0.9158,0.8942,0.8005,0.7928,0.7811,0.7505,0.7548,0.6999,0.5721,0.7321,0.71,0.4802,0.7422,0.809,0.675,0.8698,0.9726,0.9954,1.0797,1.1431,1.1798,1.1798,1.2194,1.2787,1.2787,1.2787,1.282,1.3218,1.3575,1.3927,1.4254,1.4332,1.4312,0.0,0.0,0.0,0.0,0.0,0.0,0.0,0.0,0.0,0.0,0.0,0.0,0.0,0.0,0.0,0.0,1.1221,1.1767,1.24,1.3222,1.4083,1.5022,1.5107,1.5478,1.6196,1.5898,1.578,1.5842,1.5767,1.5713,1.5637,1.5845,1.5681,1.5248,1.5456,1.5131,1.4427,1.3933,1.3633,1.3483,1.2968,1.2859,1.3007,1.3112,1.3195,1.3267,0.0,1.3351,1.4018,1.43,1.4647,1.5127,1.6012,1.627,1.6269,1.6635,1.6075,1.5371,1.5531,1.4597,1.3532,1.3257,1.2916,1.2628,1.2543,1.2394,1.2329,1.2395,1.2332,1.2273,1.2273,1.2059,1.1955,1.2246,1.2196,1.2097,1.2129,1.1883,1.1277,1.0159,0.9347,0.0,0.0,0.0,0.0,0.64,0.6553,0.6192,0.4983,0.4944,0.5075,0.5384,0.6227,0.6745,0.6848,0.7767,0.7997,0.7537,0.8722,0.9667,1.0442,1.0958,1.1413,1.1813,1.2045,1.2375,1.2803,1.2803,1.2803,1.2836,1.3235,1.3593,1.394,1.4272,1.4516,1.4691,0.0,0.0,0.0,0.0,0.0,0.0,0.0,0.0,0.0,0.0,0.0,0.0,0.0,0.0,0.0,0.0,0.0,1.026,1.098,1.1451,1.2124,1.3071,1.309,1.3404,1.4107,1.4056,1.4047,1.4089,1.4413,1.458,1.4531,1.4378,1.4082,1.3729,1.3489,1.3107,1.2672,1.2587,1.2497,1.2393,1.2224,1.2099,1.2037,1.2223,1.2338,0.0,1.2215,1.2497,1.3045,1.3554,1.4009,1.4486,1.5241,1.5575,1.5706,1.5724,1.5288,1.4719,1.4423,1.343,1.2444,1.2271,1.206,1.1948,1.2046,1.2094,1.216,1.2321,1.2137,1.1969,1.2041,1.1835,1.1716,1.187,1.1943,1.1904,1.17,1.1253,1.0501,0.9308,0.831,0.7159,0.0,0.0,0.0,0.5085,0.5247,0.4965,0.3865,0.3851,0.4173,0.4904,0.5563,0.6084,0.6508,0.6876,0.7274,0.7643,0.8246,0.9283,1.0721,1.092,1.1218,1.1615,1.1978,1.2309,1.2638,1.2737,1.2803,1.2836,1.3235,1.3593,1.394,1.4272,1.4604,1.4936,0.0,0.0,0.0,0.0,0.0,0.0,0.0,0.0,0.0,0.0,0.0,0.0,0.0,0.0,0.0,0.0,0.0,0.0,0.9637,0.9337,0.9588,1.0635,1.0636,1.0806,1.1209,1.1722,1.1857,1.1624,1.2473,1.2896,1.2875,1.2368,1.2036,1.1849,1.1199,1.0639,1.0255,1.069,1.076,1.0556,1.0805,1.0761,1.0599,1.111,1.117,1.1035,1.1486,1.1804,1.2071,1.2559,1.3246,1.3971,1.4077,1.4724,1.5269,1.4418,1.4319,1.4325,1.3498,1.2876,1.2447,1.2362,1.1978,1.165,1.1896,1.1768,1.1721,1.2135,1.1658,1.1202,0.0,1.1403,1.1377,1.1265,1.1624,1.1747,1.1291,1.0159,0.9228,0.0,0.0,0.0,0.0,0.0,0.0,0.4139,0.0,0.4221,0.4221,0.4275,0.4308,0.4308,0.5277,0.5175,0.3835,0.4838,0.5906,0.704,0.7345,0.8615,1.0688,1.0688,1.0883,1.1214,1.1615,1.1978,1.2342,1.2671,1.2803,1.2836,1.3235,1.3593,1.394,1.4272,1.4604,1.4968,0.0,0.0,0.0,0.0,0.0,0.0,0.0,0.0,0.0,0.0,0.0,0.0,0.0,0.0,0.0,0.0,0.0,0.0,0.8066,0.8047,0.8359,0.9124,0.9385,0.9665,1.0025,1.028,1.0427,1.0509,1.0305,1.0598,1.1336,1.0366,1.0016,1.0209,0.9834,0.9476,0.9177,0.9317,0.9429,0.9556,0.964,0.9746,0.9862,1.0022,1.0338,1.0727,1.0832,1.1384,1.2139,1.2615,1.3537,1.4302,1.325,1.3668,1.4391,1.3727,1.3273,1.2978,1.2998,1.2442,1.1828,1.1801,1.1705,1.1541,1.1373,1.1544,1.1666,1.1321,1.146,1.1621,1.155,1.1584,1.1647,1.172,1.1789,0.0,1.0385,0.9761,0.0,0.7016,0.0,0.5365,0.4617,0.448,0.0,0.0,0.4507,0.4549,0.4285,0.4298,0.4308,0.4308,0.4575,0.4542,0.4172,0.4441,0.551,0.7379,0.7448,0.8615,1.0688,1.0688,1.0883,1.1214,1.1615,1.1978,1.2342,1.2671,1.2803,1.2803,1.2902,1.3325,1.3908,1.401,1.4403,1.4996,0.0,0.0,0.0,0.0,0.0,0.0,0.0,0.0,0.0,0.0,0.0,0.0,0.0,0.0,0.0,0.0,0.0,0.0,0.0,0.7184,0.7219,0.7539,0.773,0.7968,0.8278,0.8642,0.8867,0.895,0.909,0.9335,0.9649,0.9057,0.8648,0.8377,0.8298,0.8072,0.7743,0.8246,0.8436,0.0,0.0,0.8865,0.8841,0.9081,0.9576,1.018,1.0402,1.1057,1.1898,1.2201,1.2803,1.3301,1.2725,1.3065,1.3585,1.3084,1.2878,1.2741,1.2571,1.206,1.1596,1.1596,1.1404,1.124,1.1295,1.1404,1.1507,1.1509,1.1486,1.1507,1.1634,1.1536,1.1487,0.0,0.0,0.0,0.9619,0.8726,0.7645,0.0,0.5429,0.0,0.4289,0.442,0.4475,0.0,0.4475,0.4507,0.4308,0.4308,0.4308,0.4308,0.4308,0.4239,0.4071,0.4539,0.5609,0.7278,0.7912,0.9084,1.0688,1.0688,1.0787,1.1019,0.0,1.1912,1.2111,1.2605,1.2803,1.2803,1.2803,1.326,1.3908,1.3908,1.4441,1.523,0.0,0.0,0.0,0.0,0.0,0.0,0.0,0.0,0.0,0.0,0.0,0.0,0.0,0.0,0.0,0.0,0.0,0.0,0.0,0.0,0.6422,0.6241,0.6199,0.6276,0.6463,0.7101,0.7409,0.734,0.8207,0.8378,0.789,0.7877,0.7411,0.6603,0.6719,0.6578,0.6297,0.7302,0.7539,0.7316,0.7967,0.8019,0.7752,0.0,0.892,0.9633,1.0248,1.0877,1.1437,1.1625,1.1754,1.1881,1.2278,1.2651,1.2853,1.2481,1.2751,1.2962,1.2169,1.1814,1.165,1.165,1.124,1.0966,1.1486,1.1394,1.1353,1.1944,1.156,1.1251,1.154,1.1405,1.1209,1.1152,0.0,1.0076,0.903,0.7659,0.6478,0.567,0.4872,0.4374,0.4374,0.464,0.4707,0.4475,0.4407,0.434,0.4308,0.4308,0.4308,0.4308,0.4315,0.4252,0.4115,0.5095,0.6207,0.7414,0.8658,0.9804,1.0845,1.0758,1.0751,1.0851,0.0,0.0,1.1912,1.2539,1.2803,1.2803,1.2869,1.3293,1.3908,1.394,1.4604,1.5566,0.0,0.0,0.0,0.0,0.0,0.0,0.0,0.0,0.0,0.0,1.9141,1.8147,0.0,0.0,0.0,0.0,0.0,0.0,0.0,0.0,0.0,0.6382,0.6203,0.6012,0.5769,0.6273,0.6525,0.6516,0.6302,0.624,0.6286,0.5425,0.517,0.5462,0.5219,0.5382,0.5832,0.6123,0.6347,0.6514,0.6691,0.6958,0.7265,0.7566,0.0,0.0,1.0948,1.1227,1.101,1.1528,1.2004,1.2255,1.1572,1.1891,1.2411,1.1896,1.1973,1.2141,1.1759,1.1814,1.1923,1.1923,1.1678,1.1459,1.1568,1.164,0.0,0.0,1.1108,1.1312,1.1153,1.1304,1.1527,1.1794,1.1172,1.0231,0.9001,0.0,0.6565,0.0,0.0,0.0,0.0,0.0,0.0,0.0,0.0,0.4607,0.4308,0.4308,0.4308,0.4308,0.4357,0.4792,0.5676,0.6283,0.7557,0.956,0.9801,1.0491,1.1525,1.1063,1.1042,1.1376,1.1674,0.0,1.2243,1.2638,1.2803,1.2836,1.3169,1.3527,1.394,1.4207,1.4805,1.5566,0.0,0.0,0.0,0.0,0.0,0.0,0.0,2.1358,2.0959,2.0106,1.9695,1.9056,1.7921,1.6231,0.0,0.0,0.0,0.0,0.0,0.0,0.0,0.0,0.6759,0.6354,0.6031,0.6234,0.6429,0.6619,0.0,0.5994,0.6035,0.5418,0.5229,0.5387,0.5134,0.5237,0.5603,0.5809,0.5918,0.5965,0.635,0.6677,0.6988,0.0,0.0,0.0,1.0756,1.0924,1.0641,1.0932,1.1181,1.1389,1.1371,1.165,1.2005,1.2005,1.2114,1.2191,1.206,1.2005,1.2005,1.2005,1.1895,1.1779,1.1809,0.0,0.0,1.1315,1.1155,1.1099,1.1372,1.138,0.0,1.1467,1.103,1.0124,0.8428,0.7694,0.0,0.0,0.0,0.0,0.0,0.0,0.0,0.0,0.0,0.0,0.4574,0.4438,0.4356,0.4356,0.4619,0.5306,0.644,0.7451,0.8759,1.0423,1.0979,1.1503,1.1989,1.1742,1.1743,1.1941,1.2142,0.0,1.2463,1.2707,1.2902,1.3137,1.3334,1.3724,1.4207,1.4534,1.5127,1.5816,0.0,0.0,0.0,0.0,0.0,0.0,0.0,2.1427,2.1171,2.032,2.0066,1.9757,1.9183,1.7222,1.6103,0.0,0.0,0.0,0.0,0.0,0.0,0.0,0.0,0.0,0.0,0.0,0.0,0.6898,0.6659,0.0,0.0,0.0,0.0,0.0,0.5434,0.5431,0.5545,0.5874,0.5811,0.0,0.0,0.656,0.0,0.0,0.0,0.0,0.0,1.0577,1.043,1.0407,1.0391,1.051,1.1249,1.1499,1.1615,1.2104,1.2294,1.233,1.2318,1.2196,1.2087,1.2087,1.205,1.1982,1.1996,1.1777,0.0,1.1882,1.1377,1.1088,1.1735,1.1535,1.1266,0.0,1.0847,0.9888,0.8223,0.7608,0.6894,0.0,0.0,0.0,0.0,0.0,0.0,0.0,0.0,0.0,0.4728,0.452,0.4451,0.4555,0.517,0.6078,0.7294,0.8823,1.0132,1.1281,1.2122,1.2508,1.2508,1.247,1.2524,1.2582,1.2749,0.0,0.0,1.2971,1.3165,1.3404,1.3564,1.3986,1.4539,1.4898,1.5486,1.6169,0.0,0.0,0.0,0.0,0.0,0.0,0.0,2.1798,2.1742,2.0699,2.018,1.9821,1.9571,1.8845,1.7826,0.0,0.0,0.0,0.0,0.0,0.0,0.0,0.0,0.0,0.0,0.0,0.0,0.6905,0.7166,0.0,0.0,0.0,0.0,0.0,0.0,0.5576,0.5623,0.6136,0.0,0.0,0.0,0.0,0.0,0.0,0.0,0.0,0.0,1.0619,1.0473,1.0431,1.0371,1.0391,1.0906,1.1168,1.1398,1.1687,0.0,0.0,1.2036,1.2196,1.2359,1.2359,1.2298,1.2233,1.2051,0.0,1.2117,1.1717,1.1568,1.1623,1.199,1.1728,1.1675,1.2263,1.0931,0.9669,0.9275,0.7855,0.6626,0.5938,0.0,0.0,0.0,0.0,0.0,0.0,0.0,0.0,0.0,0.4479,0.465,0.5035,0.6154,0.7467,0.8951,1.0553,1.1944,1.3065,1.3171,1.3207,1.3199,1.3079,1.318,1.3479,1.3548,0.0,0.0,1.3727,1.3654,1.3465,1.408,1.4539,1.4898,1.53,1.5886,1.6499,0.0,0.0,0.0,0.0,0.0,0.0,2.1895,2.1871,2.1786,2.132,2.0507,2.0196,2.0801,2.0538,1.9769,0.0,0.0,0.0,0.0,0.0,0.0,0.0,0.0,0.0,0.0,0.0,0.0,0.7751,0.7512,0.0,0.0,0.0,0.0,0.0,0.0,0.0,0.596,0.6058,0.0,0.0,0.0,0.0,0.0,0.0,0.0,0.0,0.0,0.0,1.0454,1.0127,1.0253,1.0551,1.0634,1.0884,1.1274,1.1804,1.2006,1.2128,1.2222,1.2332,1.2414,1.2414,1.2441,1.2434,1.227,0.0,1.2111,1.1877,1.1705,1.1734,1.2154,1.2016,1.1854,1.1846,1.1237,1.0213,0.8563,0.8002,0.7302,0.0,0.0,0.0,0.0,0.0,0.0,0.0,0.0,0.0,0.0,0.5195,0.5209,0.5177,0.6101,0.7219,0.854,1.0093,1.1452,1.2646,1.3325,1.3793,1.4007,1.3969,1.4113,1.4445,1.4272,0.0,0.0,1.3974,1.4043,1.4314,1.4604,1.5062,1.5616,1.5979,1.6277,1.6564,0.0,0.0,0.0,0.0,0.0,2.2846,2.2139,2.1991,2.191,2.1722,2.0902,2.0652,2.1448,2.1655,2.1313,2.0232,0.0,0.0,0.0,0.0,0.0,0.0,0.0,0.0,0.0,0.0,0.9111,0.8737,0.8282,0.8203,0.0,0.0,0.0,0.0,0.0,0.0,0.0,0.0,0.0,0.0,0.0,0.0,0.0,0.0,0.0,0.0,0.0,0.0,0.0,0.0,0.0,1.0626,1.0538,1.0852,1.1329,1.166,1.1886,1.2048,1.2235,1.2332,1.2414,1.2414,1.2543,1.2598,0.0,0.0,1.2251,1.2046,1.1841,1.1867,1.2324,1.2227,1.205,1.1947,1.143,1.0384,0.8534,0.8146,0.7601,0.0,0.0,0.0,0.0,0.0,0.0,0.0,0.0,0.0,0.0,0.6354,0.6282,0.5571,0.6775,0.7853,0.8755,1.0197,1.1531,1.2717,1.365,1.4225,1.4514,1.4724,1.4911,1.5084,0.0,0.0,0.0,1.4412,1.4572,1.4931,1.5127,1.5616,1.6169,1.6401,1.6629,1.6888,0.0,0.0,0.0,0.0,0.0,0.0,0.0,2.2275,2.2231,2.1759,2.1405,2.1173,2.111,2.1985,2.2254,2.1451,0.0,0.0,0.0,0.0,0.0,0.0,0.0,0.0,0.0,0.0,1.1186,0.9779,0.9652,0.9382,0.8979,0.8712,0.8483,0.0,0.0,0.0,0.0,0.0,0.0,0.0,0.0,0.0,0.0,0.0,0.0,0.0,0.0,0.0,0.0,0.0,0.0,0.0,0.0,1.1149,1.1525,1.1135,1.1382,1.1834,1.1977,1.2196,1.2414,1.2414,1.2606,1.2738,0.0,1.2611,1.265,1.2101,1.2005,1.2128,1.2525,1.2316,1.2325,1.3046,1.134,0.9905,0.9877,0.8339,0.0,0.0,0.0,0.0,0.0,0.0,0.0,0.0,0.0,0.0,0.0,0.7851,0.7957,0.6448,0.8644,1.0014,1.038,1.1567,1.2753,1.39,1.4296,1.4514,1.4514,1.5252,1.5467,0.0,0.0,0.0,0.0,1.526,1.5267,1.4964,1.5714,1.6201,1.6499,1.6499,1.692,1.7529,0.0,0.0,0.0,0.0,0.0,0.0,0.0,2.2619,2.2432,2.2514,2.1871,2.1589,2.2077,2.2896,2.3307,2.3003,0.0,0.0,0.0,0.0,0.0,0.0,0.0,0.0,0.0,0.0,1.3082,1.1852,1.1304,1.0664,0.9945,0.9588,0.939,0.9312,0.9067,0.0,0.0,0.0,0.0,0.0,0.0,0.0,0.0,0.0,0.0,0.0,0.0,0.0,0.0,0.0,0.0,0.0,0.0,0.0,0.0,1.0948,1.1436,1.2104,1.1914,1.2064,1.226,1.22,1.2226,1.2279,1.2373,1.2248,1.2089,1.2019,1.2005,1.2128,1.2529,1.2693,1.2843,1.3024,1.208,1.0882,0.0,0.0,0.0,0.0,0.0,0.0,0.0,0.0,0.0,0.0,0.0,0.0,0.0,1.0089,0.9657,0.6484,0.8899,0.9906,0.9258,1.1204,1.2502,1.3071,1.4047,1.4759,1.5248,1.5365,0.0,0.0,0.0,0.0,0.0,1.549,1.5691,1.6012,1.6239,1.6558,1.6882,1.7109,1.7308,1.7599,0.0,0.0,0.0,0.0,0.0,0.0,0.0,2.2955,2.2725,2.287,2.2351,2.2127,2.2592,2.3427,2.386,2.3637,0.0,0.0,0.0,0.0,0.0,0.0,0.0,0.0,0.0,1.6433,1.5051,1.3486,1.2719,1.1855,1.0919,1.0442,1.0137,0.9973,0.9727,0.0,0.0,0.0,0.0,0.0,0.0,0.0,0.6629,0.0,0.0,0.0,0.0,0.0,0.0,0.0,0.0,0.0,0.0,0.0,0.0,0.0,1.1571,1.2084,1.1613,1.1843,1.2155,1.1981,1.1992,0.0,1.2232,1.2046,1.1828,1.1704,1.1759,1.1963,1.2359,1.2693,1.2983,1.3218,1.2503,1.1417,0.0,0.0,0.0,0.0,0.0,0.0,0.0,0.0,0.0,0.0,0.0,0.0,0.0,0.0,1.0881,0.8,0.9984,1.0737,1.0014,1.1599,1.2713,1.3396,1.4367,1.504,1.5489,1.5431,0.0,0.0,0.0,0.0,0.0,1.5876,1.6114,1.6499,1.6623,1.6882,1.7201,1.7438,1.7696,1.7986,0.0,0.0,0.0,0.0,0.0,0.0,0.0,0.0,2.3046,2.2914,2.2831,2.2787,2.2718,2.3689,2.4122,2.362,0.0,0.0,0.0,0.0,0.0,0.0,0.0,0.0,0.0,1.841,1.709,1.4854,1.4031,1.3011,1.184,1.1242,1.0748,1.0323,1.0295,0.9189,0.0,0.0,0.0,0.0,0.0,0.0,0.0,0.0,0.0,0.0,0.0,0.0,0.0,0.0,0.0,0.0,0.0,0.0,0.0,0.0,0.0,0.0,0.0,1.1569,1.2085,1.1768,1.1876,1.2065,1.2009,1.2005,0.0,1.1236,1.1373,1.1742,1.2159,1.2464,1.2855,1.3581,1.2617,0.0,0.0,0.0,0.0,0.0,0.0,0.0,0.0,0.0,0.0,0.0,0.0,0.0,0.0,0.0,1.1822,1.0709,1.1751,1.2298,1.2248,1.2642,1.3424,1.456,1.5056,1.5311,1.5323,1.5532,0.0,0.0,0.0,0.0,0.0,1.6369,1.6499,1.6564,1.691,1.7233,1.7502,1.7567,1.8018,1.8603,0.0,0.0,0.0,0.0,0.0,0.0,0.0,0.0,0.0,0.0,2.3437,2.3547,2.2913,2.4578,2.533,0.0,0.0,0.0,0.0,0.0,0.0,0.0,0.0,0.0,0.0,2.0432,1.9106,1.7273,1.6216,1.4541,1.232,1.1822,1.1235,1.0589,1.0335,0.9199,0.738,0.6358,0.0,0.0,0.0,0.0,0.0,0.0,0.0,0.0,0.9532,0.9798,0.0,0.0,0.0,0.0,0.0,0.0,0.0,0.0,1.1634,1.183,1.1069,0.0,1.1755,1.1777,1.1815,1.1882,0.0,1.1841,1.165,1.1514,1.1541,1.1797,1.2387,1.2779,1.3109,1.3502,0.0,0.0,0.0,0.0,0.0,0.0,0.0,0.0,0.0,0.0,0.0,0.0,0.0,0.0,0.0,0.0,1.3494,1.3455,1.3494,1.32,1.2606,1.3829,1.4686,1.5104,1.5233,1.5372,1.5523,1.5683,0.0,0.0,0.0,0.0,1.6401,1.6466,1.6656,1.691,1.7238,1.7432,1.7567,1.8121,1.8442,1.8641,0.0,0.0,0.0,0.0,0.0,0.0,0.0,0.0,0.0,0.0,0.0,0.0,0.0,0.0,0.0,0.0,0.0,0.0,0.0,0.0,0.0,0.0,0.0,2.2895,2.2397,2.1306,1.9953,1.8381,1.7015,1.5298,1.3275,1.2574,1.1915,1.1231,0.9758,0.8452,0.7293,0.6229,0.5609,0.5321,0.5495,0.0,0.0,0.0,0.0,0.0,0.9735,0.9924,0.0,0.9903,1.0227,1.0599,0.0,0.0,0.0,0.0,1.1487,1.1561,1.1243,1.1394,1.1594,1.1611,1.1714,1.1795,1.1806,1.1814,1.1705,1.1432,1.1486,1.1797,1.2472,1.2709,0.0,0.0,0.0,0.0,0.0,0.0,0.0,0.0,0.0,0.0,0.0,0.0,0.0,0.0,0.0,0.0,0.0,1.3976,1.4199,1.4404,1.44,1.4117,1.3477,1.4496,1.504,1.5174,1.5215,1.5318,1.5437,1.5599,1.5766,0.0,0.0,0.0,1.6721,1.6721,1.6915,1.7238,1.7432,1.7696,1.805,1.8442,1.8796,1.9078,0.0,0.0,0.0,0.0,0.0,0.0,0.0,0.0,0.0,0.0,0.0,0.0,0.0,0.0,0.0,0.0,0.0,0.0,0.0,0.0,0.0,0.0,0.0,2.3359,2.2864,2.1647,2.0316,1.8877,1.7299,1.5785,1.4359,1.3388,1.2529,1.1691,0.9128,0.7717,0.7163,0.5925,0.5379,0.5379,0.5747,0.0,0.0,0.0,0.0,0.0,0.0,0.0,0.0,0.9939,1.0269,1.0618,1.0444,0.0,0.0,0.0,0.0,0.0,1.1487,1.156,1.1558,1.1492,1.161,1.1717,1.167,1.1814,1.181,1.1318,1.1455,1.1861,1.2513,1.2563,0.0,0.0,0.0,0.0,0.0,0.0,0.0,0.0,0.0,0.0,0.0,0.0,0.0,0.0,0.0,0.0,0.0,1.436,1.4414,1.4482,1.4749,1.4783,1.4482,1.4876,1.506,1.5023,1.5151,1.5215,1.5248,1.548,1.5751,0.0,0.0,0.0,1.7001,1.7071,1.7233,1.7502,1.7631,1.805,1.8609,1.8667,1.9078,1.9609,0.0,0.0,0.0,0.0,0.0,0.0,0.0,0.0,0.0,0.0,0.0,0.0,0.0,0.0,0.0,0.0,0.0,0.0,0.0,0.0,0.0,0.0,2.4628,2.4189,2.3565,2.2243,2.0959,1.9724,1.827,1.6757,1.5192,1.4082,1.2617,1.0836,0.9448,0.8314,0.7385,0.6272,0.5709,0.5576,0.5805,0.0,0.0,0.0,0.0,0.0,0.0,0.0,0.0,0.9666,0.9971,1.0791,1.0489,0.0,0.0,0.0,0.0,0.0,1.1243,1.138,1.155,1.1709,1.161,1.156,1.186,1.1787,1.1705,1.1841,1.1896,1.2128,1.2733,1.2927,1.3061,0.0,0.0,0.0,0.0,0.0,0.0,0.0,0.0,0.0,0.0,0.0,0.0,0.0,0.0,0.0,0.0,0.0,1.4532,1.48,1.4598,1.4598,1.4833,1.5279,1.5397,1.518,1.5181,1.5276,1.5446,1.5766,1.6109,0.0,0.0,1.6942,1.7007,1.7303,1.7432,1.7567,1.8185,1.8507,1.8635,1.8918,1.9264,1.9673,0.0,0.0,0.0,0.0,0.0,0.0,0.0,0.0,0.0,0.0,0.0,0.0,0.0,0.0,0.0,0.0,0.0,0.0,0.0,0.0,0.0,2.5579,2.5358,2.4936,2.4307,2.2581,2.1361,2.066,1.8698,1.718,1.6077,1.4673,1.3107,1.1395,0.9776,0.8475,0.742,0.613,0.565,0.5789,0.0,0.0,0.0,0.0,0.0,0.0,0.0,0.0,0.0,0.0,0.9898,1.0833,1.0498,0.0,0.0,0.0,0.0,0.0,1.1194,1.1269,1.1449,1.1857,1.194,1.202,1.2265,1.2357,1.2357,1.2192,1.2312,1.252,0.0,0.0,1.293,0.0,0.0,0.0,0.0,0.0,0.0,0.0,0.0,0.0,0.0,0.0,0.0,0.0,0.0,0.0,0.0,0.0,1.4735,1.4898,1.4735,1.4735,1.4898,1.5125,1.5172,1.5035,1.5271,1.5425,1.5533,1.6044,1.6336,1.6531,0.0,1.7104,1.7265,1.7432,1.7728,1.8121,1.8474,1.8699,1.8918,1.9462,1.9749,1.9973,0.0,0.0,0.0,0.0,0.0,0.0,0.0,0.0,0.0,0.0,0.0,0.0,0.0,0.0,0.0,0.0,0.0,0.0,0.0,0.0,2.5999,2.6064,2.5919,2.5469,2.4704,2.29,2.1764,2.1324,1.9183,1.7715,1.6828,1.5467,1.3803,1.1924,1.0499,0.8971,0.7437,0.6438,0.6089,0.6228,0.0,0.0,0.0,0.0,0.0,0.0,0.0,0.0,0.0,0.0,0.0,0.0,0.0,0.0,0.0,1.112,1.1145,1.1194,1.1194,1.1182,1.1325,1.1922,1.2102,1.2215,1.2616,1.2779,1.2794,1.2528,1.2697,1.288,0.0,1.2771,0.0,0.0,0.0,0.0,0.0,0.0,0.0,0.0,0.0,0.0,0.0,0.0,0.0,0.0,0.0,0.0,0.0,0.0,1.4898,1.4898,1.4898,1.4964,1.5034,1.5034,1.5034,1.5034,1.5365,1.5566,1.5756,1.6277,1.6531,1.6629,1.6877,1.7201,1.7502,1.7594,1.8018,1.8609,1.8699,1.8918,1.9296,1.9877,2.0138,2.0297,0.0,0.0,0.0,0.0,0.0,0.0,0.0,0.0,0.0,0.0,0.0,0.0,0.0,0.0,0.0,0.0,0.0,0.0,0.0,0.0,2.6215,2.6278,2.6198,2.5587,2.4348,2.334,2.2349,2.1396,2.0093,1.8731,1.7332,1.6659,1.4651,1.1652,1.1943,1.0374,0.7539,0.7995,0.7774,0.7126,0.7326,0.0,0.0,0.0,0.0,0.0,0.0,0.0,0.0,0.0,0.0,0.0,0.0,0.0,1.1145,1.09,1.0998,1.1194,1.1194,1.1146,1.126,1.1863,1.1644,1.1589,1.2786,1.2602,1.234,1.2932,1.3046,1.3,0.0,1.2906,0.0,0.0,0.0,0.0,0.0,0.0,0.0,0.0,0.0,0.0,0.0,0.0,0.0,0.0,0.0,0.0,0.0,0.0,0.0,1.4898,1.4898,1.5066,1.5435,1.5468,1.5468,1.5468,1.55,1.5821,1.6434,1.6472,1.6656,1.6974,1.7001,1.7201,1.7529,1.7846,1.8206,1.8635,1.895,1.9264,1.9609,1.9979,2.0297,2.0609,0.0,0.0,0.0,0.0,0.0,0.0,0.0,0.0,0.0,0.0,0.0,0.0,0.0,0.0,0.0,0.0,0.0,0.0,0.0,0.0,2.6442,2.6539,2.6486,2.5959,2.4879,2.3849,2.3032,2.238,2.0987,2.0002,1.9421,1.7766,1.6381,1.5168,1.2931,1.104,0.9484,0.8338,0.7884,0.7936,0.7749,0.8407,0.0,0.0,0.0,0.0,0.0,0.0,0.0,0.0,1.0259,1.112,1.056,1.0781,1.1145,1.0875,1.0875,1.0949,1.0949,1.1031,1.1206,1.1639,1.1663,1.1852,1.2927,1.2976,1.2827,1.2938,1.3152,1.3236,0.0,0.0,0.0,0.0,0.0,0.0,0.0,0.0,0.0,0.0,0.0,0.0,0.0,0.0,0.0,0.0,0.0,0.0,0.0,0.0,0.0,1.5583,1.5583,1.5649,1.5816,1.5816,1.5914,1.6114,1.6114,1.6239,1.6504,1.6721,1.6877,1.7007,1.7206,1.7497,1.7846,1.8211,1.8597,1.8918,1.9046,1.9296,1.9641,1.9973,2.0297,2.064,0.0,0.0,0.0,0.0,0.0,0.0,0.0,0.0,0.0,0.0,0.0,0.0,0.0,0.0,0.0,0.0,0.0,0.0,2.6759,2.6683,2.6649,2.6691,2.6606,2.6155,2.5307,2.4398,2.3667,2.3084,2.221,2.1618,2.1303,1.9712,1.8369,1.7184,1.4279,1.2131,1.0566,0.9016,0.8531,0.8783,0.8572,0.9111,0.0,0.0,0.0,0.0,0.0,0.0,0.0,0.0,1.033,1.0998,1.0531,1.0659,1.0904,1.063,1.0769,1.0968,1.0868,1.0991,1.1267,1.1663,1.1722,1.1898,1.283,1.2964,1.2924,1.2972,1.3147,1.3287,1.339,0.0,0.0,0.0,0.0,0.0,0.0,0.0,0.0,0.0,0.0,0.0,0.0,0.0,0.0,0.0,0.0,0.0,0.0,0.0,0.0,0.0,1.5941,1.6039,1.6169,1.6169,1.6331,1.6661,1.6661,1.6661,1.6656,1.691,1.7071,1.7168,1.74,1.7755,1.82,1.8507,1.8796,1.911,1.9232,1.9456,1.9807,2.0132,2.0482,2.0792,0.0,0.0,0.0,0.0,0.0,0.0,0.0,0.0,0.0,0.0,0.0,0.0,0.0,0.0,0.0,0.0,0.0,0.0,2.7117,2.6975,2.6842,2.6708,2.6513,2.6113,2.5521,2.4969,2.4241,2.3297,2.3841,2.3633,2.2702,2.2629,2.0576,1.688,1.6142,1.3795,1.0418,1.0276,1.0018,0.9729,0.9925,1.0281,1.0779,0.0,0.0,0.0,0.0,0.0,0.0,0.0,1.0469,1.0752,1.0487,1.0413,1.0364,1.0068,1.066,1.1316,1.098,1.1081,1.1423,1.1966,1.1748,1.1651,1.2498,1.2449,1.2389,1.3084,1.3095,1.3172,1.3702,1.3975,0.0,0.0,0.0,0.0,0.0,0.0,0.0,0.0,0.0,0.0,0.0,0.0,0.0,0.0,0.0,0.0,0.0,0.0,0.0,0.0,1.5816,1.6169,1.6499,1.6499,1.6656,1.7001,1.7001,1.7001,1.7001,1.7001,1.7201,1.7502,1.7502,1.7922,1.8603,1.8603,1.8796,1.9136,1.9482,1.9807,2.0138,2.0482,2.0799,2.1109,0.0,0.0,0.0,0.0,0.0,0.0,0.0,0.0,0.0,0.0,0.0,0.0,0.0,0.0,0.0,0.0,0.0,0.0,2.7241,2.6891,2.6733,2.6842,2.6775,2.6409,2.5656,2.4934,2.4073,2.3084,2.4183,2.4282,2.3387,2.2614,2.1052,1.8839,1.6691,1.4486,1.231,1.1412,1.1014,1.0935,1.0623,1.0941,1.1651,0.0,0.0,0.0,0.0,0.0,0.0,0.0,0.0,0.0,1.0781,1.0679,1.063,1.0364,1.0343,1.0384,1.0284,1.0621,1.1093,1.1389,1.1781,1.2263,1.2922,1.2964,1.302,1.3449,1.3574,1.363,1.3897,0.0,0.0,0.0,0.0,0.0,0.0,0.0,0.0,0.0,0.0,0.0,0.0,0.0,0.0,0.0,0.0,0.0,0.0,0.0,0.0,0.0,1.6304,1.6526,1.6845,1.6845,1.691,1.7001,1.7001,1.7001,1.7007,1.7233,1.74,1.7535,1.805,1.841,1.8603,1.8854,1.9136,1.945,1.9545,1.9966,2.045,2.0577,2.0799,2.1109,0.0,0.0,0.0,0.0,0.0,0.0,0.0,0.0,0.0,0.0,2.56,2.6381,0.0,0.0,0.0,0.0,0.0,0.0,0.0,2.6908,2.6809,2.6893,2.67,2.6165,2.5269,2.4791,2.4221,2.3562,2.4612,2.4749,2.403,2.282,2.1503,2.0032,1.7054,1.4984,1.363,1.2266,1.1747,1.1812,1.1385,1.1587,1.2173,0.0,0.0,0.0,0.0,0.0,0.0,0.0,0.0,0.0,1.0732,1.056,1.0493,1.0472,1.042,1.0403,1.0623,1.1039,1.1502,1.1907,1.2294,1.2727,1.3278,1.3294,1.3227,0.0,1.3614,1.386,1.4015,0.0,0.0,0.0,0.0,0.0,0.0,0.0,0.0,0.0,0.0,0.0,0.0,0.0,0.0,0.0,0.0,0.0,0.0,0.0,0.0,0.0,1.6558,1.6818,1.7001,1.7001,1.7001,1.7001,1.7136,1.7201,1.7201,1.74,1.7664,1.7954,1.8539,1.8796,1.8822,1.9174,1.9418,1.9641,1.9896,2.0253,2.0609,2.0767,2.0919,2.1109,0.0,0.0,0.0,0.0,0.0,0.0,0.0,0.0,0.0,0.0,2.58,2.6591,0.0,0.0,0.0,0.0,0.0,0.0,0.0,0.0,2.6975,2.6909,2.6375,2.5624,2.4685,2.4609,2.451,2.4372,2.4987,2.4991,2.4438,2.314,2.1779,2.0327,1.7311,1.5402,1.4373,1.2868,1.2323,1.2469,1.2177,1.222,1.2448,1.2641,0.0,0.0,0.0,0.0,0.0,0.0,0.0,0.0,1.0507,1.024,1.0062,1.0454,1.07,1.0976,1.1476,1.1891,1.2347,1.2999,1.3045,1.3044,1.3586,1.3444,1.3169,1.3079,0.0,1.3874,1.408,0.0,0.0,0.0,0.0,0.0,0.0,0.0,0.0,0.0,0.0,0.0,0.0,0.0,0.0,0.0,0.0,0.0,0.0,0.0,0.0,0.0,1.665,1.6974,1.7001,1.7001,1.7001,0.0,1.7335,1.7529,1.7561,1.7567,1.7986,1.8667,1.8982,1.9104,1.9168,1.9482,1.9641,1.9737,2.0348,2.0609,2.0672,2.0982,2.1109,2.1109,0.0,0.0,0.0,0.0,0.0,0.0,0.0,0.0,0.0,0.0,0.0,0.0,0.0,0.0,0.0,0.0,0.0,0.0,0.0,0.0,2.6975,2.6909,2.6227,2.5659,2.525,2.4665,2.433,2.4233,2.4858,2.4547,2.3419,2.2995,2.1334,1.8622,1.7652,1.6146,1.4302,1.351,1.3156,1.3059,1.271,1.2593,1.2641,1.2683,1.2619,0.0,0.0,0.0,0.0,0.0,0.0,0.0,1.0732,1.0388,1.0011,1.0091,1.0374,1.0692,1.081,1.1489,1.2309,1.2716,1.2969,1.3244,1.3619,1.3444,1.3278,1.3504,1.3772,1.4014,0.0,0.0,0.0,0.0,0.0,0.0,0.0,0.0,0.0,0.0,0.0,0.0,0.0,0.0,0.0,0.0,0.0,0.0,0.0,0.0,0.0,1.6369,1.6531,1.6721,1.7001,1.7001,1.7001,0.0,1.7335,1.7626,1.791,1.8211,1.8597,1.9014,1.9078,1.9264,1.9514,1.9577,1.9903,2.0412,2.0545,2.0767,2.1014,2.1077,2.1109,2.1141,0.0,0.0,0.0,0.0,0.0,0.0,0.0,0.0,0.0,0.0,0.0,0.0,0.0,0.0,0.0,0.0,0.0,0.0,0.0,0.0,2.6866,2.6487,2.604,2.5481,2.4794,2.4501,2.416,2.3828,2.3712,2.3326,2.2632,2.1502,1.9926,1.7968,1.6973,1.5889,1.4733,1.4201,1.3926,1.3771,1.3243,1.3094,1.3152,1.2966,1.2826,1.261,1.1477,0.0,0.0,0.0,0.0,0.0,0.0,0.0,1.0032,1.0234,1.028,1.0431,1.1176,1.1691,1.2254,1.3001,1.3197,1.3264,1.3419,1.3204,1.3054,1.3384,1.3737,0.0,0.0,0.0,0.0,0.0,0.0,0.0,0.0,0.0,0.0,0.0,0.0,0.0,0.0,0.0,0.0,0.0,0.0,0.0,0.0,1.5714,1.6071,1.6272,1.6558,1.6812,1.7001,1.7001,1.7071,1.7233,1.7588,1.8013,1.8521,1.8726,1.8918,1.911,1.9264,1.945,1.9609,1.9966,2.0284,2.0609,2.0767,2.0951,2.1109,2.1109,2.1109,2.1141,0.0,0.0,0.0,0.0,0.0,0.0,0.0,0.0,0.0,0.0,0.0,0.0,0.0,0.0,0.0,0.0,0.0,0.0,0.0,0.0,0.0,2.5988,2.5742,2.5159,2.4225,2.4209,2.3923,2.3308,2.2375,2.1828,2.1616,1.9709,1.8425,1.7644,1.6216,1.5492,1.5315,1.4814,1.4503,1.4293,1.373,1.3525,1.3504,1.33,1.2975,1.2552,1.1887,1.1477,1.1115,1.0414,0.0,0.0,0.0,0.0,1.0008,1.034,1.0233,1.0315,1.167,1.2062,1.236,1.3353,1.3354,1.3114,1.3114,1.284,1.2689,1.2964,0.0,0.0,0.0,0.0,0.0,0.0,0.0,0.0,0.0,0.0,0.0,0.0,0.0,0.0,0.0,0.0,0.0,0.0,0.0,0.0,1.5094,1.5779,1.6164,1.6164,1.6715,1.7001,1.7001,1.7001,1.7168,1.7502,1.791,1.8457,1.911,1.9174,1.9206,1.92,1.9482,1.9673,1.9839,2.038,2.064,2.0697,2.0982,2.1109,2.1109,2.1109,2.1141,2.1235,0.0,0.0,0.0,0.0,0.0,0.0,0.0,0.0,0.0,0.0,2.8002,0.0,0.0,0.0,0.0,0.0,0.0,0.0,0.0,0.0,0.0,2.5834,2.5192,2.4787,2.4611,2.3856,2.3286,2.2975,2.1735,2.055,1.9419,1.8822,1.798,1.6929,1.6543,1.6052,1.5538,1.5177,1.4671,1.4124,1.4039,1.3546,1.2906,1.3485,1.3007,1.2004,1.1964,1.1471,1.082,1.0538,1.0307,0.0,0.0,0.0,0.9661,0.971,1.0103,1.0636,1.1166,1.2146,1.3074,1.3216,1.3024,1.2779,0.0,0.0,1.2264,0.0,0.0,0.0,0.0,0.0,0.0,0.0,0.0,0.0,0.0,0.0,0.0,0.0,0.0,0.0,0.0,0.0,0.0,0.0,0.0,0.0,1.5844,1.6488,1.6877,1.6877,1.6936,1.7001,1.7001,1.7001,1.7168,1.7502,1.8185,1.8726,1.911,1.9386,1.9514,1.9545,1.9577,1.9928,2.0482,2.0577,2.0767,2.1046,2.1077,2.1109,2.1109,2.1109,2.1267,2.1576,0.0,0.0,0.0,0.0,0.0,0.0,0.0,0.0,0.0,0.0,0.0,2.8466,0.0,0.0,0.0,0.0,0.0,0.0,0.0,0.0,0.0,2.5493,2.5143,2.4652,2.3935,2.3666,2.3084,2.2167,2.1116,1.9961,1.8717,1.8075,1.7329,1.6519,1.6384,1.6055,1.5586,1.5243,1.4831,1.4391,1.4039,1.3625,1.324,1.3033,1.2682,1.221,0.0,0.0,0.0,0.0,1.0127,0.9969,0.9821,0.0,0.0,0.0,0.9813,1.0216,1.1001,1.2003,1.283,1.2903,1.2659,1.2419,1.2419,1.2182,1.2005,0.0,0.0,0.0,0.0,0.0,0.0,0.0,0.0,0.0,0.0,0.0,0.0,0.0,0.0,0.0,0.0,0.0,0.0,0.0,0.0,1.5816,1.6001,1.6461,1.6721,1.6721,1.691,1.7001,1.7001,1.7201,1.7561,1.8121,1.8635,1.9046,1.9392,1.9514,1.9609,1.9609,1.9998,2.0316,2.0609,2.0799,2.0982,2.1109,2.1109,2.1109,2.1109,2.1109,2.1299,2.1639,0.0,0.0,0.0,0.0,0.0,0.0,0.0,0.0,0.0,0.0,0.0,0.0,0.0,0.0,0.0,0.0,0.0,0.0,0.0,0.0,0.0,2.5037,2.4947,2.4397,2.3305,2.3366,2.2758,2.1413,2.0482,1.9372,1.808,1.7267,1.6652,1.6195,1.625,1.6015,1.5539,1.5272,1.4887,1.4405,1.3894,1.3589,1.3359,1.2711,0.0,1.2183,1.1366,0.0,0.0,0.0,0.0,0.0,0.0,0.9603,0.0,0.0,0.0,1.0065,1.0956,1.1733,1.2324,1.2486,1.232,1.2153,0.0,0.0,0.0,0.0,0.0,0.0,0.0,0.0,0.0,0.0,0.0,0.0,0.0,0.0,0.0,0.0,0.0,0.0,0.0,0.0,0.0,0.0,0.0,1.5854,1.6104,1.6429,1.6629,1.6629,1.6877,1.7039,1.7136,1.7561,1.8056,1.8603,1.895,1.9264,1.9609,1.9673,1.9775,1.9871,2.0386,2.064,2.0767,2.1014,2.1109,2.1109,2.1109,2.1109,2.1109,2.1204,2.145,2.1765,0.0,0.0,0.0,0.0,0.0,0.0,0.0,0.0,0.0,0.0,0.0,0.0,0.0,2.789,2.7672,2.7774,0.0,0.0,0.0,0.0,0.0,2.4482,2.4259,0.0,2.3222,2.2845,2.2061,2.0842,1.9841,1.8546,1.6969,1.6354,1.6013,1.5945,1.6325,1.6071,1.5413,1.5387,1.4755,1.3756,1.3715,1.3286,1.2677,0.0,0.0,0.0,0.0,0.0,0.0,0.0,0.0,0.0,0.0,0.9603,0.9636,0.0,0.0,0.0,1.1095,1.1466,1.1801,1.1997,1.2014,1.1976,0.0,0.0,0.0,0.0,0.0,0.0,0.0,0.0,0.0,0.0,0.0,0.0,0.0,0.0,0.0,0.0,0.0,0.0,0.0,0.0,0.0,0.0,0.0,1.6466,1.6466,1.678,1.6974,1.6974,1.7001,1.7136,1.747,1.8179,1.8571,1.8603,1.895,1.9264,1.9609,1.9941,2.0265,2.0545,2.0577,2.0767,2.1077,2.1077,2.1109,2.1109,2.1109,2.1109,2.1141,2.1457,2.1796,2.2111,0.0,0.0,0.0,0.0,0.0,0.0,0.0,0.0,0.0,0.0,0.0,0.0,0.0,2.7686,2.7482,2.707,2.6479,0.0,0.0,0.0,0.0,2.4792,2.4305,2.3649,2.2831,2.2139,2.1167,1.9971,1.9181,1.8044,1.6634,1.6679,1.639,1.5827,1.5853,1.5691,1.5388,1.5304,1.4664,1.369,1.375,1.3263,0.0,0.0,0.0,0.0,0.0,0.0,0.0,0.0,0.0,0.0,0.9603,0.9676,0.9827,1.0035,1.0282,1.055,1.08,1.1066,1.1301,1.145,1.1586,1.1664,1.1615,0.0,0.0,0.0,0.0,0.0,0.0,0.0,0.0,0.0,0.0,0.0,0.0,0.0,0.0,0.0,0.0,0.0,0.0,0.0,0.0,0.0,0.0,0.0,1.6818,1.6942,1.7001,1.7001,1.7001,1.7265,1.7814,1.834,1.8699,1.8918,1.9046,1.9398,1.9909,2.0043,2.0386,2.0919,2.0919,2.0982,2.1109,2.1109,2.1109,2.1109,2.1109,2.1109,2.1141,2.1488,2.1796,2.2142,0.0,0.0,0.0,0.0,0.0,0.0,0.0,0.0,0.0,2.8842,0.0,0.0,0.0,0.0,2.7383,2.6759,2.6534,2.6373,2.6209,2.5689,2.513,2.4494,2.4013,2.3287,2.2246,2.1403,2.0458,1.9425,1.847,1.7478,1.6506,1.655,1.6246,1.5696,1.5468,1.5286,1.5173,1.5119,1.4568,1.3724,0.0,0.0,1.2362,0.0,0.0,0.0,0.0,0.0,0.0,0.0,0.0,0.0,0.0,0.9835,1.004,1.0201,1.0379,1.0519,1.066,0.0,0.0,0.0,1.1228,1.1354,1.1472,0.0,0.0,0.0,0.0,0.0,0.0,0.0,0.0,0.0,0.0,0.0,0.0,0.0,0.0,0.0,0.0,0.0,0.0,0.0,0.0,0.0,0.0,0.0,1.7001,1.7001,1.7001,1.7001,1.7227,1.755,1.8001,1.8501,1.8886,1.911,1.911,1.9462,2.0106,2.0106,2.0482,2.1109,2.1109,2.1109,2.1109,2.1109,2.1109,2.1109,2.1109,2.1172,2.1299,2.1639,2.2198,2.2817,0.0,0.0,0.0,0.0,0.0,0.0,0.0,0.0,0.0,3.0275,0.0,0.0,0.0,0.0,0.0,2.6931,2.7132,2.6861,2.5856,2.5656,2.4925,2.3475,0.0,0.0,2.1529,2.0691,1.9941,1.9285,1.7743,1.6812,1.6474,1.583,1.5503,1.5478,1.5222,1.495,1.4706,1.4847,1.4477,1.3774,0.0,1.2969,1.2237,0.0,0.0,0.0,1.0548,1.0331,0.0,1.0173,0.0,0.0,0.0,1.0044,1.0227,1.0361,1.0562,0.0,0.0,0.0,0.0,0.0,0.0,0.0,1.1407,0.0,0.0,0.0,0.0,0.0,0.0,0.0,0.0,0.0,0.0,0.0,0.0,0.0,0.0,0.0,0.0,0.0,0.0,0.0,0.0,0.0,0.0,1.7001,1.7001,1.7001,1.7001,1.7001,1.7647,1.8001,1.8001,1.872,1.911,1.911,1.911,1.9462,2.0106,2.0106,2.0482,2.1109,2.1109,2.1109,2.1109,2.1109,2.1109,2.1109,2.1109,2.133,2.167,2.2017,2.2997,2.4201,0.0,0.0,0.0,0.0,0.0,0.0,2.9895,2.9755,2.9634,0.0,0.0,0.0,2.8332,2.7673,2.7122,2.6721,2.6567,2.6264,2.5695,2.5116,2.4461,2.3709,2.3026,2.2277,2.1443,2.0067,1.9213,1.8936,1.7579,1.6699,1.6279,1.6191,1.5804,1.5216,1.5177,1.5062,1.4854,1.5097,0.0,1.387,1.3903,1.3229,0.0,0.0,0.0,0.0,0.0,1.0381,1.0037,0.0,1.005,0.9747,0.0,0.0,1.0251,1.053,1.0655,0.0,1.0692,0.0,0.0,0.0,0.0,0.0,0.0,0.0,0.0,0.0,0.0,0.0,0.0,0.0,0.0,0.0,0.0,0.0,0.0,0.0,0.0,0.0,0.0,0.0,0.0,0.0,0.0,0.0,1.7001,1.7001,1.7001,1.7001,1.7001,1.7001,1.7647,1.8001,1.8001,1.872,1.911,1.911,1.911,1.9462,2.0106,2.0106,2.0482,2.1109,2.1109,2.1109,2.1109,2.1109,2.1109,2.1109,2.1109,2.1758,2.274,2.3052,2.4046,2.5225,0.0,0.0,0.0,0.0,0.0,0.0,3.0384,3.0143,2.9989,0.0,0.0,0.0,2.8082,2.7486,2.7076,2.6879,2.6531,2.6046,2.5351,2.4627,2.3913,2.3242,2.243,2.1592,2.0746,1.9462,1.8634,1.8348,1.7077,1.6401,1.6287,1.6083,1.5665,1.5104,1.5177,1.5149,1.5067,0.0,0.0,0.0,1.3987,0.0,0.0,1.1674,1.1229,0.0,0.0,0.0,1.0182,1.0434,1.0196,0.0,0.0,0.0,0.0,0.0,0.0,0.0,0.0,0.0,0.0,0.0,0.0,0.0,1.1041,1.1236,0.0,0.0,0.0,0.0,0.0,0.0,0.0,0.0,0.0,0.0,0.0,0.0,0.0,0.0,0.0,0.0,0.0,0.0,0.0,1.7001,1.7001,1.7001,1.7001,1.7001,1.7001,1.7001,1.7647,1.8001,1.8001,1.872,1.911,1.911,1.911,1.9462,2.0106,2.0106,2.0482,2.1109,2.1109,2.1109,2.1109,2.1109,2.1109,2.1172,2.1727,2.2497,2.3387,2.417,2.5278,2.6424,0.0,0.0,0.0,3.0207,3.0117,3.0255,3.082,3.0434,3.0309,0.0,2.9965,2.8784,2.7779,2.7306,2.7109,2.72,2.6785,2.61,2.5099,2.4335,2.3474,2.2508,2.182,2.0952,1.9855,1.8975,1.8248,1.7698,1.6459,1.6026,1.6353,1.5707,1.5299,1.5112,1.5183,0.0,1.5143,0.0,0.0,1.3359,1.376,1.2827,0.0,0.0,1.0992,1.0184,1.0702,1.0633,1.0366,1.0587,1.0513,0.0,0.0,0.0,0.0,0.0,1.0708,0.0,0.0,0.0,0.0,0.0,0.0,0.0,1.109,1.1179,1.1401,0.0,0.0,0.0,0.0,0.0,0.0,0.0,0.0,0.0,0.0,0.0,0.0,0.0,0.0,0.0,0.0,1.7001,1.7001,1.7001,1.7001,1.7007,1.7039,1.7071,1.7066,1.7104,1.7717,1.8071,1.8071,1.8752,1.911,1.911,1.911,1.9462,2.0106,2.0106,2.0482,2.1109,2.1109,2.1109,2.1109,2.1235,2.1267,2.1387,2.2615,2.345,2.407,2.5317,2.6576,2.7672,0.0,0.0,3.0841,3.0766,3.0894,3.102,3.1054,3.0419,2.9921,2.9864,2.8976,2.8116,2.7515,2.7149,2.7002,2.7176,2.6861,2.6409,2.5823,2.5084,2.4107,2.2852,2.2206,2.1277,1.999,1.9206,1.8434,1.7628,1.662,1.6127,1.6141,1.5637,1.5309,1.5169,1.525,1.4969,1.4425,0.0,0.0,1.2163,1.2633,0.0,1.1779,1.1365,1.1076,1.0881,1.0776,1.0623,1.0467,0.0,1.0671,1.0825,0.0,0.0,0.0,0.0,0.0,0.0,0.0,0.0,0.0,0.0,0.0,0.0,1.0777,1.1079,1.1405,0.0,0.0,0.0,0.0,0.0,0.0,0.0,0.0,0.0,0.0,0.0,0.0,0.0,0.0,0.0,0.0,1.7001,1.7001,1.7001,1.7001,1.7104,1.74,1.74,1.7529,1.7808,1.8244,1.8474,1.8474,1.8886,1.911,1.911,1.911,1.9462,2.0106,2.0106,2.0482,2.1109,2.1109,2.1109,2.1172,2.1985,2.2299,2.2355,2.2897,2.4271,2.5995,2.6529,2.7573,2.8707,0.0,3.0494,3.0917,3.0776,3.0998,3.1158,3.1031,3.0628,3.0274,3.0058,2.9176,2.8414,2.8032,2.7543,2.7131,2.6839,2.6341,2.5695,2.4867,2.4136,2.334,2.2395,2.1492,2.0514,1.9474,1.8564,1.7715,1.6909,1.6252,1.5975,1.5989,1.5629,1.521,1.4815,1.4916,1.4524,1.3779,0.0,1.2928,1.1993,1.2541,0.0,1.1251,1.1576,1.1436,1.1061,1.1148,1.1045,1.0866,1.1037,1.1037,0.0,0.0,1.1325,1.1172,0.0,1.1119,1.1124,0.0,0.0,0.0,1.0692,0.0,0.0,0.0,1.1151,1.1467,0.0,0.0,0.0,0.0,0.0,0.0,0.0,0.0,0.0,0.0,0.0,0.0,0.0,0.0,0.0,0.0,1.7001,1.7001,1.7001,1.7136,1.7335,1.7502,1.7658,1.7814,1.8001,1.8404,1.8603,1.8603,1.8918,1.911,1.911,1.911,1.9462,2.0106,2.0106,2.0482,2.1109,2.1109,2.1393,2.1891,2.2386,2.3285,2.4371,2.4679,2.5499,2.6611,2.7624,2.843,2.9014,3.0244,3.0603,3.0954,3.0904,3.0991,3.1047,3.09,3.0693,3.0484,3.0279,2.9527,2.8883,2.8555,2.806,2.7499,2.6856,2.6211,2.5356,0.0,0.0,2.2815,2.2187,2.0873,1.9844,1.9191,1.7997,1.6981,1.6189,1.5853,1.5745,1.5827,1.5555,1.5082,1.4435,1.4549,1.4063,1.3177,0.0,0.0,1.1987,0.0,1.1861,1.0652,1.1652,1.1643,1.1138,1.152,1.1537,1.1392,1.1595,0.0,1.133,1.1835,1.1805,0.0,0.0,0.0,0.0,0.0,0.0,0.0,0.0,0.0,1.0839,0.0,0.0,0.0,1.1999,0.0,0.0,0.0,0.0,0.0,0.0,0.0,0.0,0.0,0.0,0.0,0.0,0.0,0.0,0.0,1.6974,1.7034,1.7104,1.7335,1.7567,1.7696,1.798,1.8136,1.8194,1.8533,1.8699,1.8699,1.895,1.911,1.911,1.9168,1.9526,2.0106,2.017,2.0513,2.1109,2.1299,2.1859,2.2637,2.3106,2.4402,2.6128,2.6407,2.6672,2.7043,2.8489,2.9014,2.9014,3.1068,3.1204,3.1402,3.1853,3.1425,3.097,3.0822,3.0142,2.9491,2.9068,2.9002,2.8804,2.8308,0.0,0.0,0.0,0.0,0.0,2.6134,0.0,0.0,2.3539,2.1695,2.0537,2.0143,1.8506,1.7155,1.6116,1.585,1.5654,1.5533,1.5332,1.4987,1.4575,1.4538,1.3758,1.251,0.0,1.2202,0.0,1.1763,1.1563,0.0,1.1114,1.1221,1.1376,1.1495,1.1703,1.1879,0.0,1.1764,1.1971,0.0,1.1691,1.1959,0.0,0.0,0.0,0.0,0.0,0.0,0.0,1.1044,0.0,0.0,0.0,1.1964,1.2014,0.0,1.2425,1.2457,0.0,0.0,0.0,0.0,0.0,0.0,0.0,0.0,0.0,0.0,0.0,0.0,0.0,1.7104,1.7438,1.7464,1.7793,1.8442,1.8507,1.8667,1.8976,1.9014,1.9046,1.9046,1.9078,1.911,1.911,1.9386,1.9743,2.0106,2.0425,2.0767,2.1141,2.2048,2.248,2.2762,2.4833,2.5853,2.6128,2.6407,2.7233,2.8328,2.8806,2.9014,2.9014,3.1117,3.1003,3.0878,3.1024,3.0925,3.0759,3.0586,3.0164,2.9711,2.9328,2.9029,2.864,0.0,0.0,0.0,0.0,0.0,2.642,0.0,0.0,0.0,0.0,0.0,0.0,1.9312,1.7645,1.6565,1.6159,1.5771,1.567,1.5846,1.5607,1.5009,1.4141,1.4108,0.0,1.2062,0.0,1.2008,0.0,0.0,0.0,0.0,1.1434,1.1574,1.1661,1.1831,1.2005,1.2154,0.0,1.2354,0.0,0.0,0.0,0.0,0.0,0.0,0.0,0.0,0.0,0.0,0.0,0.0,0.0,0.0,0.0,1.2005,0.0,0.0,0.0,0.0,0.0,0.0,0.0,0.0,0.0,0.0,0.0,0.0,0.0,0.0,0.0,0.0,0.0,0.0,0.0,0.0,1.8282,1.8571,1.8796,1.895,1.911,1.9296,1.9296,1.911,1.9296,1.9296,1.911,1.945,1.9775,2.0106,2.045,2.0767,2.1172,2.2167,2.3036,2.3868,2.5448,2.6653,2.7509,2.762,2.799,2.8555,2.8865,2.9014,2.9014,3.1159,3.0897,3.0628,3.0678,3.0712,3.0622,3.0292,0.0,0.0,0.0,0.0,0.0,2.7708,2.789,0.0,0.0,2.6686,2.6222,0.0,0.0,2.3131,0.0,0.0,0.0,0.0,1.7334,1.637,1.6347,1.5872,1.5801,1.6097,1.5835,1.4999,1.3728,1.384,1.3115,1.1815,0.0,1.1928,1.1661,1.1772,1.1636,1.1412,1.1673,1.1793,1.1837,1.2005,1.2148,1.2256,1.2602,1.2496,0.0,1.2901,0.0,0.0,0.0,0.0,0.0,1.1696,0.0,0.0,0.0,0.0,0.0,0.0,0.0,0.0,0.0,0.0,0.0,0.0,0.0,1.3527,0.0,0.0,0.0,0.0,0.0,0.0,0.0,0.0,0.0,0.0,0.0,0.0,0.0,0.0,0.0,1.8625,1.8874,1.9032,1.9104,1.9418,1.9482,1.9232,1.9584,1.9616,1.9366,1.9711,1.9998,2.0265,2.0577,2.1014,2.1576,2.2661,2.3868,2.5102,2.628,2.7448,2.8517,2.8606,2.8636,2.8666,2.8925,2.9014,2.9014,3.1414,3.1149,3.1047,3.1572,3.1175,0.0,0.0,0.0,0.0,0.0,0.0,0.0,0.0,0.0,0.0,0.0,0.0,2.7378,2.6528,0.0,2.3921,0.0,0.0,1.9752,0.0,1.8264,1.6939,1.669,1.6205,1.6014,1.6097,1.5835,1.4914,1.3521,1.3911,1.3238,1.1817,1.2015,1.2089,1.2071,1.1869,1.1782,1.177,0.0,1.1644,1.1806,1.1806,0.0,0.0,1.1709,1.1826,0.0,0.0,0.0,0.0,0.0,0.0,0.0,0.0,0.0,0.0,1.1802,0.0,0.0,0.0,0.0,1.2495,0.0,0.0,0.0,0.0,0.0,1.3335,0.0,0.0,0.0,0.0,0.0,0.0,0.0,0.0,0.0,0.0,0.0,0.0,0.0,0.0,0.0,1.8686,1.8698,1.8813,1.9098,1.9418,1.9577,1.9577,1.9909,2.0074,2.0074,2.0418,2.0577,2.0609,2.0919,2.1607,2.2644,2.3961,2.5102,2.6197,2.7788,2.8457,2.8517,2.8874,2.8984,2.8984,2.9014,2.9014,2.9014,3.1541,3.1098,3.0802,3.0954,0.0,0.0,0.0,2.8624,0.0,0.0,0.0,0.0,0.0,2.8841,2.879,0.0,0.0,2.6747,2.6283,2.4232,0.0,0.0,0.0,1.9636,0.0,0.0,1.7146,1.6568,1.6222,1.6104,1.6161,1.5896,1.5022,1.3711,1.399,1.3283,0.0,0.0,0.0,0.0,0.0,1.1806,1.1798,0.0,0.0,1.1853,1.2146,1.2226,0.0,1.2435,1.2354,1.2195,1.2286,1.2196,1.2137,1.249,1.2584,0.0,0.0,0.0,1.2825,1.2524,0.0,0.0,0.0,0.0,0.0,0.0,0.0,0.0,0.0,0.0,0.0,0.0,0.0,0.0,0.0,0.0,0.0,0.0,0.0,0.0,0.0,0.0,0.0,0.0,0.0,0.0,0.0,1.8686,1.8807,1.9098,1.9654,1.9807,1.9609,2.0164,2.0329,2.0106,2.045,2.0609,2.064,2.1639,2.2268,2.2699,2.471,2.5898,2.6468,2.79,2.8636,2.8836,2.8955,2.9014,2.9014,2.9014,2.9014,2.9014,3.1154,3.0674,0.0,0.0,0.0,0.0,0.0,0.0,0.0,0.0,2.8431,0.0,2.8159,0.0,2.8181,0.0,2.6502,2.6098,2.5826,2.3877,0.0,2.3177,2.1106,0.0,0.0,0.0,1.7487,1.6813,1.646,1.6253,1.6201,1.5723,1.4893,1.3792,1.3815,1.3182,1.211,1.2324,1.2269,0.0,0.0,1.1866,0.0,0.0,1.1926,1.192,0.0,1.2361,1.2266,1.2535,1.241,1.2145,1.2324,1.2303,1.2277,1.2714,1.2858,1.2942,1.3102,1.3363,0.0,1.3108,1.334,0.0,1.3202,0.0,0.0,0.0,0.0,0.0,0.0,0.0,0.0,0.0,0.0,0.0,0.0,1.4272,0.0,0.0,0.0,0.0,0.0,0.0,0.0,0.0,1.7792,0.0,0.0,0.0,1.871,1.9098,1.9749,2.0011,1.9775,2.0443,2.0672,2.0456,2.0672,2.0767,2.0824,2.2048,2.2856,2.341,2.5378,2.6598,2.7293,2.8259,2.8815,2.9014,2.9014,2.9014,2.9014,2.9014,2.9014,2.9014,3.0288,0.0,0.0,0.0,2.9447,0.0,0.0,0.0,2.7874,0.0,2.815,2.7952,2.708,2.7359,2.731,2.6537,2.5973,0.0,2.5241,2.3922,0.0,0.0,2.1196,2.0271,2.0359,0.0,0.0,0.0,1.6866,1.6489,1.6181,1.5393,1.4591,1.3807,1.3449,1.2906,1.2258,1.2155,1.2134,1.2203,1.2051,1.2005,1.2034,1.2247,1.2211,1.2046,1.2255,1.2312,1.228,1.2082,1.2013,1.1973,1.188,1.2185,1.265,1.2742,1.3121,1.3504,1.3303,1.3576,1.3854,1.3518,0.0,0.0,0.0,0.0,1.3674,0.0,0.0,0.0,0.0,0.0,0.0,0.0,0.0,0.0,0.0,0.0,0.0,0.0,0.0,0.0,0.0,0.0,1.6541,1.7032,1.7092,1.7455,0.0,0.0,1.8566,1.9124,1.9749,2.0106,2.0106,2.0767,2.1109,2.1109,2.1109,2.1109,2.1141,2.2198,2.3379,2.4664,2.6003,2.7302,2.8517,2.8865,2.9014,2.9014,2.9014,2.9014,2.9014,2.9014,2.9014,2.9014,3.0293,2.9555,2.9035,0.0,2.9201,2.9067,0.0,0.0,0.0,0.0,2.8244,2.8132,2.8238,2.7992,2.731,2.6012,2.559,0.0,0.0,0.0,0.0,2.2325,2.1097,2.0222,1.9809,1.9047,0.0,1.7172,0.0,1.6723,1.6263,1.5606,1.4849,1.3983,1.3304,1.2572,1.1845,1.2036,1.2245,1.2392,1.2104,1.2082,0.0,0.0,1.2499,1.2466,1.2511,1.2418,1.232,1.2398,1.2251,1.2075,1.2441,1.2721,1.2978,1.3402,1.368,1.3904,1.4112,1.416,1.4104,1.4083,1.4323,1.4531,0.0,0.0,0.0,0.0,0.0,0.0,0.0,0.0,0.0,0.0,0.0,0.0,0.0,0.0,0.0,0.0,0.0,0.0,0.0,1.6356,1.6652,1.6791,1.7165,1.7648,0.0,0.0,0.0,1.9463,1.9877,2.0234,2.0482,2.0887,2.1109,2.1109,2.1109,2.1109,2.1172,2.2935,2.4046,2.4695,2.6758,2.796,2.8517,2.8865,2.9014,2.9014,2.9014,2.9014,2.9014,2.9014,2.9014,2.9044,2.9812,0.0,0.0,2.8305,0.0,0.0,2.7864,0.0,0.0,2.8671,2.8376,0.0,2.8043,2.7369,2.6378,2.4952,2.4584,0.0,2.3229,0.0,0.0,2.1751,2.0567,1.9711,1.9261,1.8202,0.0,1.6753,0.0,1.6196,1.5544,1.4928,1.4188,1.332,1.2774,1.2233,1.1754,1.2032,1.2192,1.2291,1.2261,0.0,0.0,1.2617,1.2682,1.2714,1.2881,1.275,1.254,1.2592,1.2558,1.2519,1.2725,1.3098,1.3528,1.3734,1.4137,1.4486,1.4508,1.4645,1.4741,1.4656,1.4898,1.5099,1.4979,1.5062,1.5189,0.0,0.0,0.0,0.0,0.0,0.0,0.0,0.0,0.0,0.0,0.0,0.0,0.0,0.0,0.0,0.0,1.6519,1.6853,1.7232,1.73,1.7604,0.0,0.0,0.0,1.9423,1.9884,2.0295,2.0609,2.0831,2.0982,2.1109,2.1109,2.1109,2.1172,2.3177,2.4348,2.491,2.706,2.8259,2.8725,2.8925,2.9014,2.9014,2.9014,2.9014,2.9014,2.9014,2.9014,2.9044,2.932,0.0,0.0,0.0,0.0,0.0,0.0,2.7708,0.0,2.842,0.0,2.7639,2.6928,2.6037,2.4986,2.3728,0.0,2.2979,2.2476,2.2148,2.1717,2.1121,1.9831,1.8975,1.8584,1.6977,0.0,0.0,0.0,1.53,1.464,1.3927,1.3165,1.237,1.2027,1.1898,0.0,1.2069,1.2177,1.2219,1.2502,1.2613,1.2649,1.2775,1.2836,1.2902,1.3268,1.3169,1.2877,1.2779,1.2939,1.315,1.3037,1.3511,1.4084,1.3961,1.4496,1.5042,1.4693,1.5054,1.5496,1.528,1.5457,1.5687,1.5628,1.5609,1.5636,1.583,1.5803,1.5949,0.0,0.0,0.0,0.0,0.0,0.0,0.0,0.0,0.0,0.0,0.0,0.0,0.0,0.0,1.7112,1.7821,1.7464,0.0,0.0,0.0,0.0,1.9375,1.9956,0.0,2.0613,0.0,2.0842,2.1049,2.1089,2.1109,2.1172,2.3239,2.4471,2.5117,2.7181,2.8409,2.9014,2.9014,2.9014,2.9014,2.9014,2.9014,2.9014,2.9014,2.9044,2.9094,3.0013,0.0,0.0,0.0,0.0,2.6585,2.6656,2.7247,2.7543,2.717,2.6368,2.5606,2.5035,2.4618,2.4035,2.3197,2.2837,0.0,0.0,0.0,0.0,2.0016,1.9276,1.8427,1.749,1.6474,1.6079,0.0,0.0,0.0,1.4902,1.3635,1.2798,1.2365,1.1596,1.1658,1.2363,1.2,0.0,1.3278,1.2797,1.2653,1.2759,1.2791,1.3005,1.3305,1.3367,1.3338,1.333,1.3578,1.3596,1.3588,1.3998,1.4115,1.4171,1.459,1.4884,1.5103,1.5161,1.5463,1.5757,1.5825,1.6007,1.6168,1.6149,1.616,1.6171,1.6214,1.6587,1.6886,1.6825,0.0,0.0,0.0,0.0,0.0,0.0,0.0,0.0,0.0,0.0,0.0,0.0,0.0,0.0,0.0,0.0,0.0,0.0,0.0,0.0,0.0,2.0474,0.0,0.0,0.0,2.0942,2.0755,2.0995,2.1109,2.1172,2.3457,2.4695,2.5117,2.7401,2.8636,2.9014,2.9014,2.9014,2.9014,2.9014,2.9014,2.9014,2.9014,2.9183,2.945,0.0,0.0,0.0,0.0,0.0,0.0,0.0,2.6209,0.0,2.6442,2.5645,2.4888,2.4362,2.3827,2.3263,2.2585,2.2257,2.1971,2.17,2.1173,2.0395,1.9276,1.8375,0.0,1.6074,1.5211,1.4818,1.4953,0.0,0.0,1.3891,1.3033,1.2318,1.1728,1.1687,1.1968,0.0,0.0,0.0,1.3317,1.2893,1.2726,1.2803,1.2803,1.3038,1.3433,1.3593,1.3752,1.3921,1.3912,1.3948,1.4053,1.4311,1.4437,1.4577,1.4805,1.5092,1.529,1.5223,1.5447,1.5742,1.5855,1.5974,1.6121,1.6437,1.6495,1.6527,1.6646,1.7014,1.7376,1.7418,1.7765,0.0,0.0,0.0,0.0,0.0,0.0,0.0,0.0,0.0,0.0,0.0,0.0,0.0,0.0,0.0,0.0,0.0,0.0,0.0,0.0,0.0,0.0,0.0,0.0,0.0,2.0902,2.1042,2.1109,2.1172,2.3519,2.4479,2.444,2.728,2.8388,2.825,2.8767,2.9014,2.9014,2.9014,2.9014,2.9014,2.9014,2.9213,2.9538,0.0,2.8344,0.0,0.0,2.6628,0.0,2.5389,2.5165,2.5201,2.563,2.5099,2.4452,2.3924,2.3279,2.2686,2.2156,2.1801,2.1445,2.1062,2.0532,1.9672,1.8408,1.7371,1.6232,1.491,1.4115,1.3733,0.0,0.0,0.0,0.0,1.2378,1.18,0.0,0.0,0.0,0.0,0.0,1.3213,1.3248,1.2943,1.2803,1.2803,1.2803,1.3099,1.3527,1.3814,1.4174,1.4473,1.4207,1.4305,1.4506,1.4506,1.4702,1.4898,1.4898,1.5164,1.5451,1.5157,1.5388,1.5724,1.5841,1.5914,1.6097,1.6726,1.6801,1.6818,1.7066,1.7362,1.769,1.7937,1.8427,0.0,0.0,0.0,0.0,0.0,0.0,0.0,0.0,0.0,0.0,0.0,0.0,0.0,0.0,0.0,0.0,0.0,0.0,0.0,0.0,0.0,2.0848,2.1015,0.0,2.0855,0.0,2.1082,2.1109,2.1172,2.3364,2.4193,2.407,2.7,2.811,2.7882,2.8677,2.9014,2.9014,2.9014,2.9014,2.9023,2.9175,2.9431,2.9797,0.0,0.0,0.0,0.0,0.0,0.0,2.5072,2.4575,2.4233,2.4282,2.4069,2.3696,2.3172,2.2761,2.2426,2.2131,2.1623,2.1011,2.0259,1.9657,1.861,1.6968,1.6319,1.5552,1.4575,1.394,1.3844,0.0,0.0,0.0,0.0,0.0,0.0,0.0,0.0,0.0,0.0,1.312,1.3223,1.3755,1.3091,1.2803,1.2803,1.2803,1.3227,1.3846,1.3875,1.4305,1.4833,1.4833,1.4833,1.4833,1.4833,1.4866,1.4898,1.4898,1.5164,1.5451,1.5157,1.553,1.598,1.6038,1.6237,1.6603,1.7265,1.72,1.7077,1.74,1.7717,1.7969,1.8001,1.8568,1.8946,0.0,0.0,0.0,0.0,0.0,0.0,0.0,0.0,0.0,0.0,0.0,0.0,0.0,0.0,0.0,0.0,0.0,0.0,2.0992,0.0,2.0955,2.0753,2.0949,2.0949,2.0753,2.0982,2.1109,2.1172,2.2897,2.4131,2.4963,2.681,2.8071,2.8856,2.8955,2.9014,2.9014,2.9014,2.9014,2.909,2.9767,3.0199,3.0616,0.0,0.0,0.0,0.0,0.0,0.0,0.0,2.4024,2.3762,2.3488,2.3372,2.3097,2.251,2.2333,2.2106,2.1649,2.0986,2.0285,1.9598,1.8715,1.7695,1.646,1.5838,1.5202,1.4516,1.3869,1.366,0.0,0.0,0.0,0.0,0.0,0.0,0.0,0.0,1.3305,1.3537,1.3481,1.3511,1.356,1.3034,1.2803,1.2737,1.2066,1.2692,1.3809,1.3181,1.3777,1.4898,1.4898,1.4898,1.4898,1.4898,1.4898,1.4898,1.4898,1.5164,1.5481,1.5355,1.5649,1.6046,1.6282,1.6587,1.6915,1.7405,1.7556,1.7647,1.7781,1.8109,1.8437,1.8617,1.9072,1.936,0.0,0.0,0.0,0.0,0.0,0.0,0.0,0.0,0.0,0.0,0.0,0.0,0.0,0.0,0.0,0.0,0.0,0.0,2.0842,0.0,2.1056,2.0935,2.1049,2.1049,2.0935,2.1056,2.1109,2.1172,2.2834,2.4656,2.6529,2.7211,2.8062,2.9014,2.9014,2.9014,2.9014,2.9014,2.9161,2.942,2.9928,3.0475,3.1074,2.7634,0.0,2.5984,0.0,2.4815,2.4279,2.3915,2.3733,2.3416,2.2843,2.2707,2.246,2.1908,2.181,2.1514,2.0864,2.0211,1.952,1.874,1.7909,1.6986,1.5973,1.5454,0.0,1.444,1.3987,1.3677,1.3568,1.3072,0.0,0.0,0.0,0.0,0.0,1.3631,1.3757,1.369,1.3875,1.3798,1.3494,1.3137,1.2902,1.2704,1.1967,1.2589,1.3809,1.305,1.3674,1.4898,1.4898,1.4898,1.4898,1.4898,1.4898,1.4936,1.5034,1.5267,1.5533,1.5626,1.5816,1.6071,1.6434,1.6688,1.6974,1.7529,1.7685,1.7744,1.7846,1.8244,1.8667,1.8918,1.9232,1.9482,1.9577,0.0,0.0,0.0,0.0,0.0,0.0,1.9488,1.9103,1.9281,0.0,0.0,0.0,0.0,0.0,0.0,0.0,0.0,0.0,0.0,0.0,0.0,2.1109,2.1109,2.1109,2.1109,2.1141,2.1292,2.3302,2.5248,2.7129,2.7702,2.834,2.9014,2.9014,2.9078,2.9188,2.9188,2.9436,2.9834,3.0391,3.0912,3.1492,2.6576,2.5873,2.5137,2.4603,2.4282,2.4147,2.4278,2.3855,2.3194,2.2316,2.199,2.1703,2.1354,2.1132,2.0656,1.9715,1.9366,1.8734,1.7599,1.7188,1.6502,0.0,0.0,1.4731,1.4301,1.4277,1.4089,1.3714,0.0,0.0,1.3386,0.0,1.3051,1.3308,1.3428,1.3898,1.4565,1.4249,1.4032,1.3842,1.3531,1.3137,1.2803,1.2803,1.326,1.3908,1.3875,1.4305,1.4898,1.4898,1.4898,1.4898,1.4898,1.4898,1.4968,1.5365,1.55,1.5561,1.5909,1.6006,1.6071,1.6434,1.6499,1.6758,1.7781,1.7486,1.7104,1.7432,1.8088,1.8603,1.8609,1.8886,1.92,1.9545,0.0,0.0,0.0,0.0,0.0,0.0,1.9663,1.9311,1.9301,0.0,0.0,0.0,0.0,0.0,0.0,0.0,0.0,2.1102,2.1109,0.0,2.1109,2.1109,2.1109,2.1109,2.1109,2.1267,2.167,2.4363,2.5762,2.6228,2.8161,2.8984,2.9014,2.9014,2.9243,2.9592,2.9592,2.9849,3.0334,3.1399,3.179,3.195,2.6542,2.5971,2.5318,2.4509,2.4215,2.3834,2.3057,2.259,2.202,2.1163,2.0796,2.0361,1.968,1.9849,1.9757,0.0,1.8416,1.7717,0.0,1.6228,1.5665,1.5243,1.496,1.4834,1.4853,1.445,1.4163,1.4052,0.0,0.0,0.0,1.369,1.3768,1.399,1.4029,1.4117,1.4244,1.4148,1.3874,1.356,1.3433,1.2733,1.1699,1.1699,1.2161,1.2816,1.2816,1.3711,1.4898,1.4898,1.4988,1.5106,1.5106,1.5012,1.4968,1.5365,1.5658,1.5909,1.6239,1.6526,1.6715,1.6812,1.7012,1.7276,1.7594,1.7884,1.8115,1.8217,1.8629,1.895,1.895,1.9398,1.9813,1.9909,2.0316,0.0,0.0,0.0,0.0,0.0,0.0,2.0241,0.0,2.0056,0.0,0.0,0.0,0.0,0.0,0.0,0.0,0.0,2.1002,0.0,2.1109,2.1109,2.1109,2.1109,2.1109,2.1393,2.2017,2.4417,2.5753,2.6197,2.817,2.9014,2.9032,2.9299,2.9491,2.9629,2.9883,3.0241,3.0711,3.1512,3.1958,3.2327,2.6443,2.5899,2.5323,2.4637,2.4001,2.3319,2.2614,2.1961,2.119,2.0184,1.9893,1.9415,1.8422,1.8488,0.0,1.8079,1.7597,1.7057,1.6458,1.5897,1.5543,1.5375,1.5083,1.4916,1.4907,0.0,0.0,1.4022,1.3808,1.3759,1.3892,1.3892,1.3958,1.4081,1.4161,1.4187,1.4166,1.4276,1.4004,1.3593,1.3593,1.2861,1.1798,1.1798,1.2303,1.3021,1.3021,1.3934,1.5167,1.5167,1.5252,1.5356,1.5356,1.5314,1.5312,1.5684,1.5914,1.6099,1.6558,1.6845,1.7001,1.7001,1.7168,1.7335,1.747,1.8083,1.8603,1.8603,1.8854,1.9136,1.9264,1.9616,2.0004,2.0265,2.064,2.0951,2.1077,0.0,0.0,0.0,0.0,0.0,0.0,2.0323,0.0,0.0,0.0,0.0,0.0,0.0,0.0,2.0835,2.1015,0.0,2.1109,2.1109,2.1109,2.1109,2.1362,2.1827,2.2564,2.4726,2.5845,2.6228,2.8312,2.9234,2.9262,2.9675,2.9923,3.0088,3.0323,3.0662,3.1106,3.1762,3.2185,3.2517,2.6306,2.5694,0.0,0.0,2.362,0.0,2.2638,2.17,2.059,1.9379,1.9181,1.8745,1.7625,1.7197,1.6991,1.6967,0.0,0.0,0.0,1.6057,1.5933,1.5601,1.5294,1.4937,1.4625,1.4356,1.4052,1.3688,1.3688,1.3688,1.3688,1.3703,1.3712,1.3721,1.3939,1.4142,1.4345,1.4517,1.4327,1.3908,1.394,1.3453,1.2737,1.2848,1.3423,1.414,1.4225,1.4816,1.5594,1.5594,1.5603,1.5612,1.5612,1.5716,1.5887,1.6243,1.6166,1.6169,1.6866,1.7017,1.7001,1.7001,1.7001,1.7104,1.7438,1.805,1.8571,1.8603,1.8854,1.92,1.9545,1.9609,1.9833,2.045,2.0577,2.0704,2.1014,0.0,0.0,0.0,0.0,0.0,0.0,2.0249,2.0398,0.0,0.0,0.0,0.0,0.0,2.0808,2.1096,2.1109,2.1109,2.1109,2.1109,2.1116,2.1174,2.1845,2.2504,2.3167,2.5208,2.6139,2.6277,2.858,2.962,2.9675,3.0066,3.0461,3.0791,3.0818,3.1057,3.1474,3.2157,3.239,3.2517,0.0,0.0,2.4673,2.3812,2.2884,2.1948,2.1042,2.0452,1.9677,1.8473,1.8064,1.783,1.7543,1.7197,1.6903,1.6631,1.6431,1.614,1.575,1.572,1.569,1.5601,1.5294,1.4937,1.4625,1.4356,1.4052,1.3688,1.3688,1.3688,1.3693,1.3859,1.3934,1.3944,1.4147,1.4328,1.4531,1.4578,1.4327,1.3912,1.4174,1.3383,1.2177,1.3415,1.3658,1.3503,1.4472,1.5139,1.5594,1.5594,1.5698,1.5826,1.5826,1.6034,1.6304,1.6476,1.6453,1.6508,1.714,1.7152,1.7001,1.7001,1.7001,1.7104,1.7438,1.7819,1.8238,1.8539,1.8854,1.92,1.9545,1.9807,2.0043,2.0202,2.0418,2.064,2.0704,2.0736,0.0,0.0,2.0923,2.0883,2.0883,2.0883,2.0914,0.0,0.0,0.0,0.0,2.0835,2.0808,2.1096,2.1109,2.1109,2.1109,2.1109,2.135,2.1867,2.2473,2.2888,2.3181,2.5391,2.6449,2.6665,2.8726,2.9785,3.0085,3.0488,3.0699,3.0818,3.1153,3.1327,3.1474,3.2157,3.239,3.2517,2.582,2.4963,2.4072,2.3089,2.2012,2.1002,2.0199,1.9448,1.8677,1.7872,1.7491,1.7279,1.7279,1.6844,1.6525,1.6342,1.617,1.5963,1.5631,1.5601,1.5537,1.5383,1.5061,1.4734,1.4411,1.4112,1.3868,1.3688,1.3788,1.3835,1.384,1.4048,1.4147,1.4161,1.4364,1.4493,1.4606,1.47,1.4507,1.4141,1.4338,1.38,1.2991,1.3867,1.4144,1.4203,1.4895,1.5452,1.5878,1.5878,1.5953,1.6043,1.6043,1.6326,1.6698,1.6881,1.6868,1.6889,1.7273,1.7276,1.7147,1.7033,1.7104,1.7335,1.7653,1.8013,1.8372,1.8758,1.8982,1.92,1.9545,1.9877,2.0138,2.0297,2.0609,2.0831,2.0831,2.0831,0.0,2.1077,2.1109,2.1109,2.1109,2.1109,2.1109,2.1109,0.0,0.0,2.1102,2.0962,2.0949,2.1109,2.1109,2.1109,2.1109,2.1402,2.1942,2.2731,2.3086,2.3367,2.3622,2.5802,2.6752,2.6838,2.9145,3.0259,3.0497,3.0901,3.1057,3.1107,3.1327,3.141,3.1474,3.2157,3.239,3.2517,2.5048,2.4142,2.3199,2.2325,2.0995,1.9946,1.9593,1.8655,1.7878,1.7543,1.7197,1.6997,1.6997,1.6466,1.6087,1.6087,1.6057,1.5903,1.5631,1.5537,1.5388,1.5116,1.4739,1.4441,1.4202,1.3873,1.3703,1.374,1.3925,1.4029,1.4062,1.4265,1.4359,1.4337,1.4554,1.4649,1.4658,1.4828,1.4702,1.4403,1.4469,1.4399,1.4283,1.4377,1.4817,1.5389,1.5421,1.5786,1.6183,1.6183,1.6183,1.6219,1.6254,1.6622,1.7106,1.7323,1.7387,1.7381,1.7484,1.7465,1.7335,1.7157,1.7293,1.7605,1.7961,1.8331,1.8699,1.9046,1.911,1.9232,1.9609,1.9909,2.0202,2.0482,2.0799,2.1014,2.0951,0.0,2.1046,2.1077,2.1109,2.1109,2.1109,2.1109,2.1109,2.1109,2.1109,2.1109,0.0,2.1109,2.1109,2.1109,2.1109,2.1129,2.1176,2.1864,2.2652,2.349,2.3676,2.3876,2.425,2.6264,2.7049,2.6981,2.9654,3.0818,3.0932,3.1272,3.141,3.141,3.141,3.141,3.1474,3.2157,3.239,3.2517,2.3564,2.241,2.1395,2.0752,1.9802,1.8939,1.8369,1.8112,1.7878,1.7543,1.7197,1.6997,1.6997,1.6466,1.6087,1.6087,1.5839,1.5661,1.5601,1.5324,1.5145,1.5116,1.4555,1.4232,1.4202,1.3873,1.3778,1.3962,1.3996,1.4099,1.427,1.4451,1.455,1.4559,1.4762,1.4851,1.4856,1.4889,1.4702,1.4403,1.4702,1.4729,1.4665,1.5176,1.5556,1.5816,1.5999,1.612,1.6183,1.6183,1.6183,1.6249,1.6527,1.6891,1.7338,1.7715,1.7994,1.8173,1.8046,1.7685,1.7416,1.7572,1.7538,1.7655,1.8221,1.847,1.8699,1.9046,1.911,1.9302,1.9909,2.0074,2.0106,2.017,2.0456,2.0577,2.0297,0.0,2.0767,2.1077,2.1109,2.1109,2.1109,2.1109,2.1109,2.1109,2.1109,2.1109,2.1109,2.1109,2.1109,2.1109,2.1109,2.1229,2.1515,2.2413,2.3073,2.3497,2.4084,2.4417,2.4588,2.6597,2.7529,2.7664,2.9854,3.0974,3.1327,3.1382,3.141,3.141,3.141,3.141,3.1474,3.2157,3.239,3.2517,2.2276,2.1431,2.063,1.9715,1.9026,1.848,1.8054,1.7849,1.7696,1.7514,1.7044,1.672,1.672,1.6194,1.5839,1.5839,1.569,1.5601,1.5601,1.5294,1.5026,1.4853,1.4441,1.4112,1.3928,1.3778,1.3797,1.401,1.4118,1.4248,1.446,1.4667,1.4762,1.4766,1.4856,1.4898,1.4898,1.4898,1.48,1.467,1.4833,1.4992,1.5225,1.5488,1.5792,1.6081,1.6185,1.6183,1.6183,1.6183,1.632,1.6492,1.6664,1.7122,1.7655,1.7866,1.8062,1.8229,1.8121,1.7836,1.7655,1.7959,1.8123,1.832,1.8837,1.9024,1.9192,1.9522,1.9464,1.952,2.0011,2.0106,2.0106,2.0106,2.0393,0.0,0.0,2.0672,2.0919,2.1077,2.1249,2.1381,2.1381,2.1381,2.1381,2.1381,2.1196,2.1109,2.1109,2.1109,2.1182,2.1375,2.1381,2.1699,2.2347,2.2958,2.3547,2.4045,2.4573,2.4749,2.4676,2.6901,2.7858,2.7838,3.0131,3.1244,3.141,3.141,3.141,3.141,3.141,3.1515,3.1717,3.223,3.2517,3.2731,2.1088,2.0544,1.9968,1.8968,1.8509,1.8223,1.7937,1.7667,1.7514,1.7514,1.692,1.6508,1.6508,1.5952,1.5601,1.5601,1.5601,1.5601,1.5601,1.5294,1.4937,1.462,1.4311,1.404,1.3794,1.3811,1.3939,1.4125,1.4281,1.4465,1.4672,1.4828,1.4898,1.4898,1.4898,1.4898,1.4898,1.4898,1.4927,1.4969,1.4969,1.5252,1.566,1.5612,1.5854,1.6174,1.6162,1.6176,1.6183,1.6183,1.6421,1.6729,1.6805,1.7334,1.7937,1.8007,1.8095,1.8175,1.8175,1.8026,1.7983,1.8377,1.871,1.9017,1.9383,1.9528,1.9666,1.9907,1.9794,1.9776,2.0104,2.0168,2.0168,2.0168,0.0,0.0,0.0,2.1028,2.1316,2.1316,2.1549,2.1689,2.1689,2.1689,2.1689,2.1689,2.1443,2.1316,2.1316,2.1316,2.1514,2.1913,2.192,2.23,2.3122,2.3533,2.399,2.4503,2.4916,2.4961,2.4793,2.6876,2.7826,2.793,3.0095,3.1184,3.141,3.141,3.141,3.141,3.141,3.1612,3.1951,3.2294,3.2603,3.2953,2.0097,1.9426,1.891,1.8509,1.8194,1.7908,1.7602,1.7514,1.7514,1.7514,1.692,1.6508,1.6508,1.5952,1.5601,1.5601,1.5601,1.5601,1.5601,1.5294,1.4937,1.462,1.4216,1.3986,1.3986,1.417,1.4337,1.4559,1.4573,1.4682,1.488,1.4894,1.4898,1.4898,1.4898,1.4898,1.4898,1.4898,1.5007,1.5177,1.5177,1.5465,1.5854,1.5665,1.5854,1.619,1.5991,1.6048,1.6183,1.6183,1.6421,1.677,1.7127,1.755,1.7972,1.8258,1.8387,1.8377,1.8377,1.8442,1.8586,1.8877,1.9141,1.9399,1.9612,1.9774,1.989,1.989,1.9872,1.9993,2.0319,2.0385,2.0385,2.0385,0.0,0.0,2.0935,2.1496,2.1917,2.1917,2.1977,2.1984,2.1984,2.1984,2.1984,2.1984,2.1937,2.1917,2.1917,2.1917,2.2223,2.2887,2.29,2.3081,2.3456,2.4114,2.444,2.4503,2.4916,2.5078,2.509,2.62,2.7253,2.8238,2.9395,3.0464,3.141,3.141,3.141,3.141,3.141,3.1612,3.1951,3.2294,3.2603,3.2953,1.9432,1.9055,1.8735,1.8223,1.8054,1.7878,1.7543,1.7514,1.7514,1.7514,1.7103,1.672,1.6508,1.6164,1.5839,1.5631,1.5601,1.5661,1.5836,1.5516,1.5099,1.4549,1.4301,1.4194,1.4194,1.427,1.4385,1.4601,1.4601,1.4705,1.4898,1.4898,1.4898,1.4898,1.4898,1.4898,1.4898,1.4898,1.4946,1.5016,1.5016,1.5186,1.5465,1.5385,1.5616,1.5991,1.5783,1.593,1.6195,1.6312,1.6667,1.7127,1.755,1.7937,1.8258,1.8363,1.8398,1.8398,1.8398,1.8613,1.8941,1.9274,1.9611,1.9914,2.0255,2.0213,2.0196,2.0426,2.0325,2.0308,2.0634,2.0541,2.0474,2.0668,0.0,2.1125,2.1264,2.1694,2.1984,2.1984,2.2144,2.2251,2.2251,2.2251,2.2251,2.2251,2.2084,2.1984,2.1984,2.239,2.2945,2.3664,2.3854,2.3986,2.4121,2.437,2.4638,2.4883,2.5018,2.5093,2.5119,2.6148,2.7202,2.8271,2.9339,3.0399,3.141,3.141,3.141,3.141,3.141,3.174,3.223,3.2358,3.2731,3.3228,1.9049,1.8823,1.859,1.8083,1.7908,1.7755,1.7543,1.7514,1.7514,1.7514,1.7197,1.6873,1.6537,1.6253,1.5996,1.5763,1.5739,1.5841,1.6079,1.5827,1.5371,1.4623,1.4579,1.4506,1.4411,1.4473,1.455,1.4696,1.4696,1.4766,1.4898,1.4898,1.4898,1.4898,1.4898,1.4898,1.4898,1.4898,1.4936,1.4993,1.4993,1.5115,1.5337,1.5337,1.5555,1.5878,1.5736,1.5942,1.6271,1.6366,1.6788,1.731,1.7588,1.7895,1.8172,1.8172,1.8172,1.8212,1.8316,1.8683,1.9137,1.9524,1.9936,2.0353,2.0631,2.0561,2.0503,2.0736,2.0623,2.0595,2.0925,2.0729,2.0595,2.0925,2.0992,2.1093,2.1361,2.1723,2.1991,2.2091,2.2264,2.2423,2.2559,2.2559,2.2559,2.2559,2.2378,2.2331,2.2425,2.2989,2.3577,2.4214,2.453,2.4679,2.4679,2.4679,2.4815,2.5093,2.5093,2.5093,2.5119,2.6148,2.7202,2.8271,2.9339,3.0399,3.141,3.141,3.141,3.141,3.141,3.1804,3.239,3.239,3.2826,3.3386,1.9026,1.8619,1.8305,1.806,1.7726,1.7514,1.7514,1.7514,1.7514,1.7514,1.7197,1.6873,1.6537,1.6253,1.6092,1.6015,1.6012,1.6084,1.6301,1.6176,1.5729,1.4863,1.4986,1.4944,1.4606,1.4799,1.4898,1.4898,1.4898,1.4898,1.4898,1.4898,1.4898,1.4898,1.4898,1.4898,1.4898,1.4898,1.5016,1.5195,1.5195,1.5361,1.5594,1.5594,1.5717,1.5897,1.5892,1.6105,1.6387,1.6382,1.676,1.7193,1.7193,1.7424,1.7683,1.7683,1.7683,1.7756,1.8099,1.8676,1.9261,1.9548,2.0139,2.07,2.07,2.07,2.07,2.07,2.07,2.0804,2.1144,2.0908,2.0804,2.1144,2.1214,2.1214,2.1214,2.1559,2.1938,2.2276,2.231,2.2448,2.2859,2.2893,2.2893,2.2893,2.2893,2.3065,2.3406,2.3789,2.4163,2.4503,2.4883,2.5093,2.5093,2.5093,2.5093,2.5093,2.5093,2.5093,2.5161,2.6148,2.7202,2.8279,2.9347,3.0399,3.141,3.141,3.141,3.141,3.141,3.1804,3.239,3.239,3.2826,3.3386,1.9026,1.8619,1.8305,1.806,1.7726,1.7514,1.7514,1.7514,1.7514,1.7514,1.7426,1.7132,1.6567,1.6608,1.6473,1.6032,1.6138,1.6307,1.6575,1.6674,1.6513,1.6012,1.5589,1.5333,1.524,1.5001,1.4898,1.4898,1.4898,1.4898,1.4898,1.4898,1.4898,1.4898,1.4898,1.4898,1.4898,1.4898,1.4936,1.4988,1.4988,1.5111,1.5333,1.5333,1.555,1.5908,1.6001,1.6186,1.6466,1.6832,1.7081,1.7227,1.7492,1.7621,1.7683,1.7683,1.7683,1.7756,1.8099,1.8558,1.9043,1.9535,2.0188,2.07,2.07,2.07,2.07,2.07,2.07,2.0735,2.0839,2.077,2.0804,2.1144,2.1214,2.1317,2.1593,2.1731,2.1938,2.2276,2.231,2.2448,2.2859,2.2893,2.2893,2.2893,2.3133,2.3406,2.3789,2.4163,2.4536,2.4916,2.5052,2.5093,2.5093,2.5093,2.5093,2.5093,2.5093,2.5457,2.6148,2.6442,2.7601,2.9347,2.9641,3.0399,3.141,3.141,3.141,3.141,3.141,3.1804,3.239,3.239,3.2826,3.3467,1.9026,1.8619,1.8305,1.806,1.7726,1.7514,1.7514,1.7514,1.7514,1.7514,1.7367,1.7144,1.6704,1.6673,1.66,1.6308,1.6447,1.6646,1.6818,1.6926,1.691,1.6721,1.6174,1.5821,1.5691,1.5453,1.5355,1.5355,1.5355,1.5257,1.5132,1.5132,1.5066,1.4898,1.4898,1.4898,1.4898,1.4898,1.4946,1.5016,1.5016,1.5177,1.5371,1.5451,1.5742,1.6135,1.6289,1.6496,1.676,1.7104,1.7237,1.7341,1.7628,1.7683,1.7683,1.7683,1.7753,1.7845,1.8189,1.8556,1.899,1.9515,2.0101,2.0549,2.0549,2.0628,2.07,2.07,2.07,2.0735,2.0873,2.0804,2.0804,2.1144,2.1075,2.1144,2.1524,2.1559,2.1766,2.2242,2.231,2.2448,2.2859,2.2893,2.2962,2.3099,2.3304,2.3645,2.4163,2.4401,2.4672,2.5086,2.5093,2.5093,2.5093,2.5093,2.5093,2.5093,2.5483,2.6014,2.6643,2.7468,2.8559,2.9813,3.0236,3.0788,3.141,3.141,3.141,3.141,3.1548,3.1942,3.2441,3.2771,3.3203,3.374,1.902,1.8619,1.8305,1.806,1.7726,1.7514,1.7514,1.7514,1.7514,1.7514,1.7215,1.6995,1.691,1.6651,1.6532,1.6688,1.6872,1.7001,1.7001,1.7001,1.7001,1.7001,1.6721,1.6396,1.6099,1.6034,1.6006,1.6006,1.6006,1.5844,1.5528,1.55,1.53,1.4964,1.4936,1.4898,1.4898,1.4931,1.5082,1.5267,1.53,1.5476,1.5743,1.5929,1.6184,1.651,1.6731,1.6996,1.7219,1.7232,1.732,1.7448,1.7653,1.7717,1.7751,1.7751,1.7867,1.8055,1.8367,1.8723,1.9084,1.9432,1.989,2.0283,2.0307,2.0495,2.0676,2.07,2.07,2.0804,2.111,2.0908,2.0804,2.111,2.0908,2.0804,2.111,2.1179,2.1449,2.2173,2.2276,2.2448,2.2859,2.2934,2.3099,2.3441,2.3475,2.3782,2.4469,2.4536,2.4713,2.5086,2.5093,2.5093,2.5093,2.5093,2.5093,2.5119,2.6115,2.6643,2.681,2.8855,2.9846,3.0009,3.0982,3.141,3.141,3.141,3.141,3.1442,3.1828,3.2168,3.2558,3.3363,3.3873,3.4222,1.8968,1.8619,1.8305,1.806,1.7726,1.7514,1.7514,1.7514,1.7514,1.7514,1.7405,1.7218,1.6933,1.6929,1.6869,1.6715,1.6872,1.7001,1.7001,1.7001,1.7001,1.7001,1.6942,1.6845,1.6775,1.6261,1.6006,1.6006,1.6006,1.5974,1.5881,1.5626,1.5435,1.5365,1.5034,1.4898,1.4936,1.5234,1.5487,1.5676,1.5942,1.6309,1.6693,1.6737,1.6902,1.7137,1.7494,1.7544,1.7462,1.755,1.7623,1.7653,1.7706,1.7919,1.8183,1.8183,1.8385,1.8645,1.8814,1.892,1.9084,1.9432,1.9757,2.0026,2.0265,2.0356,2.0452,2.0658,2.07,2.0735,2.0804,2.0735,2.0735,2.0804,2.0735,2.0735,2.0804,2.1041,2.1386,2.1835,2.2138,2.2448,2.2859,2.3133,2.3441,2.3857,2.4129,2.4326,2.4503,2.4815,2.5018,2.5093,2.5093,2.5093,2.5093,2.5093,2.5093,2.5119,2.6115,2.7035,2.7916,2.9216,3.0269,3.1087,3.1313,3.141,3.141,3.141,3.141,3.1469,3.2176,3.2664,3.3026,3.3794,3.4266,3.4629,1.8933,1.8538,1.8171,1.8031,1.7726,1.7514,1.7514,1.7514,1.7556,1.7683,1.753,1.7436,1.7516,1.7451,1.7313,1.7106,1.7167,1.7168,1.7007,1.7001,1.7001,1.7001,1.7001,1.7001,1.7001,1.665,1.6488,1.6488,1.6488,1.6396,1.6234,1.5914,1.5751,1.5719,1.5365,1.5295,1.5453,1.5654,1.5903,1.6196,1.6369,1.6737,1.7127,1.7127,1.7342,1.762,1.7831,1.786,1.7792,1.7875,1.7997,1.8149,1.8264,1.8605,1.8908,1.8908,1.9073,1.9229,1.9297,1.9374,1.9471,1.9637,1.9811,1.9953,2.0253,2.041,2.0537,2.0676,2.07,2.07,2.07,2.07,2.07,2.07,2.07,2.0804,2.1185,2.1386,2.1697,2.2242,2.2482,2.2654,2.2866,2.3201,2.3577,2.3959,2.4299,2.457,2.4781,2.4984,2.5093,2.5093,2.5093,2.5093,2.5093,2.5093,2.5356,2.582,2.6869,2.8047,2.9299,3.0346,3.115,3.168,3.168,3.1593,3.1428,3.163,3.168,3.1782,3.2754,3.3218,3.3486,3.4444,3.499,3.5371,1.8823,1.8421,1.8025,1.7937,1.7726,1.7585,1.7569,1.7581,1.7677,1.7943,1.7714,1.7696,1.815,1.7897,1.7631,1.7512,1.7432,1.7303,1.7007,1.7001,1.7001,1.7001,1.7001,1.7001,1.7001,1.7001,1.7001,1.7001,1.7001,1.6845,1.6596,1.6234,1.6104,1.6071,1.5763,1.5778,1.6067,1.6168,1.6422,1.6765,1.6833,1.7117,1.7485,1.7485,1.7696,1.8007,1.8007,1.8095,1.8251,1.8251,1.8487,1.8796,1.9031,1.9372,1.9686,1.9686,1.9784,1.9855,1.9814,1.9886,1.9953,1.9953,1.9953,2.0026,2.0319,2.0513,2.0646,2.0694,2.07,2.07,2.07,2.07,2.07,2.07,2.07,2.0908,2.1524,2.1731,2.2042,2.2654,2.2832,2.2962,2.3071,2.3338,2.3679,2.4163,2.4435,2.4747,2.5093,2.5093,2.5093,2.5093,2.5093,2.5093,2.5093,2.5347,2.597,2.6997,2.8137,2.9292,3.0437,3.1595,3.2111,3.2111,3.2111,3.1909,3.1639,3.1964,3.2111,3.2214,3.3373,3.3799,3.3947,3.5065,3.5723,3.5982,1.8532,1.8392,1.8188,1.7661,1.7755,1.7893,1.7846,1.7853,1.7949,1.8197,1.8148,1.8121,1.8191,1.7798,1.7528,1.7497,1.7233,1.7039,1.7001,1.7001,1.7001,1.7001,1.7001,1.7001,1.7001,1.7001,1.7001,1.7001,1.7001,1.6974,1.6942,1.6596,1.6434,1.6444,1.6252,1.6206,1.6282,1.6815,1.7216,1.7485,1.7766,1.8029,1.8258,1.8258,1.8293,1.8328,1.8328,1.8587,1.8868,1.8868,1.9147,1.946,1.9495,1.9756,2.004,2.004,2.0295,2.0494,2.0271,2.0215,2.0259,2.0259,2.0259,2.0325,2.0591,2.0501,2.0428,2.0658,2.07,2.07,2.07,2.07,2.07,2.07,2.07,2.0735,2.0839,2.1393,2.1835,2.1938,2.2516,2.314,2.3789,2.3891,2.4197,2.4883,2.4984,2.5052,2.5093,2.5093,2.5093,2.5093,2.5093,2.5093,2.5093,2.6295,2.7452,2.8507,2.9935,3.0558,3.0455,3.1875,3.2514,3.2514,3.2514,3.2487,3.2432,3.2496,3.2514,3.2618,3.3754,3.4216,3.4374,3.5491,3.5933,3.5982,1.8706,1.8421,1.8077,1.7813,1.7877,1.7923,1.7883,1.8034,1.8209,1.8475,1.8482,1.8545,1.8689,1.8527,1.8238,1.7819,1.7653,1.7389,1.7034,1.7001,1.7001,1.7001,1.7001,1.7001,1.7001,1.7001,1.7001,1.7001,1.7001,1.7001,1.7001,1.6661,1.6596,1.6796,1.6673,1.6744,1.693,1.7324,1.7625,1.7882,1.8025,1.8229,1.8398,1.8398,1.8398,1.8433,1.8643,1.8848,1.9023,1.9262,1.9581,1.986,1.986,2.0144,2.0428,2.0428,2.0567,2.0676,2.0561,2.0531,2.0531,2.0531,2.0531,2.0561,2.0676,2.0616,2.0561,2.0682,2.07,2.07,2.07,2.07,2.07,2.07,2.07,2.077,2.0943,2.1248,2.1628,2.2035,2.2551,2.303,2.3338,2.3754,2.4129,2.4469,2.4672,2.4849,2.5086,2.4883,2.4883,2.5086,2.5093,2.5173,2.5322,2.5927,2.7216,2.9088,2.9313,3.0326,3.1998,3.2627,3.2945,3.2945,3.2945,3.2817,3.2615,3.2845,3.2945,3.305,3.4195,3.49,3.5302,3.5802,3.5982,3.5982]},{"header":{"parameterUnit":"m.s-1","parameterCategory":1,"la1":30.6,"la2":28.766,"lo1":-90.7593,"lo2":-88.6598,"dy":0.0162,"dx":0.0183,"nx":116,"ny":114,"refTime":"2023-05-21T06:00:00:Z","depth":0,"parameterNumber":3,"parameterNumberName":"V-component_of_WINDS"},"data":[0.0,0.0,0.0,0.0,0.0,0.0,0.0,0.0,0.0,0.0,0.0,0.0,0.0,0.0,0.0,0.0,0.0,0.0,0.0,0.0,0.0,0.0,0.0,0.0,0.0,0.0,0.0,0.0,0.0,0.0,0.0,0.0,0.0,0.0,0.0,0.0,0.0,0.0,0.0,0.0,0.0,0.0,0.0,0.0,0.0,0.0,0.0,0.0,0.0,0.0,0.0,0.0,0.0,0.0,0.0,0.0,0.0,0.0,0.0,0.0,0.0,0.0,0.0,0.0,0.0,0.0,0.0,0.0,0.0,0.0,0.0,0.0,0.0,0.0,0.0,0.0,0.0,0.0,0.0,0.0,0.0,0.0,0.0,0.0,0.0,0.0,0.0,0.0,0.0,0.0,0.0,0.0,0.0,0.0,0.0,0.0,0.0,0.0,0.0,0.0,0.0,0.0,0.0,0.0,0.0,0.0,0.0,0.0,0.0,0.0,0.0,0.0,0.0,0.0,0.0,0.0,0.0,0.0,0.0,0.0,0.0,0.0,0.0,0.0,0.0,0.0,0.0,0.0,0.0,0.0,0.0,0.0,0.0,0.0,0.0,0.0,0.0,0.0,0.0,0.0,0.0,0.0,0.0,0.0,0.0,0.0,0.0,0.0,0.0,0.0,0.0,0.0,0.0,0.0,0.0,0.0,0.0,0.0,0.0,0.0,0.0,0.0,0.0,0.0,0.0,0.0,0.0,0.0,0.0,0.0,0.0,0.0,0.0,0.0,0.0,0.0,0.0,0.0,0.0,0.0,0.0,0.0,0.0,0.0,0.0,0.0,0.0,0.0,0.0,0.0,0.0,0.0,0.0,0.0,0.0,0.0,0.0,0.0,0.0,0.0,0.0,0.0,0.0,0.0,0.0,0.0,0.0,0.0,0.0,0.0,0.0,0.0,0.0,0.0,0.0,0.0,0.0,0.0,0.0,0.0,0.0,0.0,0.0,0.0,0.0,0.0,0.0,0.0,0.0,0.0,0.0,0.0,0.0,0.0,0.0,0.0,0.0,0.0,0.0,0.0,0.0,0.0,0.0,0.0,0.0,0.0,0.0,0.0,0.0,0.0,0.0,0.0,0.0,0.0,0.0,0.0,0.0,0.0,0.0,0.0,0.0,0.0,0.0,0.0,0.0,0.0,0.0,0.0,0.0,0.0,0.0,0.0,0.0,0.0,0.0,0.0,0.0,0.0,0.0,0.0,0.0,0.0,0.0,0.0,0.0,0.0,0.0,0.0,0.0,0.0,0.0,0.0,0.0,0.0,0.0,0.0,0.0,0.0,0.0,0.0,0.0,0.0,0.0,0.0,0.0,0.0,0.0,0.0,0.0,0.0,0.0,0.0,0.0,0.0,0.0,0.0,0.0,0.0,0.0,0.0,0.0,0.0,0.0,0.0,0.0,0.0,0.0,0.0,0.0,0.0,0.0,0.0,0.0,0.0,0.0,0.0,0.0,0.0,0.0,0.0,0.0,0.0,0.0,0.0,0.0,0.0,0.0,0.0,0.0,0.0,0.0,0.0,0.0,0.0,0.0,0.0,0.0,0.0,0.0,0.0,0.0,0.0,0.0,0.0,0.0,0.0,0.0,0.0,0.0,0.0,0.0,0.0,0.0,0.0,0.0,0.0,0.0,0.0,0.0,0.0,0.0,0.0,0.0,0.0,0.0,0.0,0.0,0.0,0.0,0.0,0.0,0.0,0.0,0.0,0.0,0.0,0.0,0.0,0.0,0.0,0.0,0.0,0.0,0.0,0.0,0.0,0.0,0.0,0.0,0.0,0.0,0.0,0.0,0.0,0.0,0.0,0.0,0.0,0.0,0.0,0.0,0.0,0.0,0.0,0.0,0.0,0.0,0.0,0.0,0.0,0.0,0.0,0.0,0.0,0.0,0.0,0.0,0.0,0.0,0.0,0.0,0.0,0.0,0.0,0.0,0.0,0.0,0.0,0.0,0.0,0.0,0.0,0.0,0.0,0.0,0.0,0.0,0.0,0.0,0.0,0.0,0.0,0.0,0.0,0.0,0.0,0.0,0.0,0.0,0.0,0.0,0.0,0.0,0.0,0.0,0.0,0.0,0.0,0.0,0.0,0.0,0.0,0.0,0.0,0.0,0.0,0.0,0.0,0.0,0.0,0.0,0.0,0.0,0.0,0.0,0.0,0.0,0.0,0.0,0.0,0.0,0.0,0.0,0.0,0.0,0.0,0.0,0.0,0.0,0.0,0.0,0.0,0.0,0.0,0.0,0.0,0.0,0.0,0.0,0.0,0.0,0.0,0.0,0.0,0.0,0.0,0.0,0.0,0.0,0.0,0.0,0.0,0.0,0.0,0.0,0.0,0.0,0.0,0.0,0.0,0.0,0.0,0.0,0.0,0.0,0.0,0.0,0.0,0.0,0.0,0.0,0.0,0.0,0.0,0.0,0.0,0.0,0.0,0.0,0.0,0.0,0.0,0.0,0.0,0.0,0.0,0.0,0.0,0.0,0.0,0.0,0.0,0.0,0.0,0.0,0.0,0.0,0.0,0.0,0.0,0.0,0.0,0.0,0.0,0.0,0.0,0.0,0.0,0.0,0.0,0.0,0.0,0.0,0.0,0.0,0.0,0.0,0.0,0.0,0.0,0.0,0.0,0.0,0.0,0.0,0.0,0.0,0.0,0.0,0.0,0.0,0.0,0.0,0.0,0.0,0.0,0.0,0.0,0.0,0.0,0.0,0.0,0.0,0.0,0.0,0.0,0.0,0.0,0.0,0.0,0.0,0.0,0.0,0.0,0.0,0.0,0.0,0.0,0.0,0.0,0.0,0.0,0.0,0.0,0.0,0.0,0.0,0.0,0.0,0.0,0.0,0.0,0.0,0.0,0.0,0.0,0.0,0.0,0.0,0.0,0.0,0.0,0.0,0.0,0.0,0.0,0.0,0.0,0.0,0.0,0.0,0.0,0.0,0.0,0.0,0.0,0.0,0.0,0.0,0.0,0.0,0.0,0.0,0.0,0.0,0.0,0.0,0.0,0.0,0.0,0.0,0.0,0.0,0.0,0.0,0.0,0.0,0.0,0.0,0.0,0.0,0.0,0.0,0.0,0.0,0.0,0.0,0.0,0.0,0.0,0.0,0.0,0.0,0.0,0.0,0.0,0.0,0.0,0.0,0.0,0.0,0.0,0.0,0.0,0.0,0.0,0.0,0.0,0.0,0.0,0.0,0.0,0.0,0.0,0.0,0.0,0.0,0.0,0.0,0.0,0.0,0.0,0.0,0.0,0.0,0.0,0.0,0.0,0.0,0.0,0.0,0.0,0.0,0.0,0.0,0.0,0.0,0.0,0.0,0.0,0.0,0.0,0.0,0.0,0.0,0.0,0.0,0.0,0.0,0.0,0.0,0.0,0.0,0.0,0.0,0.0,0.0,0.0,0.0,0.0,0.0,0.0,0.0,0.0,0.0,0.0,0.0,0.0,0.0,0.0,0.0,0.0,0.0,0.0,0.0,0.0,0.0,0.0,0.0,0.0,0.0,0.0,0.0,0.0,0.0,0.0,0.0,0.0,0.0,0.0,0.0,0.0,0.0,0.0,0.0,0.0,0.0,0.0,0.0,0.0,0.0,0.0,0.0,0.0,0.0,0.0,0.0,0.0,0.0,0.0,0.0,0.0,0.0,0.0,0.0,0.0,0.0,0.0,0.0,0.0,0.0,0.0,0.0,0.0,0.0,0.0,0.0,0.0,0.0,0.0,0.0,0.0,0.0,0.0,0.0,0.0,0.0,0.0,0.0,0.0,0.0,0.0,0.0,0.0,0.0,0.0,0.0,0.0,0.0,0.0,0.0,0.0,0.0,0.0,0.0,0.0,0.0,0.0,0.0,0.0,0.0,0.0,0.0,0.0,0.0,0.0,0.0,0.0,0.0,0.0,0.0,0.0,0.0,0.0,0.0,0.0,0.0,0.0,0.0,0.0,0.0,0.0,0.0,0.0,0.0,0.0,0.0,0.0,0.0,0.0,0.0,0.0,0.0,0.0,0.0,0.0,0.0,0.0,0.0,0.0,0.0,0.0,0.0,0.0,0.0,0.0,0.0,0.0,0.0,0.0,0.0,0.0,0.0,0.0,0.0,0.0,0.0,0.0,0.0,0.0,0.0,0.0,0.0,0.0,0.0,0.0,0.0,0.0,0.0,0.0,0.0,0.0,0.0,0.0,0.0,0.0,0.0,0.0,0.0,0.0,0.0,0.0,0.0,0.0,0.0,0.0,0.0,0.0,0.0,0.0,0.0,0.0,0.0,0.0,0.0,0.0,0.0,0.0,0.0,0.0,0.0,0.0,0.0,0.0,0.0,0.0,0.0,0.0,0.0,0.0,0.0,0.0,0.0,0.0,0.0,0.0,0.0,0.0,0.0,0.0,0.0,0.0,0.0,0.0,0.0,0.0,0.0,0.0,0.0,0.0,0.0,0.0,0.0,0.0,0.0,0.0,0.0,0.0,0.0,0.0,0.0,0.0,0.0,0.0,0.0,0.0,0.0,0.0,0.0,0.0,0.0,0.0,0.0,0.0,0.0,0.0,0.0,0.0,0.0,0.0,0.0,0.0,0.0,0.0,0.0,0.0,0.0,0.0,0.0,0.0,0.0,0.0,0.0,0.0,0.0,0.0,0.0,0.0,0.0,0.0,0.0,0.0,0.0,0.0,0.0,0.0,0.0,0.0,0.0,0.0,0.0,0.0,0.0,0.0,0.0,0.0,0.0,0.0,0.0,0.0,0.0,0.0,0.0,0.0,0.0,0.0,0.0,0.0,0.0,0.0,0.0,0.0,0.0,0.0,0.0,0.0,0.0,0.0,0.0,0.0,0.0,0.0,0.0,0.0,0.0,0.0,0.0,0.0,0.0,0.0,0.0,0.0,0.0,0.0,0.0,0.0,0.0,0.0,0.0,0.0,0.0,0.0,0.0,0.0,0.0,0.0,0.0,0.0,0.0,0.0,0.0,0.0,0.0,0.0,0.0,0.0,0.0,0.0,0.0,0.0,0.0,0.0,0.0,0.0,0.0,0.0,0.0,0.0,0.0,0.0,0.0,0.0,0.0,0.0,0.0,0.0,0.0,0.0,0.0,0.0,0.0,0.0,0.0,0.0,0.0,0.0,0.0,0.0,0.0,0.0,0.0,0.0,0.0,0.0,0.0,0.0,0.0,0.0,0.0,0.0,0.0,0.0,0.0,0.0,0.0,0.0,0.0,0.0,0.0,0.0,0.0,0.0,0.0,0.0,0.0,0.0,0.0,0.0,0.0,0.0,0.0,0.0,0.0,0.0,0.0,0.0,0.0,0.0,0.0,0.0,0.0,0.0,0.0,0.0,0.0,0.0,0.0,0.0,0.0,0.0,0.0,0.0,0.0,0.0,0.0,0.0,0.0,0.0,0.0,0.0,0.0,0.0,0.0,0.0,0.0,0.0,0.0,0.0,0.0,0.0,0.0,0.0,0.0,0.0,0.0,0.0,0.0,0.0,0.0,0.0,0.0,0.0,0.0,0.0,0.0,0.0,0.0,0.0,0.0,0.0,0.0,0.0,0.0,0.0,0.0,0.0,0.0,0.0,0.0,0.0,0.0,0.0,0.0,0.0,0.0,0.0,0.0,0.0,0.0,0.0,0.0,0.0,0.0,0.0,0.0,0.0,0.0,0.0,0.0,0.0,0.0,0.0,0.0,0.0,0.0,0.0,0.0,0.0,0.0,0.0,0.0,0.0,0.0,0.0,0.0,0.0,0.0,0.0,0.0,0.0,0.0,0.0,0.0,0.0,0.0,0.0,0.0,0.0,0.0,0.0,0.0,0.0,0.0,0.0,0.0,0.0,0.0,0.0,0.0,0.0,0.0,0.0,0.0,0.0,0.0,0.0,0.0,0.0,0.0,0.0,0.0,0.0,0.0,0.0,0.0,0.0,0.0,0.0,0.0,0.0,0.0,0.0,0.0,0.0,0.0,0.0,0.0,0.0,0.0,0.0,0.0,0.0,0.0,0.0,0.0,0.0,0.0,0.0,0.0,0.0,0.0,0.0,0.0,0.0,0.0,0.0,0.0,0.0,0.0,0.0,3.4031,0.0,0.0,0.0,0.0,0.0,0.0,0.0,0.0,0.0,0.0,0.0,0.0,0.0,0.0,0.0,0.0,0.0,0.0,0.0,0.0,0.0,0.0,0.0,0.0,0.0,0.0,0.0,0.0,0.0,0.0,0.0,0.0,0.0,0.0,0.0,0.0,0.0,0.0,2.3635,2.362,2.3738,2.4022,2.3917,2.401,2.428,0.0,0.0,0.0,0.0,0.0,0.0,0.0,0.0,0.0,0.0,0.0,0.0,0.0,0.0,0.0,0.0,0.0,0.0,0.0,0.0,0.0,0.0,0.0,0.0,0.0,0.0,0.0,0.0,0.0,0.0,0.0,0.0,0.0,0.0,0.0,0.0,0.0,0.0,0.0,0.0,0.0,0.0,0.0,0.0,0.0,0.0,0.0,0.0,0.0,0.0,0.0,0.0,0.0,0.0,0.0,0.0,0.0,0.0,0.0,0.0,0.0,0.0,0.0,0.0,0.0,0.0,0.0,0.0,0.0,0.0,0.0,3.5213,0.0,0.0,0.0,0.0,0.0,0.0,0.0,0.0,0.0,0.0,0.0,0.0,0.0,0.0,0.0,0.0,0.0,0.0,0.0,0.0,0.0,0.0,0.0,1.8259,1.879,1.9167,1.9729,2.062,0.0,0.0,0.0,0.0,0.0,0.0,0.0,2.3451,2.3523,2.376,2.3762,2.4184,2.5028,2.5784,2.5799,2.5217,2.5272,0.0,0.0,0.0,0.0,0.0,0.0,0.0,0.0,0.0,0.0,0.0,0.0,0.0,0.0,0.0,0.0,0.0,0.0,0.0,0.0,0.0,0.0,0.0,0.0,0.0,0.0,0.0,0.0,0.0,0.0,0.0,0.0,0.0,0.0,0.0,0.0,0.0,0.0,0.0,0.0,0.0,0.0,0.0,0.0,0.0,0.0,0.0,0.0,0.0,0.0,0.0,0.0,0.0,0.0,0.0,0.0,0.0,0.0,0.0,0.0,0.0,0.0,0.0,3.8021,3.8072,3.8034,3.8139,3.8958,4.0176,3.8777,3.819,3.8137,0.0,0.0,0.0,0.0,0.0,0.0,0.0,0.0,0.0,0.0,0.0,0.0,0.0,0.0,0.0,0.0,0.0,0.0,0.0,0.0,0.0,0.0,1.9351,2.019,2.0757,2.1248,2.1928,2.2878,0.0,0.0,0.0,0.0,0.0,2.3573,2.3797,2.3818,2.3627,2.4138,2.4878,2.5834,2.5856,2.6222,2.6888,2.6888,2.6856,2.6782,0.0,0.0,0.0,0.0,0.0,0.0,0.0,0.0,0.0,0.0,0.0,0.0,0.0,0.0,0.0,0.0,0.0,0.0,0.0,0.0,0.0,0.0,0.0,0.0,0.0,0.0,0.0,0.0,0.0,0.0,0.0,0.0,0.0,0.0,0.0,0.0,0.0,0.0,0.0,0.0,0.0,3.3574,3.3697,0.0,0.0,0.0,0.0,0.0,0.0,0.0,0.0,0.0,0.0,0.0,0.0,0.0,0.0,3.929,4.0446,4.0945,4.0764,4.1681,4.213,4.2126,4.214,4.2264,4.246,4.2183,0.0,4.065,4.0591,0.0,0.0,0.0,0.0,0.0,0.0,0.0,0.0,0.0,0.0,0.0,0.0,0.0,0.0,0.0,0.0,0.0,0.0,0.0,0.0,0.0,2.0224,2.0798,2.1276,2.1679,2.2218,2.2942,2.2979,0.0,0.0,0.0,2.3722,2.3829,2.4243,2.4583,2.4841,2.5705,2.6321,2.6676,2.7069,2.7659,2.8383,2.8383,2.7868,2.7031,2.7228,0.0,0.0,0.0,0.0,0.0,0.0,0.0,0.0,0.0,0.0,0.0,0.0,0.0,0.0,0.0,0.0,0.0,0.0,0.0,0.0,0.0,0.0,0.0,0.0,0.0,0.0,0.0,0.0,0.0,0.0,0.0,0.0,0.0,0.0,0.0,0.0,0.0,0.0,0.0,3.3179,3.4031,3.413,3.4367,3.4455,0.0,0.0,0.0,0.0,0.0,0.0,0.0,0.0,0.0,4.0174,4.0203,4.0603,4.1397,4.1986,4.223,4.2157,4.2613,4.2833,4.2842,4.2842,4.3129,4.3636,4.3561,4.3496,4.3354,4.1942,4.0893,4.0157,0.0,0.0,0.0,0.0,3.987,3.9973,0.0,0.0,0.0,0.0,0.0,0.0,0.0,0.0,0.0,0.0,0.0,0.0,2.0562,2.0997,2.1441,2.1968,2.2108,2.2471,2.3193,2.3126,2.3282,2.3771,2.3882,2.3956,2.402,2.4606,2.5342,2.6217,2.6968,2.7402,2.7512,2.821,2.8818,2.9346,2.9283,2.8666,2.7667,2.7838,2.7601,2.7153,0.0,0.0,0.0,0.0,0.0,0.0,0.0,0.0,0.0,0.0,0.0,0.0,0.0,0.0,0.0,0.0,0.0,0.0,0.0,0.0,0.0,0.0,0.0,0.0,0.0,0.0,0.0,0.0,0.0,0.0,0.0,0.0,0.0,0.0,0.0,0.0,0.0,3.4667,3.5485,3.5619,3.6454,3.6815,0.0,0.0,0.0,0.0,0.0,0.0,4.0501,4.0682,4.1231,4.2183,4.213,4.2522,4.347,4.347,4.3589,4.3814,4.3818,4.391,4.4121,4.4121,4.4504,4.517,4.5126,4.5426,4.5776,4.3365,4.2246,4.1993,4.1556,4.1275,4.1153,4.1206,4.1327,4.1537,0.0,0.0,0.0,0.0,0.0,0.0,0.0,0.0,0.0,0.0,0.0,2.0448,2.1013,2.1705,2.2487,2.3331,2.2948,2.3082,2.4076,2.3715,2.356,2.3797,2.4114,2.4219,2.4099,2.4813,2.5873,2.7326,2.7248,2.7597,2.835,2.872,2.9078,2.9472,2.922,2.9132,2.9187,2.9277,2.8987,2.8462,2.798,0.0,0.0,0.0,0.0,0.0,0.0,0.0,0.0,0.0,0.0,0.0,0.0,0.0,0.0,0.0,0.0,0.0,0.0,0.0,0.0,0.0,0.0,0.0,0.0,0.0,0.0,0.0,0.0,0.0,0.0,0.0,0.0,0.0,0.0,0.0,0.0,0.0,0.0,3.952,4.045,0.0,0.0,0.0,0.0,3.995,4.0829,4.1336,4.1336,4.2172,4.3037,4.3859,4.3923,4.4384,4.5266,4.5266,4.5726,4.6594,4.6527,4.6948,4.7739,4.7739,4.7763,4.7802,4.7821,4.778,4.7635,4.5775,4.4524,4.386,4.4573,4.4375,4.3817,4.4567,4.4836,4.4964,0.0,0.0,0.0,0.0,0.0,0.0,0.0,0.0,1.8618,2.0062,2.043,2.106,2.2365,2.2177,2.2328,2.3297,2.2757,2.2812,2.3807,2.3592,2.3761,2.448,2.4948,2.5547,2.6266,2.6496,2.7049,2.7907,2.7943,2.8234,2.8736,2.8928,2.9364,2.9946,2.9847,3.0011,3.0296,2.9762,2.914,2.8558,2.8891,2.8912,0.0,0.0,0.0,0.0,0.0,0.0,0.0,0.0,0.0,0.0,0.0,0.0,0.0,0.0,0.0,0.0,0.0,0.0,0.0,0.0,0.0,0.0,0.0,0.0,0.0,0.0,0.0,0.0,0.0,0.0,0.0,0.0,0.0,0.0,0.0,0.0,0.0,3.8975,4.0382,0.0,4.0627,4.127,4.1777,4.1823,4.3127,4.4145,4.4716,4.5056,4.5656,4.6553,4.6592,4.6766,4.7073,4.7073,4.7236,4.7577,4.7503,4.7651,4.7994,4.7952,4.7932,4.7932,4.7932,4.7878,4.7722,4.7032,4.6582,4.6376,4.661,4.6542,4.6325,4.6593,4.672,4.6733,0.0,0.0,0.0,0.0,0.0,0.0,0.0,0.0,1.8979,2.0507,2.076,2.1407,2.2985,2.259,2.2662,2.3833,2.3352,2.3336,2.4157,2.3953,2.4232,2.5201,2.5994,2.6749,2.7477,2.7585,2.7903,2.8438,2.8537,2.8892,2.9503,2.9733,3.0121,3.0608,3.0768,3.0863,3.0868,3.0355,2.9821,2.9335,2.9584,2.9575,2.9354,0.0,0.0,0.0,0.0,0.0,0.0,0.0,0.0,0.0,0.0,0.0,0.0,0.0,0.0,0.0,0.0,0.0,0.0,0.0,0.0,0.0,0.0,0.0,0.0,0.0,0.0,0.0,0.0,0.0,0.0,0.0,0.0,0.0,0.0,0.0,4.0157,3.9839,4.1529,4.2602,4.2297,4.3301,4.4114,4.4451,4.5547,4.6439,4.7006,4.7044,4.7319,4.7974,4.7978,4.7983,4.8038,4.8038,4.8182,4.8471,4.8396,4.8558,4.8863,4.882,4.8758,4.8736,4.8736,4.8687,4.8571,4.8493,4.8493,4.8479,4.78,4.7529,4.7529,4.7529,4.7529,4.7561,0.0,0.0,0.0,0.0,0.0,0.0,0.0,1.8614,1.9419,2.0249,2.0741,2.1503,2.2771,2.2967,2.3582,2.5049,2.4775,2.4704,2.5178,2.4867,2.5054,2.5957,2.7168,2.7732,2.7577,2.7962,2.8417,2.8959,2.8975,2.9601,3.076,3.1154,3.1391,3.1473,3.1939,3.1715,3.0989,3.1189,3.1169,3.0912,3.0084,2.9757,2.9692,0.0,0.0,0.0,0.0,0.0,0.0,0.0,0.0,0.0,0.0,0.0,0.0,0.0,0.0,0.0,0.0,0.0,0.0,0.0,0.0,0.0,0.0,0.0,0.0,0.0,0.0,0.0,0.0,0.0,0.0,0.0,0.0,0.0,3.8918,4.0153,4.1667,4.2607,4.4289,4.5684,4.6457,4.6533,4.6896,4.7736,4.7854,4.7911,4.7935,4.7935,4.798,4.8089,4.8024,4.805,4.8183,4.8188,4.8596,4.9428,4.937,4.9786,5.0593,5.0521,5.0462,5.0401,5.0401,5.0354,5.0296,5.0237,5.0194,5.0023,4.8188,4.7479,4.7479,4.7479,4.7479,4.7599,0.0,0.0,0.0,0.0,0.0,0.0,0.0,1.9388,2.0147,2.125,2.1493,2.1918,2.2808,2.3052,2.3524,2.4466,2.4692,2.4907,2.517,2.5781,2.6753,2.8161,2.7998,2.8281,2.915,2.9369,2.9717,3.0213,3.0737,3.1348,3.2019,3.2226,3.248,3.2791,3.2953,3.2918,3.2732,3.2982,3.3002,3.2734,3.1354,3.083,3.0879,0.0,0.0,0.0,0.0,0.0,0.0,0.0,0.0,0.0,0.0,0.0,0.0,0.0,0.0,0.0,0.0,0.0,0.0,0.0,0.0,0.0,0.0,0.0,0.0,0.0,0.0,0.0,0.0,0.0,0.0,0.0,0.0,4.3574,4.2344,4.3236,4.4363,4.5258,4.6402,4.7201,4.7412,4.745,4.7567,4.7846,4.7838,4.8105,4.8747,4.8815,4.9134,4.9796,4.9882,4.9927,4.9912,4.9912,5.0012,5.0202,5.0187,5.027,5.0451,5.044,5.0401,5.0325,5.0325,5.0314,5.0296,5.0237,5.0194,5.0137,4.9512,4.9295,4.9289,4.9224,4.9204,4.9235,0.0,0.0,0.0,0.0,0.0,0.0,0.0,1.9605,2.0484,2.1354,2.1712,2.2112,2.2746,2.3313,2.3971,2.4785,2.5513,2.6012,2.6143,2.7191,2.8114,2.8856,2.9,2.9425,3.0159,3.0413,3.0847,3.151,3.1906,3.2502,3.3295,3.3389,3.356,3.3811,3.3835,3.3751,3.3594,3.3852,3.3962,3.3876,3.3127,3.2697,3.2461,3.2429,3.2481,3.2598,3.2704,3.2722,3.2718,3.3045,0.0,0.0,0.0,0.0,0.0,0.0,0.0,0.0,0.0,0.0,0.0,0.0,0.0,0.0,0.0,0.0,0.0,0.0,0.0,0.0,0.0,0.0,0.0,0.0,4.4908,4.5855,4.5792,4.5699,4.5982,4.6877,4.7432,4.7907,4.827,4.8308,4.8459,4.8848,4.8878,4.9105,4.9622,4.968,4.9942,5.0481,5.0542,5.0577,5.0567,5.0567,5.0542,5.0537,5.0516,5.0656,5.0938,5.0935,5.1086,0.0,5.1353,5.1353,5.1334,5.1317,5.1285,0.0,0.0,0.0,0.0,0.0,4.9905,4.9879,0.0,0.0,0.0,0.0,0.0,0.0,0.0,1.947,2.059,2.0966,2.158,2.2132,2.2564,2.36,2.4569,2.5402,2.6562,2.7385,2.7646,2.8656,2.9161,2.8995,3.0112,3.0825,3.0966,3.1367,3.1978,3.2806,3.2833,3.3439,3.4565,3.4565,3.4603,3.4678,3.4683,3.4461,3.409,3.4372,3.455,3.4711,3.5146,3.4859,3.4094,3.3409,3.3289,3.3442,3.3017,3.2927,3.3093,3.3794,0.0,0.0,0.0,0.0,0.0,0.0,0.0,0.0,0.0,0.0,0.0,0.0,0.0,0.0,0.0,0.0,0.0,0.0,0.0,0.0,0.0,0.0,0.0,0.0,4.7042,4.803,4.8827,4.7705,4.7111,4.7964,4.8012,4.8288,4.9057,4.9133,4.9444,5.0174,5.0319,5.0396,5.0401,0.0,0.0,0.0,0.0,5.0635,5.0779,5.0784,5.082,5.0876,5.082,5.1157,5.185,5.1844,5.2194,5.2798,5.2792,5.2811,5.2811,5.2811,5.2805,5.2633,5.1021,5.0361,5.0296,5.0236,5.0197,5.0197,0.0,0.0,0.0,0.0,0.0,0.0,0.0,1.9604,2.0825,2.1118,2.1568,2.1906,2.2114,2.3131,2.4061,2.4665,2.5776,2.7087,2.8607,2.8825,2.9632,3.1272,3.1149,3.1523,3.2602,3.2971,3.3442,3.4046,3.4639,3.5127,3.5536,3.5536,3.5596,3.571,3.5876,3.586,3.5757,3.6144,3.6317,3.6359,3.6612,3.5893,3.4604,3.4151,3.3773,3.3547,3.3808,3.3721,3.3607,3.4542,3.487,3.4888,3.4978,3.4987,0.0,0.0,0.0,0.0,0.0,0.0,0.0,0.0,0.0,0.0,0.0,0.0,0.0,0.0,0.0,0.0,0.0,0.0,0.0,4.6921,4.8299,4.9454,4.9726,4.9505,4.9391,4.9632,4.9651,4.9726,4.9959,4.9965,5.0077,5.0342,5.035,5.0337,5.0401,5.0457,0.0,5.1527,5.1596,5.1924,5.259,5.259,5.2568,5.253,0.0,0.0,5.2743,5.2751,5.2794,5.287,5.2816,5.2811,5.2811,5.2811,5.2774,5.2679,5.233,5.217,5.2093,5.2079,5.2073,5.2073,0.0,0.0,0.0,0.0,0.0,0.0,0.0,1.9147,2.0623,2.1532,2.1943,2.2351,2.2891,2.3791,2.4552,2.5057,2.6686,2.8162,2.928,3.0089,3.1029,3.2092,3.2203,3.2759,3.3883,3.4002,3.4399,3.5109,3.547,3.5745,3.5905,3.6346,3.6616,3.6764,3.6861,3.6994,3.7137,3.7041,3.7137,3.7365,3.7613,3.7237,3.6465,3.566,3.528,3.5149,3.5034,3.4874,3.4848,3.5756,3.6008,3.6029,3.637,3.6425,3.6444,0.0,0.0,0.0,0.0,0.0,0.0,0.0,0.0,0.0,0.0,0.0,0.0,0.0,0.0,4.5423,0.0,0.0,4.7938,4.8452,4.9315,4.9912,4.9952,4.9985,5.0031,5.0095,5.0101,5.0114,5.0151,5.0169,5.0409,5.0907,5.0946,5.1135,5.1585,5.1654,5.1899,5.2345,5.2423,5.2642,5.3042,5.3042,5.3042,5.3042,5.3042,5.325,5.3658,5.3629,5.3806,5.4153,5.4116,5.4104,5.4104,5.4104,5.4085,5.4053,5.4053,5.3435,5.2554,5.2554,5.2527,5.2493,0.0,0.0,0.0,0.0,0.0,0.0,0.0,1.8325,2.0061,2.159,2.2228,2.2865,2.3776,2.4522,2.5174,2.5753,2.7802,2.9238,2.9576,3.1135,3.2188,3.2544,3.312,3.3901,3.4925,3.4856,3.5145,3.5872,3.5872,3.5971,3.6127,3.6975,3.7434,3.761,3.7748,3.8007,3.831,3.7744,3.7727,3.8123,3.8245,3.8281,3.8201,3.7228,3.6869,3.6795,3.6246,3.6027,3.6138,3.7097,3.7348,3.7382,3.8183,3.8321,3.8187,3.8322,3.8716,0.0,0.0,0.0,0.0,0.0,0.0,0.0,0.0,0.0,4.408,4.5753,4.6357,4.7005,4.8433,4.8671,4.8945,4.9771,4.992,4.9952,4.9912,5.0098,5.0271,5.0323,5.033,5.0342,5.0368,5.0557,5.0976,5.17,5.18,5.2123,5.2772,5.2875,5.301,5.3209,5.3262,5.3396,5.3573,5.3539,5.3563,5.3622,5.3536,5.3951,5.4783,5.4736,5.514,5.5919,5.5906,5.5906,5.5893,5.5893,5.5886,5.5873,5.5874,5.4897,5.3449,5.3135,5.2986,5.2916,0.0,0.0,0.0,0.0,0.0,0.0,0.0,0.0,1.8996,2.0476,2.1785,2.2896,2.372,2.4359,2.5113,2.6061,2.7692,2.8831,2.9232,3.0444,3.184,3.3383,3.3529,3.4278,3.5822,3.5845,3.595,3.6161,3.6161,3.6276,3.6557,3.7237,3.7703,3.7976,3.8629,3.9056,3.9219,3.8743,3.866,3.8834,3.839,3.8244,3.8289,3.8211,3.7721,3.7065,3.6983,3.684,3.6916,3.8443,3.8896,3.8978,3.9796,3.9947,3.9872,3.9984,3.9917,3.9819,3.9965,4.0659,4.1315,4.1278,4.2077,4.3201,0.0,0.0,4.6585,4.7975,4.8845,4.944,4.97,4.969,4.9707,4.9872,4.985,4.983,4.9898,5.061,5.117,5.1158,5.1177,5.121,5.1332,5.1993,5.2482,5.2639,5.2652,5.272,5.2881,5.2953,5.3431,5.4381,5.4361,5.4757,5.5657,5.5484,5.543,5.5502,5.5316,5.5671,5.6527,5.6514,5.6987,5.7799,5.7736,5.7678,5.7619,5.7619,5.7585,5.755,5.7592,5.7329,5.6762,5.5402,5.4856,5.4806,0.0,0.0,0.0,0.0,0.0,0.0,0.0,0.0,0.0,1.9774,2.136,2.2805,2.4127,2.5394,2.6369,2.6906,2.8202,2.9158,2.9523,3.1046,3.2531,3.3888,3.4433,3.5252,3.6381,3.6371,3.6374,3.6433,3.6433,3.6578,3.6859,3.7638,3.8088,3.8257,3.8564,3.8808,3.8992,3.8984,3.9103,3.9323,3.9732,3.9934,3.9991,4.0023,3.9795,3.9354,3.8282,3.8194,0.0,3.9276,3.9453,3.9512,4.0293,4.0438,4.0347,4.0347,4.055,4.1032,4.2228,4.2323,4.2306,4.3202,4.4066,4.492,4.5826,4.6937,4.8055,4.9098,4.9561,4.9828,4.9891,4.9878,4.9871,0.0,5.0329,5.069,5.0705,5.1454,5.2046,5.2158,5.2628,5.2743,5.2303,5.2625,5.3127,5.3742,5.3791,5.4033,5.4622,5.4717,5.5146,5.6025,5.602,5.6416,5.7268,5.7209,5.7164,5.7206,5.7113,5.7264,5.7604,5.7561,5.7735,5.8049,5.7959,5.7932,5.7905,5.7905,5.7873,5.7846,5.7806,5.7684,5.7474,5.6828,5.653,5.6447,0.0,0.0,0.0,0.0,0.0,0.0,0.0,0.0,0.0,0.0,2.0911,2.2926,2.4983,2.6554,2.754,2.7735,2.8716,2.9506,2.9939,3.1401,3.2789,3.3957,3.4837,3.5671,3.6457,3.6709,3.6828,3.6848,3.6895,3.7013,3.7276,3.8074,3.8641,3.8991,3.9166,3.9544,4.0004,3.9838,3.9853,4.0038,4.0412,4.0561,4.0595,4.0817,4.0909,4.0754,3.9417,3.9315,3.9808,3.9762,3.9833,4.0061,4.0795,4.1116,4.1216,4.1162,4.1505,4.2274,4.3824,4.3892,4.3771,4.4996,4.5861,4.6555,4.7035,4.7909,4.8851,4.9664,4.9836,4.9864,4.9925,4.9932,5.0008,5.0242,5.0852,5.1379,5.1607,5.2395,5.3002,5.3136,5.3991,5.4325,5.3679,5.3703,5.4061,5.482,5.5109,5.5546,5.6245,5.6552,5.6974,5.7544,5.7518,5.7791,5.8418,5.8313,5.8286,5.8351,5.8253,5.8343,5.8568,5.8747,5.8782,5.8706,5.8673,5.8615,5.8593,5.8593,5.8593,5.8567,5.8453,5.8356,5.8283,5.8261,5.7905,5.7403,0.0,0.0,0.0,0.0,0.0,0.0,0.0,0.0,0.0,0.0,0.0,0.0,0.0,2.7584,2.8212,2.8365,2.8997,2.9676,3.0343,3.1042,3.2059,3.3458,3.4357,3.5168,3.5898,3.6882,3.7413,3.7478,3.7604,3.7739,3.7882,3.8563,3.9445,4.0465,4.1115,4.2132,4.3259,4.1778,4.1226,4.1211,3.9746,3.9077,3.9051,3.9834,4.0167,4.0219,4.0089,3.9942,3.9817,3.9871,4.0276,4.0891,4.1623,4.2396,4.3022,4.3013,4.3114,4.3414,4.4181,4.5176,4.6035,4.6219,4.7148,4.8067,4.8212,4.8479,4.8938,4.9734,4.9952,4.9979,5.0005,5.0005,5.0271,5.1125,5.1277,5.1562,5.2341,5.3378,5.4059,5.4065,5.5064,5.5741,0.0,5.5658,5.5673,5.5855,5.6635,5.7164,5.7244,5.8066,5.8587,5.8745,5.8568,5.8614,5.8965,5.8594,5.8486,5.8675,5.8418,5.8711,5.9485,6.0271,6.0571,6.0521,6.0521,6.0442,6.032,6.032,6.032,6.0313,6.0246,6.0147,6.0026,5.995,5.8846,5.7403,0.0,0.0,0.0,0.0,0.0,0.0,0.0,0.0,0.0,0.0,0.0,0.0,0.0,0.0,0.0,0.0,2.9375,3.0064,3.0885,3.1434,3.2681,3.4807,3.5217,3.5971,3.7193,3.7682,3.7922,3.7896,3.7948,3.7992,3.8044,3.8254,3.8933,3.9984,4.0197,4.0946,4.2047,4.2254,4.2352,4.2359,4.1927,4.1736,4.1649,4.135,4.1221,4.1136,0.0,4.0266,4.0142,4.0664,4.0935,4.128,4.2473,4.3085,4.344,4.3907,4.424,4.48,4.6251,4.6738,4.6997,4.7704,4.8202,4.85,4.8502,4.9024,4.9564,4.9829,4.9925,4.992,4.992,5.0474,5.102,5.1253,5.2308,5.3192,5.3466,5.4301,5.4968,5.5146,5.6042,0.0,0.0,0.0,0.0,5.7005,5.7794,5.8305,5.8421,5.8718,5.9118,5.966,5.9558,5.9777,6.0394,6.0263,6.0233,6.0292,6.0152,6.0185,6.0373,6.0599,6.0654,6.0597,6.0552,6.0485,6.0396,6.0396,6.0396,6.0389,6.0323,6.0223,6.0084,6.0026,5.9605,5.9059,0.0,0.0,0.0,0.0,0.0,0.0,0.0,0.0,0.0,0.0,0.0,0.0,0.0,0.0,0.0,0.0,0.0,3.0117,3.09,3.1249,3.2374,3.4501,3.4953,3.5733,3.6991,3.772,3.8077,3.8062,3.8295,3.842,3.8418,3.8455,3.9021,4.0015,4.0096,4.0716,4.1773,4.241,4.2701,4.2691,4.2455,4.2369,4.2326,4.1682,4.1241,0.0,4.0747,4.056,4.0448,4.0878,4.1343,4.1923,4.2817,4.3528,4.4124,4.4635,4.5199,4.5983,4.7548,4.7818,4.7902,4.8874,4.9168,4.9175,4.9111,4.9541,5.0048,5.035,5.0194,5.0094,5.0398,5.1008,5.1516,5.1802,5.3047,5.4116,5.446,5.5312,5.5977,5.6187,5.7094,5.7781,0.0,0.0,0.0,5.8118,5.8868,5.9363,5.9464,5.9759,6.0148,6.0622,6.0546,6.0751,6.1276,6.1236,6.117,6.1145,6.1086,6.0977,6.08,6.0765,6.071,6.0636,6.0565,6.0499,6.0431,6.041,6.0396,6.0389,6.0323,6.0223,6.0084,6.0026,5.9966,5.9904,0.0,0.0,0.0,0.0,0.0,0.0,0.0,0.0,0.0,0.0,0.0,0.0,0.0,0.0,0.0,0.0,0.0,0.0,3.0506,3.0599,3.1299,3.2791,3.3734,3.4602,3.5417,3.7037,3.7895,3.7947,3.8601,3.8894,3.8901,3.9004,3.9598,4.0571,4.0816,4.151,4.2511,4.2383,4.2366,4.2337,4.1406,4.1054,4.1076,4.084,4.0277,3.9706,4.0472,4.0746,4.075,4.0602,4.1615,4.292,4.2926,4.3926,4.5144,4.5382,4.6027,4.6945,4.8062,4.8475,4.8789,4.9696,5.0011,5.0089,5.0031,5.0101,5.0393,5.1159,5.0748,5.0531,0.0,5.1567,5.1852,5.2716,5.3538,5.439,5.5344,5.6357,5.7051,0.0,0.0,0.0,0.0,0.0,0.0,5.9191,0.0,6.036,6.036,6.114,6.1607,6.1607,6.1473,6.1462,6.1599,6.147,6.1337,6.1198,6.1201,6.1055,6.0806,6.0806,6.0752,6.0691,6.0636,6.0565,6.0492,6.0424,6.0396,6.0389,6.0323,6.0223,6.0084,6.0026,5.9966,5.9896,0.0,0.0,0.0,0.0,0.0,0.0,0.0,0.0,0.0,0.0,0.0,0.0,0.0,0.0,0.0,0.0,0.0,0.0,3.0979,3.1044,3.175,3.3324,3.4204,3.4999,3.577,3.6834,3.7361,3.7338,3.7557,3.7577,3.7443,3.8269,3.9169,4.0108,4.0864,4.1771,4.2717,4.2686,4.2642,4.2553,4.1653,4.1287,4.1179,4.0477,3.9974,3.9689,3.9903,4.0704,4.1646,4.1504,4.2854,4.4763,4.5737,4.6143,4.6434,4.7286,4.776,4.8225,4.915,4.9556,4.9746,4.9993,5.0076,5.0114,5.0132,5.0634,5.1167,5.1465,5.1294,5.1358,5.2234,5.2387,5.2673,5.3557,5.4441,0.0,5.6376,5.6804,0.0,5.8192,0.0,5.9818,5.992,6.0733,0.0,0.0,6.1103,6.1218,6.1276,6.1471,6.1607,6.1607,6.1568,6.1571,6.1597,6.1578,6.1433,6.1197,6.1209,6.1055,6.0806,6.0806,6.0752,6.0691,6.0636,6.0565,6.0492,6.0424,6.0396,6.0396,6.0375,6.0263,6.0091,6.0087,5.9994,5.9869,0.0,0.0,0.0,0.0,0.0,0.0,0.0,0.0,0.0,0.0,0.0,0.0,0.0,0.0,0.0,0.0,0.0,0.0,0.0,3.0734,3.1347,3.2657,3.3154,3.392,3.5071,3.5908,3.6497,3.6838,3.7146,3.7267,3.7227,3.7817,3.8413,3.8993,3.9569,4.0353,4.1272,4.1573,4.1933,0.0,0.0,4.1485,4.1371,4.0438,3.9982,3.9813,3.9775,4.0996,4.2811,4.3902,4.5113,4.6291,4.6979,4.7311,4.7571,4.8197,4.8697,4.9157,4.9725,4.9992,5.0101,5.0101,5.0145,5.0182,5.017,5.0526,5.0983,5.1383,5.1148,5.1243,5.2476,5.2717,5.3048,0.0,0.0,0.0,5.6908,5.7743,5.8565,0.0,6.0166,0.0,6.0865,6.1286,6.1576,0.0,6.1576,6.1554,6.1607,6.1607,6.1607,6.1607,6.1607,6.1592,6.1604,6.1532,6.1404,6.1209,6.1131,6.1007,6.0806,6.0806,6.0788,6.0747,0.0,6.0578,6.0539,6.0438,6.0396,6.0396,6.0396,6.0277,6.0091,6.0091,6.0005,5.983,0.0,0.0,0.0,0.0,0.0,0.0,0.0,0.0,0.0,0.0,0.0,0.0,0.0,0.0,0.0,0.0,0.0,0.0,0.0,0.0,3.0543,3.1377,3.1525,3.2286,3.3742,3.4611,3.5425,3.6177,3.6831,3.7213,3.732,3.7462,3.7577,3.7688,3.7865,3.8406,3.9204,3.9884,4.0674,4.1489,4.1468,4.1498,4.1449,0.0,4.0134,4.0029,4.0078,4.1589,4.3926,4.6518,4.7473,4.7542,4.7582,4.805,4.8603,4.8699,4.9195,4.9785,4.9965,5.005,5.0089,5.0089,5.0182,5.0243,5.0126,5.0228,5.0557,5.1224,5.0831,5.088,5.2596,5.2946,5.3307,5.4356,0.0,5.7146,5.7419,5.8918,6.0062,6.0261,6.1056,6.1583,6.1583,6.1524,6.1519,6.1576,6.1581,6.1585,6.1607,6.1607,6.1607,6.1607,6.1705,6.1768,6.1757,6.1724,6.1641,6.1488,6.1365,6.1251,6.1115,6.1012,6.0973,6.0956,0.0,0.0,6.0578,6.0451,6.0396,6.0396,6.0382,6.027,6.0091,6.0084,5.9966,5.9784,0.0,0.0,0.0,0.0,0.0,0.0,0.0,0.0,0.0,0.0,1.9225,2.1844,0.0,0.0,0.0,0.0,0.0,0.0,0.0,0.0,0.0,3.0432,3.1186,3.176,3.2103,3.3539,3.4366,3.4527,3.54,3.5848,3.5879,3.6711,3.7083,3.71,3.7884,3.8295,3.8447,3.9212,3.9651,3.9862,4.0526,4.0758,4.0684,4.0451,0.0,0.0,4.1308,4.2548,4.4055,4.6563,4.7813,4.8475,4.9385,4.965,4.9664,4.979,4.9872,4.9972,5.0063,5.005,5.0024,5.0024,5.0082,5.0133,5.0108,5.0672,0.0,0.0,5.1431,5.1827,5.3618,5.3905,5.4377,5.5938,5.7141,5.8209,5.9123,0.0,6.0249,0.0,0.0,0.0,0.0,0.0,0.0,0.0,0.0,6.1546,6.1607,6.1607,6.1607,6.1607,6.2309,6.2629,6.2516,6.3086,6.3261,6.3029,6.2992,6.2901,6.2759,6.2148,6.1834,6.1754,6.0943,0.0,6.0512,6.0431,6.0396,6.0389,6.0337,6.0238,6.0084,6.0041,5.9937,5.9784,0.0,0.0,0.0,0.0,0.0,0.0,0.0,1.4053,1.4641,1.5886,1.7968,2.0124,2.2155,2.432,0.0,0.0,0.0,0.0,0.0,0.0,0.0,0.0,3.049,3.1056,3.1578,3.2354,3.3172,3.405,0.0,3.4998,3.5467,3.5981,3.6206,3.6183,3.6674,3.7113,3.7494,3.7877,3.8592,3.9474,3.9809,4.0171,4.0535,0.0,0.0,0.0,4.1217,4.2526,4.4005,4.5643,4.737,4.8966,4.9872,5.0089,5.0005,5.0005,4.9978,4.994,4.9992,5.0005,5.0005,5.0005,5.0392,5.064,5.0152,0.0,0.0,5.0906,5.0841,5.1253,5.2513,5.3111,0.0,5.5129,5.691,5.8347,5.903,5.9957,0.0,0.0,0.0,0.0,0.0,0.0,0.0,0.0,0.0,0.0,6.1549,6.2009,6.2289,6.2289,6.3093,6.3431,6.3267,6.3549,6.3579,6.3347,6.3273,6.322,6.3149,6.2778,6.2599,6.2522,6.1568,0.0,6.1085,6.0596,6.0375,6.0344,6.0301,6.0193,6.0041,5.9963,5.9836,5.9678,0.0,0.0,0.0,0.0,0.0,0.0,0.0,1.3948,1.4297,1.5645,1.6893,1.8363,2.0192,2.2777,2.4708,0.0,0.0,0.0,0.0,0.0,0.0,0.0,0.0,0.0,0.0,0.0,0.0,3.3436,3.3863,0.0,0.0,0.0,0.0,0.0,3.5564,3.5939,3.6554,3.6701,3.762,0.0,0.0,3.9735,0.0,0.0,0.0,0.0,0.0,4.213,4.3654,4.4743,4.663,4.8663,4.9339,4.9683,4.9816,4.97,4.9653,4.9684,4.9868,4.9959,4.9985,4.9985,5.0677,5.1134,5.0208,5.0761,0.0,5.0215,5.0151,5.0536,5.1472,5.2438,5.3434,0.0,5.6627,5.8308,5.8743,6.0067,6.1097,0.0,0.0,0.0,0.0,0.0,0.0,0.0,0.0,0.0,6.1792,6.2669,6.3164,6.3156,6.3912,6.4225,6.4019,6.4043,6.3968,6.3775,6.3661,6.3606,6.3606,6.3414,6.3324,6.3253,6.2143,0.0,0.0,6.07,6.0318,6.0306,6.025,6.0133,5.9982,5.9893,5.9744,5.9563,0.0,0.0,0.0,0.0,0.0,0.0,0.0,1.3472,1.3487,1.5073,1.5855,1.691,1.8532,2.1114,2.3495,0.0,0.0,0.0,0.0,0.0,0.0,0.0,0.0,0.0,0.0,0.0,0.0,3.1638,3.318,0.0,0.0,0.0,0.0,0.0,0.0,3.5581,3.5752,3.642,0.0,0.0,0.0,0.0,0.0,0.0,0.0,0.0,0.0,4.1716,4.28,4.4517,4.5833,4.687,4.7594,4.8376,4.9004,4.8916,0.0,0.0,4.9776,4.9959,4.9918,4.9918,5.0617,5.1075,5.0195,0.0,5.1083,5.0253,5.0108,5.0596,5.2195,5.3315,5.4486,5.6037,5.7406,5.8563,5.9397,5.9917,6.0498,6.1315,0.0,0.0,0.0,0.0,0.0,0.0,0.0,0.0,0.0,6.3553,6.3991,6.3982,6.4649,6.4904,6.4716,6.5246,6.5442,6.5307,6.5286,6.5279,6.5241,6.4468,6.4068,6.3926,6.2234,0.0,0.0,6.0513,6.0189,6.0272,6.0091,5.9982,5.9893,5.9832,5.9679,5.9493,0.0,0.0,0.0,0.0,0.0,0.0,1.3351,1.3353,1.3416,1.4145,1.5366,1.6337,1.6769,1.8696,2.0901,0.0,0.0,0.0,0.0,0.0,0.0,0.0,0.0,0.0,0.0,0.0,0.0,3.116,3.1901,0.0,0.0,0.0,0.0,0.0,0.0,0.0,3.5499,3.5839,0.0,0.0,0.0,0.0,0.0,0.0,0.0,0.0,0.0,0.0,4.2523,4.3324,4.4859,4.6393,4.6174,4.6678,4.7529,4.8466,4.8718,4.8869,4.9711,4.9925,4.9905,4.9905,5.0964,5.1669,5.0262,0.0,5.1686,5.0316,5.0076,5.045,5.1616,5.257,5.3607,5.4848,5.6331,5.7736,5.8833,5.9523,6.0282,0.0,0.0,0.0,0.0,0.0,0.0,0.0,0.0,0.0,0.0,6.4655,6.483,6.4872,6.5615,6.5914,6.5697,6.5812,6.5788,6.5629,6.5494,6.5417,6.5372,6.502,6.4829,6.4656,6.2913,0.0,0.0,6.0677,6.008,6.0056,5.9966,5.9853,5.971,5.9634,5.9574,5.9475,0.0,0.0,0.0,0.0,0.0,1.1735,1.2943,1.3116,1.3214,1.3557,1.4789,1.5563,1.537,1.6824,1.865,2.07,0.0,0.0,0.0,0.0,0.0,0.0,0.0,0.0,0.0,0.0,2.9627,3.0471,3.0841,3.1649,0.0,0.0,0.0,0.0,0.0,0.0,0.0,0.0,0.0,0.0,0.0,0.0,0.0,0.0,0.0,0.0,0.0,0.0,0.0,0.0,0.0,4.5574,4.5194,4.5421,4.6189,4.7878,4.8345,4.8547,4.9647,4.9925,4.9905,4.9905,5.102,5.173,0.0,0.0,5.1773,5.0296,5.0044,5.0399,5.1455,5.218,5.2983,5.4167,5.5714,5.7071,5.7969,5.8892,5.9753,0.0,0.0,0.0,0.0,0.0,0.0,0.0,0.0,0.0,0.0,6.5611,6.5618,6.5741,6.6197,6.6353,6.622,6.6014,6.5814,6.5615,6.5447,6.5344,6.5301,6.5234,6.5071,6.469,0.0,0.0,0.0,6.0615,5.9974,5.9885,5.9836,5.971,5.9563,5.952,5.9457,5.9383,0.0,0.0,0.0,0.0,0.0,0.0,0.0,1.2667,1.2706,1.3498,1.4017,1.4365,1.4492,1.5827,1.7134,1.816,0.0,0.0,0.0,0.0,0.0,0.0,0.0,0.0,0.0,0.0,2.8488,2.9228,3.0153,3.0688,3.0869,3.2727,3.3634,0.0,0.0,0.0,0.0,0.0,0.0,0.0,0.0,0.0,0.0,0.0,0.0,0.0,0.0,0.0,0.0,0.0,0.0,0.0,0.0,4.4926,4.5174,4.706,4.7523,4.7795,4.9529,4.9959,4.9905,4.9905,5.0561,5.0971,0.0,5.058,5.0973,5.0163,5.0005,5.0518,5.217,5.2561,5.312,5.4736,5.6052,5.6898,5.6923,5.7958,0.0,0.0,0.0,0.0,0.0,0.0,0.0,0.0,0.0,0.0,0.0,6.6334,6.6301,6.6583,6.6215,6.6022,6.6005,6.5807,6.5608,6.5394,6.5329,6.5301,6.5301,6.5092,6.458,0.0,0.0,0.0,0.0,6.0225,5.9841,5.9877,5.9685,5.9554,5.9493,5.9493,5.9374,5.9177,0.0,0.0,0.0,0.0,0.0,0.0,0.0,1.2043,1.2387,1.232,1.3353,1.3804,1.3086,1.4551,1.5776,1.6182,0.0,0.0,0.0,0.0,0.0,0.0,0.0,0.0,0.0,0.0,2.7388,2.8048,2.8651,2.9499,3.0551,3.1237,3.2214,3.3435,3.3765,0.0,0.0,0.0,0.0,0.0,0.0,0.0,0.0,0.0,0.0,0.0,0.0,0.0,0.0,0.0,0.0,0.0,0.0,0.0,0.0,4.6382,4.6626,4.6699,4.7896,4.816,4.8272,4.8932,4.973,5.03,4.9975,5.0649,5.1089,5.0182,5.0005,5.0518,5.2189,5.2491,5.3238,5.5584,5.6377,5.6978,0.0,0.0,0.0,0.0,0.0,0.0,0.0,0.0,0.0,0.0,0.0,0.0,0.0,6.603,6.6095,6.6579,6.6201,6.6038,6.6132,6.585,6.5656,6.5525,6.5383,6.5226,6.5073,6.4464,0.0,0.0,0.0,0.0,0.0,6.0167,5.9731,5.9626,5.9564,5.9456,5.9365,5.93,5.9262,5.9177,0.0,0.0,0.0,0.0,0.0,0.0,0.0,1.1476,1.1925,1.1731,1.2613,1.3001,1.2298,1.3834,1.5037,1.535,0.0,0.0,0.0,0.0,0.0,0.0,0.0,0.0,0.0,2.5518,2.6334,2.7234,2.7709,2.8533,2.9697,3.0219,3.1084,3.2243,3.297,0.0,0.0,0.0,0.0,0.0,0.0,0.0,3.8833,0.0,0.0,0.0,0.0,0.0,0.0,0.0,0.0,0.0,0.0,0.0,0.0,0.0,4.5666,4.5796,4.7125,4.739,4.7533,4.8503,4.9124,0.0,4.9869,5.0417,5.0729,5.0196,5.0063,5.0557,5.223,5.2491,5.3184,5.5458,5.6544,5.7232,0.0,0.0,0.0,0.0,0.0,0.0,0.0,0.0,0.0,0.0,0.0,0.0,0.0,0.0,6.5905,6.6355,6.6066,6.5928,6.6022,6.5782,6.5596,6.5479,6.4973,6.4661,6.4514,6.3664,0.0,0.0,0.0,0.0,0.0,5.9904,5.9618,5.9493,5.9438,5.9365,5.9253,5.9224,5.9148,5.906,0.0,0.0,0.0,0.0,0.0,0.0,0.0,0.0,1.1381,1.1644,1.1933,1.21,1.2064,1.3539,1.4764,1.5339,0.0,0.0,0.0,0.0,0.0,0.0,0.0,0.0,0.0,2.4376,2.5248,2.6625,2.7134,2.7745,2.8497,2.9576,3.0195,3.0466,3.2223,3.3347,0.0,0.0,0.0,0.0,0.0,0.0,0.0,0.0,0.0,0.0,0.0,0.0,0.0,0.0,0.0,0.0,0.0,0.0,0.0,0.0,0.0,0.0,0.0,4.7277,4.7369,4.8435,4.8649,4.8844,4.9783,5.0005,0.0,5.0163,5.0132,5.0609,5.2276,5.2546,5.3034,5.4727,5.6619,0.0,0.0,0.0,0.0,0.0,0.0,0.0,0.0,0.0,0.0,0.0,0.0,0.0,0.0,0.0,6.5583,6.5755,6.5596,6.5556,6.5684,6.5609,6.5434,6.5171,6.4256,6.3774,6.367,6.2735,0.0,0.0,0.0,0.0,0.0,5.9529,5.9493,5.9475,5.9337,5.9244,5.9205,5.9186,5.905,5.8889,0.0,0.0,0.0,0.0,0.0,0.0,0.0,0.0,0.0,0.0,1.1909,1.2079,1.1817,1.3017,1.3968,0.0,0.0,0.0,0.0,0.0,0.0,0.0,0.0,0.0,0.0,2.2892,2.3859,2.4957,2.5795,2.6886,2.8208,2.8674,2.9412,3.0375,3.1574,3.3101,3.4812,3.5271,0.0,0.0,0.0,0.0,0.0,0.0,0.0,0.0,3.9993,3.9949,0.0,0.0,0.0,0.0,0.0,0.0,0.0,0.0,4.4783,4.4833,4.5449,0.0,4.576,4.7346,4.7719,4.8105,0.0,5.0044,5.0089,5.012,5.0114,5.0596,5.2223,5.247,5.3194,5.5571,0.0,0.0,0.0,0.0,0.0,0.0,0.0,0.0,0.0,0.0,0.0,0.0,0.0,0.0,0.0,0.0,6.3484,6.3472,6.3484,6.4164,6.5616,6.5409,6.4902,6.4144,6.3913,6.3417,6.2697,6.175,0.0,0.0,0.0,0.0,5.952,5.9502,5.9429,5.9337,5.9262,5.9206,5.9186,5.9039,5.894,5.8898,0.0,0.0,0.0,0.0,0.0,0.0,0.0,0.0,0.0,0.0,0.0,0.0,0.0,0.0,0.0,0.0,0.0,0.0,0.0,0.0,0.0,0.0,0.0,2.0457,2.1115,2.2135,2.3182,2.4227,2.5345,2.653,2.7793,2.8117,2.8678,2.9497,3.1246,3.2977,3.4591,3.5215,3.5537,3.5601,3.5574,0.0,0.0,0.0,0.0,0.0,3.9783,3.9897,0.0,4.1952,4.2498,4.2708,0.0,0.0,0.0,0.0,4.4821,4.4802,4.4883,4.4865,4.5237,4.7005,4.7422,4.7865,4.9651,5.005,5.0076,5.0139,5.0126,5.0596,5.2202,5.2809,0.0,0.0,0.0,0.0,0.0,0.0,0.0,0.0,0.0,0.0,0.0,0.0,0.0,0.0,0.0,0.0,0.0,6.2559,6.2749,6.2703,6.2684,6.3188,6.4266,6.4064,6.3718,6.3204,6.2772,6.2305,6.1772,6.0865,6.0418,0.0,0.0,0.0,5.9411,5.9411,5.9355,5.9262,5.9206,5.9148,5.904,5.894,5.8828,5.8716,0.0,0.0,0.0,0.0,0.0,0.0,0.0,0.0,0.0,0.0,0.0,0.0,0.0,0.0,0.0,0.0,0.0,0.0,0.0,0.0,0.0,0.0,0.0,2.0016,2.0609,2.1718,2.2812,2.3892,2.52,2.6335,2.7293,2.7717,2.8265,2.8981,3.1253,3.2936,3.4159,3.5168,3.5592,3.5592,3.5534,0.0,0.0,0.0,0.0,0.0,0.0,0.0,0.0,4.2004,4.2568,4.2885,4.4574,0.0,0.0,0.0,0.0,0.0,4.4821,4.4903,4.5407,4.7075,4.7448,4.7884,4.9683,5.005,5.0031,5.0145,5.0114,5.0621,5.2373,5.3225,0.0,0.0,0.0,0.0,0.0,0.0,0.0,0.0,0.0,0.0,0.0,0.0,0.0,0.0,0.0,0.0,0.0,6.1891,6.2279,6.2264,6.2181,6.2173,6.2264,6.2412,6.2428,6.2276,6.1481,6.1022,6.0873,6.0129,5.9695,0.0,0.0,0.0,5.929,5.929,5.9244,5.9205,5.9167,5.904,5.8908,5.8869,5.8716,5.85,0.0,0.0,0.0,0.0,0.0,0.0,0.0,0.0,0.0,0.0,0.0,0.0,0.0,0.0,0.0,0.0,0.0,0.0,0.0,0.0,0.0,0.0,1.8432,1.8941,1.9773,2.1108,2.2329,2.3402,2.4578,2.568,2.6749,2.7305,2.8846,3.1137,3.1769,3.3113,3.4931,3.5346,3.554,3.5581,3.5525,0.0,0.0,0.0,0.0,0.0,0.0,0.0,0.0,4.2288,4.308,4.3687,4.4764,0.0,0.0,0.0,0.0,0.0,4.4883,4.5432,4.6215,4.7182,4.7448,4.7922,4.9638,5.0057,5.0076,5.0044,5.0031,5.0759,5.3164,5.3077,5.3628,0.0,0.0,0.0,0.0,0.0,0.0,0.0,0.0,0.0,0.0,0.0,0.0,0.0,0.0,0.0,0.0,0.0,6.0385,6.034,6.0369,6.0369,6.0332,6.1711,6.2044,6.1313,6.1172,6.0705,5.9997,5.9752,5.9599,0.0,0.0,5.9327,5.9309,5.9244,5.9206,5.9186,5.902,5.892,5.8879,5.8768,5.8635,5.8479,0.0,0.0,0.0,0.0,0.0,0.0,0.0,0.0,0.0,0.0,0.0,0.0,0.0,0.0,0.0,0.0,0.0,0.0,0.0,0.0,0.0,1.7193,1.7448,1.8013,1.8885,2.0601,2.1809,2.2448,2.423,2.547,2.6203,2.7524,2.897,3.0478,3.1976,3.3294,3.4444,3.5213,3.555,3.5547,0.0,0.0,0.0,0.0,0.0,0.0,0.0,0.0,0.0,0.0,4.3197,4.3858,4.4802,0.0,0.0,0.0,0.0,0.0,4.4895,4.5198,4.5918,4.7668,4.8453,4.9238,5.0967,5.1346,5.1226,5.0783,5.0674,5.1287,0.0,0.0,5.5045,0.0,0.0,0.0,0.0,0.0,0.0,0.0,0.0,0.0,0.0,0.0,0.0,0.0,0.0,0.0,0.0,0.0,5.9934,5.9893,5.9934,5.9934,5.9893,6.0662,6.0852,6.0443,6.0404,6.0184,5.9793,5.9617,5.9538,5.9484,0.0,5.9281,5.9234,5.9206,5.9138,5.9039,5.893,5.8859,5.8768,5.859,5.8494,5.8418,0.0,0.0,0.0,0.0,0.0,0.0,0.0,0.0,0.0,0.0,0.0,0.0,0.0,0.0,0.0,0.0,0.0,0.0,0.0,0.0,1.6623,1.6485,1.6712,1.7321,1.8363,2.0127,2.1295,2.1818,2.3848,2.5125,2.5728,2.7513,2.8818,2.9792,3.2014,3.3406,3.4161,3.5058,3.5438,3.5433,0.0,0.0,0.0,0.0,0.0,0.0,0.0,0.0,0.0,0.0,0.0,0.0,0.0,0.0,0.0,4.4913,4.4907,4.4895,4.4895,4.5059,4.5848,4.8377,4.9338,5.0155,5.2047,5.247,5.2285,5.1687,5.1525,5.2023,0.0,5.5182,0.0,0.0,0.0,0.0,0.0,0.0,0.0,0.0,0.0,0.0,0.0,0.0,0.0,0.0,0.0,0.0,0.0,0.0,5.9893,5.9893,5.9893,5.9877,5.988,5.988,5.988,5.988,5.9816,5.9784,5.9714,5.9574,5.9484,5.9457,5.9346,5.9253,5.9205,5.9158,5.905,5.8908,5.8859,5.8768,5.8625,5.8451,5.8382,5.8327,0.0,0.0,0.0,0.0,0.0,0.0,0.0,0.0,0.0,0.0,0.0,0.0,0.0,0.0,0.0,0.0,0.0,0.0,0.0,0.0,1.6282,1.6142,1.6271,1.7076,1.8641,1.9737,2.0909,2.2156,2.3267,2.4328,2.5367,2.6693,2.8484,3.0653,3.1837,3.3345,3.4998,3.4977,3.5066,3.5224,3.5223,0.0,0.0,0.0,0.0,0.0,0.0,0.0,0.0,0.0,0.0,0.0,0.0,0.0,4.4907,4.4967,4.4943,4.4895,4.4895,4.5551,4.6789,4.9296,4.9448,4.9581,5.1885,5.2493,5.2535,5.2352,5.2324,5.2878,0.0,5.7035,0.0,0.0,0.0,0.0,0.0,0.0,0.0,0.0,0.0,0.0,0.0,0.0,0.0,0.0,0.0,0.0,0.0,0.0,0.0,5.9893,5.9893,5.9872,5.9818,5.9809,5.9809,5.9809,5.9801,5.9697,5.9511,5.9521,5.9429,5.9318,5.929,5.9253,5.9177,5.9062,5.8972,5.8879,5.8758,5.8635,5.85,5.8437,5.8327,5.8197,0.0,0.0,0.0,0.0,0.0,0.0,0.0,0.0,0.0,0.0,0.0,0.0,0.0,0.0,0.0,0.0,0.0,0.0,0.0,0.0,1.5947,1.5671,1.5836,1.6578,1.7993,1.9119,2.0154,2.1076,2.2383,2.3627,2.483,2.6746,2.8408,2.9931,3.2208,3.3727,3.4562,3.4897,3.5022,3.507,3.5692,3.6505,0.0,0.0,0.0,0.0,0.0,0.0,0.0,0.0,4.3674,4.4913,4.5068,4.5016,4.4907,4.4973,4.4973,4.4955,4.4955,4.5619,4.6902,4.9429,5.0266,5.1084,5.3459,5.405,5.3945,5.3376,5.3243,5.3585,0.0,0.0,0.0,0.0,0.0,0.0,0.0,0.0,0.0,0.0,0.0,0.0,0.0,0.0,0.0,0.0,0.0,0.0,0.0,0.0,0.0,5.9719,5.9719,5.9702,5.9678,5.9678,5.9652,5.9618,5.9618,5.9564,5.9512,5.9411,5.9346,5.9309,5.9272,5.9187,5.9062,5.8991,5.8871,5.8768,5.8727,5.8625,5.8489,5.8418,5.8327,5.8186,0.0,0.0,0.0,0.0,0.0,0.0,0.0,0.0,0.0,0.0,0.0,0.0,0.0,0.0,0.0,0.0,0.0,0.0,1.5371,1.558,1.56,1.541,1.5633,1.6304,1.7454,1.851,1.9466,2.0333,2.1565,2.2755,2.3947,2.6158,2.7917,2.9319,3.1976,3.3558,3.4226,3.4707,3.5031,3.5311,3.5965,3.6799,0.0,0.0,0.0,0.0,0.0,0.0,0.0,0.0,4.3658,4.4943,4.5055,4.5045,4.4986,4.5032,4.54,4.5795,4.5818,4.6452,4.7731,5.0266,5.1155,5.2056,5.4486,5.5057,5.4886,5.4292,5.437,5.4819,5.5638,0.0,0.0,0.0,0.0,0.0,0.0,0.0,0.0,0.0,0.0,0.0,0.0,0.0,0.0,0.0,0.0,0.0,0.0,0.0,0.0,0.0,5.9624,5.9598,5.9563,5.9563,5.9519,5.9448,5.9448,5.9448,5.9429,5.9337,5.929,5.9262,5.9215,5.911,5.8954,5.892,5.8828,5.8706,5.8646,5.8572,5.8454,5.8364,5.8242,5.8111,0.0,0.0,0.0,0.0,0.0,0.0,0.0,0.0,0.0,0.0,0.0,0.0,0.0,0.0,0.0,0.0,0.0,0.0,1.4647,1.5029,1.5264,1.5381,1.5715,1.6297,1.7174,1.7934,1.8939,2.0207,2.0862,2.1679,2.2652,2.4723,2.6876,2.909,3.0967,3.2697,3.421,3.4416,3.5082,3.5993,3.594,3.6915,3.8378,0.0,0.0,0.0,0.0,0.0,0.0,0.0,4.3605,4.5003,4.5085,4.5103,4.5114,4.5181,4.6288,4.7478,4.7558,4.8236,4.948,5.196,5.205,5.2152,5.4543,5.5155,5.5169,5.5028,5.5748,5.6633,5.735,5.8209,0.0,0.0,0.0,0.0,0.0,0.0,0.0,0.0,0.0,0.0,0.0,0.0,0.0,0.0,0.0,0.0,0.0,0.0,0.0,0.0,5.9678,5.9563,5.9493,5.9493,5.9429,5.929,5.929,5.929,5.929,5.929,5.9253,5.9205,5.9205,5.908,5.8889,5.8889,5.8828,5.8677,5.8543,5.8454,5.8382,5.8242,5.8129,5.7997,0.0,0.0,0.0,0.0,0.0,0.0,0.0,0.0,0.0,0.0,0.0,0.0,0.0,0.0,0.0,0.0,0.0,0.0,1.4332,1.5098,1.5454,1.5264,1.5342,1.5927,1.7042,1.8116,1.9213,2.0333,2.0404,2.1365,2.3209,2.4896,2.6976,2.9358,3.1185,3.2632,3.3763,3.4736,3.5335,3.5768,3.7123,3.7845,3.8184,0.0,0.0,0.0,0.0,0.0,0.0,0.0,0.0,0.0,4.5016,4.502,4.5032,4.5114,4.5479,4.5891,4.5913,4.7419,4.9274,5.0589,5.2063,5.3515,5.4745,5.5057,5.5023,5.496,5.6136,5.7047,5.666,0.0,0.0,0.0,0.0,0.0,0.0,0.0,0.0,0.0,0.0,0.0,0.0,0.0,0.0,0.0,0.0,0.0,0.0,0.0,0.0,0.0,5.9546,5.9465,5.9355,5.9355,5.9337,5.929,5.929,5.929,5.9309,5.9244,5.9215,5.9196,5.904,5.895,5.8889,5.8789,5.8677,5.8553,5.8521,5.84,5.8253,5.8208,5.8129,5.7997,0.0,0.0,0.0,0.0,0.0,0.0,0.0,0.0,0.0,0.0,1.0669,1.1029,0.0,0.0,0.0,0.0,0.0,0.0,0.0,1.5108,1.5362,1.5215,1.5473,1.6251,1.7611,1.8344,1.931,2.0528,2.0652,2.1514,2.3054,2.5288,2.7368,2.9318,3.1166,3.2643,3.3843,3.4879,3.5756,3.6557,3.7754,3.8346,3.8533,0.0,0.0,0.0,0.0,0.0,0.0,0.0,0.0,0.0,4.5028,4.5068,4.5224,4.5931,4.6403,4.6927,4.7918,4.9286,5.0704,5.1833,5.2987,5.4049,5.4781,5.4978,5.5095,0.0,5.6568,5.7453,5.7275,0.0,0.0,0.0,0.0,0.0,0.0,0.0,0.0,0.0,0.0,0.0,0.0,0.0,0.0,0.0,0.0,0.0,0.0,0.0,0.0,0.0,5.9456,5.9383,5.929,5.929,5.929,5.929,5.9272,5.9253,5.9253,5.9215,5.9157,5.907,5.8909,5.8828,5.8799,5.8685,5.8564,5.8489,5.8403,5.8301,5.8197,5.8141,5.8065,5.7997,0.0,0.0,0.0,0.0,0.0,0.0,0.0,0.0,0.0,0.0,1.044,1.0828,0.0,0.0,0.0,0.0,0.0,0.0,0.0,0.0,1.5068,1.5186,1.5946,1.702,1.8454,1.8587,1.9322,2.0724,2.1388,2.2038,2.2764,2.5841,2.797,2.9233,3.1069,3.275,3.4276,3.5057,3.6367,3.7883,3.804,3.8538,3.9183,3.9122,0.0,0.0,0.0,0.0,0.0,0.0,0.0,0.0,4.5061,4.5142,4.5502,4.7036,4.8141,4.9381,5.1631,5.2418,5.2954,5.4406,5.4335,5.4074,5.4745,5.4941,5.5249,5.6093,0.0,5.7651,5.8505,0.0,0.0,0.0,0.0,0.0,0.0,0.0,0.0,0.0,0.0,0.0,0.0,0.0,0.0,0.0,0.0,0.0,0.0,0.0,0.0,0.0,5.941,5.9318,5.929,5.929,5.929,0.0,5.9234,5.9177,5.9167,5.9186,5.906,5.8869,5.8748,5.8687,5.8667,5.8543,5.8489,5.8457,5.8268,5.8197,5.8174,5.8042,5.7997,5.7997,0.0,0.0,0.0,0.0,0.0,0.0,0.0,0.0,0.0,0.0,0.0,0.0,0.0,0.0,0.0,0.0,0.0,0.0,0.0,0.0,1.5068,1.5186,1.6151,1.7003,1.7639,1.8481,1.9549,2.0857,2.1419,2.2791,2.4949,2.6541,2.8408,3.0462,3.1885,3.3196,3.4475,3.6194,3.7216,3.7725,3.8544,3.8973,3.9122,3.9108,3.9129,0.0,0.0,0.0,0.0,0.0,0.0,0.0,4.5028,4.5108,4.5273,4.5636,4.6793,4.8103,4.8637,5.0647,5.2662,5.2967,5.3891,5.4769,5.4878,5.4941,5.5042,5.5188,5.5886,5.6732,0.0,0.0,0.0,0.0,0.0,0.0,0.0,0.0,0.0,0.0,0.0,0.0,0.0,0.0,0.0,0.0,0.0,0.0,0.0,0.0,0.0,5.9529,5.9484,5.9411,5.929,5.929,5.929,0.0,5.9234,5.9148,5.9042,5.8991,5.8871,5.8737,5.8716,5.8635,5.8532,5.8511,5.8422,5.8246,5.8219,5.8141,5.8031,5.8008,5.7997,5.7985,0.0,0.0,0.0,0.0,0.0,0.0,0.0,0.0,0.0,0.0,0.0,0.0,0.0,0.0,0.0,0.0,0.0,0.0,0.0,0.0,1.5142,1.5797,1.645,1.7268,1.8242,1.9272,2.0612,2.2244,2.3353,2.4607,2.5977,2.7864,2.9507,3.0965,3.2561,3.3881,3.4973,3.6578,3.756,3.8095,3.8736,3.8993,3.8953,3.9036,3.9328,3.9767,4.0109,0.0,0.0,0.0,0.0,0.0,0.0,0.0,4.5369,4.6164,4.6734,4.7541,4.9516,5.1021,5.2294,5.3381,5.4318,5.4985,5.4968,5.5,5.5035,5.4956,5.5614,0.0,0.0,0.0,0.0,0.0,0.0,0.0,0.0,0.0,0.0,0.0,0.0,0.0,0.0,0.0,0.0,0.0,0.0,0.0,0.0,5.9685,5.9589,5.9555,5.9456,5.9364,5.929,5.929,5.929,5.9244,5.9139,5.9032,5.8854,5.883,5.8768,5.8706,5.8635,5.8553,5.85,5.84,5.829,5.8197,5.8141,5.8054,5.7997,5.7997,5.7997,5.7985,0.0,0.0,0.0,0.0,0.0,0.0,0.0,0.0,0.0,0.0,0.0,0.0,0.0,0.0,0.0,0.0,0.0,0.0,0.0,0.0,0.0,1.6496,1.6877,1.7801,1.9399,2.0404,2.197,2.4057,2.5683,2.6656,2.7054,2.9324,3.0741,3.1465,3.3248,3.4643,3.5701,3.684,3.7781,3.8549,3.8773,3.8866,3.8874,3.9109,3.9711,4.0502,4.0865,4.2096,4.3565,4.3798,0.0,0.0,0.0,0.0,4.5494,4.6881,4.7004,4.7506,5.1186,5.2118,5.249,5.4441,5.4963,5.5021,5.5021,5.5066,5.5101,5.5057,0.0,0.0,0.0,0.0,0.0,0.0,0.0,0.0,0.0,0.0,0.0,0.0,0.0,0.0,0.0,0.0,0.0,0.0,0.0,0.0,5.9844,5.9668,5.9544,5.9544,5.9392,5.929,5.929,5.929,5.9262,5.9205,5.9042,5.8874,5.8706,5.8685,5.8675,5.8656,5.8543,5.8479,5.8443,5.8257,5.8186,5.8145,5.8042,5.7997,5.7997,5.7997,5.7985,5.795,0.0,0.0,0.0,0.0,0.0,0.0,0.0,0.0,0.0,0.0,1.1349,0.0,0.0,0.0,0.0,0.0,0.0,0.0,0.0,0.0,0.0,1.6736,1.7619,1.8806,2.0287,2.1316,2.3034,2.5517,2.6632,2.809,2.9867,3.0453,3.1499,3.2957,3.4154,3.5376,3.6604,3.7683,3.8344,3.8673,3.8704,3.8859,3.9138,3.9727,4.0255,4.0769,4.1554,4.2624,4.37,4.3789,4.4425,0.0,0.0,0.0,4.5329,4.5559,4.6533,4.7976,4.9979,5.248,5.4589,5.4916,5.5042,5.508,0.0,0.0,5.5177,0.0,0.0,0.0,0.0,0.0,0.0,0.0,0.0,0.0,0.0,0.0,0.0,0.0,0.0,0.0,0.0,0.0,0.0,0.0,0.0,0.0,5.965,5.9455,5.9346,5.9346,5.9309,5.929,5.929,5.929,5.9262,5.9205,5.902,5.883,5.8706,5.8574,5.8532,5.8521,5.8511,5.8392,5.8242,5.8208,5.8141,5.802,5.8008,5.7997,5.7997,5.7997,5.7939,5.7804,0.0,0.0,0.0,0.0,0.0,0.0,0.0,0.0,0.0,0.0,0.0,1.1864,0.0,0.0,0.0,0.0,0.0,0.0,0.0,0.0,0.0,1.7216,1.8393,1.9741,2.1316,2.2954,2.4674,2.6477,2.7864,2.9248,3.0656,3.1625,3.2549,3.3404,3.4447,3.5589,3.6775,3.7846,3.8387,3.8554,3.8704,3.9431,4.0447,4.0411,4.1402,4.2845,0.0,0.0,0.0,0.0,4.4867,4.5203,4.5235,0.0,0.0,0.0,4.5796,4.6928,4.9495,5.2252,5.4486,5.4931,5.5107,5.5162,5.5162,5.5235,5.5294,0.0,0.0,0.0,0.0,0.0,0.0,0.0,0.0,0.0,0.0,0.0,0.0,0.0,0.0,0.0,0.0,0.0,0.0,0.0,0.0,5.9678,5.9588,5.9483,5.9411,5.9411,5.9337,5.929,5.929,5.9253,5.9167,5.9039,5.8879,5.8727,5.8593,5.8532,5.85,5.85,5.8389,5.8279,5.8197,5.8129,5.8042,5.7997,5.7997,5.7997,5.7997,5.7997,5.7927,5.778,0.0,0.0,0.0,0.0,0.0,0.0,0.0,0.0,0.0,0.0,0.0,0.0,0.0,0.0,0.0,0.0,0.0,0.0,0.0,0.0,0.0,1.7838,1.9557,2.1115,2.2456,2.4435,2.6152,2.7562,2.8981,3.0153,3.1081,3.256,3.3491,3.3953,3.4898,3.5971,3.7113,3.7919,3.8344,3.8528,3.8964,4.0104,4.1578,4.1577,0.0,4.488,4.4449,0.0,0.0,0.0,0.0,0.0,0.0,4.5302,0.0,0.0,0.0,4.7101,4.9545,5.1853,5.3782,5.4626,5.4864,5.4961,0.0,0.0,0.0,0.0,0.0,0.0,0.0,0.0,0.0,0.0,0.0,0.0,0.0,0.0,0.0,0.0,0.0,0.0,0.0,0.0,0.0,0.0,0.0,5.9688,5.9581,5.9492,5.9457,5.9457,5.9346,5.93,5.9272,5.9167,5.9059,5.8889,5.8758,5.8635,5.85,5.8479,5.8465,5.8432,5.8275,5.8186,5.8141,5.8031,5.7997,5.7997,5.7997,5.7997,5.7997,5.7962,5.7851,5.7733,0.0,0.0,0.0,0.0,0.0,0.0,0.0,0.0,0.0,0.0,0.0,0.0,0.0,1.3117,1.3571,1.3359,0.0,0.0,0.0,0.0,0.0,1.8658,2.1392,0.0,2.3786,2.5344,2.7122,2.9085,2.98,3.0714,3.1789,3.3072,3.4146,3.5039,3.5874,3.6906,3.803,3.8083,3.8374,3.8847,3.9689,4.074,4.1955,0.0,0.0,0.0,0.0,0.0,0.0,0.0,0.0,0.0,0.0,4.5302,4.5455,0.0,0.0,0.0,5.0175,5.1453,5.2959,5.3836,5.4052,5.43,0.0,0.0,0.0,0.0,0.0,0.0,0.0,0.0,0.0,0.0,0.0,0.0,0.0,0.0,0.0,0.0,0.0,0.0,0.0,0.0,0.0,0.0,0.0,5.9502,5.9502,5.9373,5.9318,5.9318,5.929,5.9272,5.9215,5.9001,5.8899,5.8889,5.8758,5.8635,5.85,5.8429,5.8338,5.8219,5.8208,5.8141,5.8008,5.8008,5.7997,5.7997,5.7997,5.7997,5.7985,5.7869,5.7721,5.7601,0.0,0.0,0.0,0.0,0.0,0.0,0.0,0.0,0.0,0.0,0.0,0.0,0.0,1.3541,1.3908,1.4775,1.5773,0.0,0.0,0.0,0.0,2.0711,2.2964,2.4569,2.5357,2.7007,2.8509,2.9783,3.0921,3.1934,3.2866,3.4435,3.5501,3.6075,3.6405,3.7133,3.8146,3.8789,3.9286,3.976,4.1245,4.2878,0.0,0.0,0.0,0.0,0.0,0.0,0.0,0.0,0.0,0.0,4.5302,4.5646,4.6233,4.7087,4.8372,4.9633,5.0139,5.1101,5.2189,5.3016,5.3646,5.4148,5.4499,0.0,0.0,0.0,0.0,0.0,0.0,0.0,0.0,0.0,0.0,0.0,0.0,0.0,0.0,0.0,0.0,0.0,0.0,0.0,0.0,0.0,0.0,0.0,5.9383,5.9327,5.929,5.929,5.929,5.9234,5.9072,5.8951,5.8859,5.8768,5.8727,5.8612,5.844,5.8415,5.8275,5.8065,5.8065,5.8042,5.7997,5.7997,5.7997,5.7997,5.7997,5.7997,5.7985,5.7857,5.7721,5.7589,0.0,0.0,0.0,0.0,0.0,0.0,0.0,0.0,0.0,1.3106,0.0,0.0,0.0,0.0,1.5179,1.6884,1.7272,1.7936,1.9152,2.0161,2.125,2.2445,2.4515,2.5919,2.6512,2.821,2.9593,3.0675,3.1871,3.2957,3.3889,3.5491,3.6381,3.6643,3.7057,3.7597,3.8274,3.9259,3.9821,4.0285,0.0,0.0,4.5539,0.0,0.0,0.0,0.0,0.0,0.0,0.0,0.0,0.0,0.0,4.6271,4.7106,4.799,4.8831,4.962,5.0149,0.0,0.0,0.0,5.2824,5.3416,5.397,0.0,0.0,0.0,0.0,0.0,0.0,0.0,0.0,0.0,0.0,0.0,0.0,0.0,0.0,0.0,0.0,0.0,0.0,0.0,0.0,0.0,0.0,0.0,5.929,5.929,5.929,5.929,5.9225,5.913,5.8994,5.8901,5.8779,5.8706,5.8706,5.859,5.8393,5.8393,5.8242,5.7997,5.7997,5.7997,5.7997,5.7997,5.7997,5.7997,5.7997,5.7973,5.7927,5.778,5.7547,5.7283,0.0,0.0,0.0,0.0,0.0,0.0,0.0,0.0,0.0,1.3917,0.0,0.0,0.0,0.0,0.0,1.9521,1.9308,1.965,2.1078,2.2524,2.3473,2.3784,0.0,0.0,2.7248,2.8808,3.0343,3.1819,3.2637,3.3673,3.488,3.6138,3.6746,3.6799,3.7855,3.8382,3.8498,3.9447,3.9979,4.0433,0.0,4.4496,4.4885,0.0,0.0,0.0,4.8075,4.8342,0.0,4.8116,0.0,0.0,0.0,4.7125,4.7985,4.8875,4.9691,0.0,0.0,0.0,0.0,0.0,0.0,0.0,5.3664,0.0,0.0,0.0,0.0,0.0,0.0,0.0,0.0,0.0,0.0,0.0,0.0,0.0,0.0,0.0,0.0,0.0,0.0,0.0,0.0,0.0,0.0,5.929,5.929,5.929,5.929,5.929,5.9101,5.8994,5.8994,5.8811,5.8706,5.8706,5.8706,5.859,5.8393,5.8393,5.8242,5.7997,5.7997,5.7997,5.7997,5.7997,5.7997,5.7997,5.7997,5.7916,5.7768,5.7637,5.719,5.667,0.0,0.0,0.0,0.0,0.0,0.0,1.404,1.4332,1.4714,0.0,0.0,0.0,1.6898,1.7885,1.8881,1.984,2.0111,2.0915,2.2509,2.3498,2.4622,2.5959,2.726,2.81,2.8424,2.9577,3.0785,3.2028,3.35,3.4815,3.5981,3.6961,3.7573,3.7899,3.8839,3.9302,3.9465,4.0312,0.0,4.2295,4.495,4.623,0.0,0.0,0.0,0.0,0.0,4.9369,4.9062,0.0,4.7922,4.6988,0.0,0.0,4.8099,4.9538,5.013,0.0,5.0302,0.0,0.0,0.0,0.0,0.0,0.0,0.0,0.0,0.0,0.0,0.0,0.0,0.0,0.0,0.0,0.0,0.0,0.0,0.0,0.0,0.0,0.0,0.0,0.0,0.0,0.0,0.0,5.929,5.929,5.929,5.929,5.929,5.929,5.9101,5.8994,5.8994,5.8811,5.8706,5.8706,5.8706,5.859,5.8393,5.8393,5.8242,5.7997,5.7997,5.7997,5.7997,5.7997,5.7997,5.7997,5.7997,5.7714,5.7271,5.7147,5.6736,5.6243,0.0,0.0,0.0,0.0,0.0,0.0,1.5004,1.5525,1.6029,0.0,0.0,0.0,1.8897,1.9787,2.0636,2.1428,2.1919,2.2791,2.4188,2.4979,2.5983,2.7333,2.8104,2.8752,2.9321,3.0513,3.1753,3.2973,3.4675,3.599,3.6961,3.7603,3.8054,3.8343,3.9216,3.9855,4.0366,0.0,0.0,0.0,4.566,0.0,0.0,4.8859,4.9624,0.0,0.0,0.0,4.963,4.9618,4.849,0.0,0.0,0.0,0.0,0.0,0.0,0.0,0.0,0.0,0.0,0.0,0.0,0.0,5.1945,5.2862,0.0,0.0,0.0,0.0,0.0,0.0,0.0,0.0,0.0,0.0,0.0,0.0,0.0,0.0,0.0,0.0,0.0,0.0,0.0,5.929,5.929,5.929,5.929,5.929,5.929,5.929,5.9101,5.8994,5.8994,5.8811,5.8706,5.8706,5.8706,5.859,5.8393,5.8393,5.8242,5.7997,5.7997,5.7997,5.7997,5.7997,5.7997,5.7973,5.7726,5.7388,5.6989,5.6683,5.6197,5.5711,0.0,0.0,0.0,1.4611,1.5016,1.5478,1.5959,1.6805,1.7543,0.0,1.8498,1.9392,2.0838,2.155,2.2446,2.3696,2.4223,2.4931,2.6019,2.6762,2.7546,2.8391,2.8923,2.951,3.0212,3.1618,3.3006,3.4363,3.5856,3.6968,3.7721,3.8037,3.8287,3.8487,3.9361,0.0,4.1254,0.0,0.0,4.3441,4.581,4.6647,0.0,0.0,4.9077,4.9231,4.9161,4.9755,5.0529,5.0484,4.9461,0.0,0.0,0.0,0.0,0.0,5.0378,0.0,0.0,0.0,0.0,0.0,0.0,0.0,5.2174,5.2594,5.3066,0.0,0.0,0.0,0.0,0.0,0.0,0.0,0.0,0.0,0.0,0.0,0.0,0.0,0.0,0.0,0.0,5.929,5.929,5.929,5.929,5.9309,5.93,5.929,5.9272,5.9281,5.9101,5.8993,5.8993,5.8801,5.8706,5.8706,5.8706,5.859,5.8393,5.8393,5.8242,5.7997,5.7997,5.7997,5.7997,5.795,5.7939,5.7874,5.7321,5.6964,5.6704,5.6201,5.5639,5.5124,0.0,0.0,1.5314,1.5507,1.6448,1.7239,1.7458,1.8504,1.9408,1.9743,2.0859,2.1942,2.2782,2.3187,2.3863,2.5039,2.5406,2.6237,2.7782,2.8477,2.9309,3.0395,3.0846,3.147,3.2303,3.2934,3.3951,3.5405,3.6104,3.6925,3.7854,3.8044,3.8556,3.9387,4.0318,4.1338,4.2419,0.0,0.0,4.5492,4.6639,0.0,4.8251,4.9473,4.9959,4.9982,5.0024,5.0656,5.1446,0.0,5.1164,5.0793,0.0,0.0,0.0,0.0,0.0,0.0,0.0,0.0,0.0,0.0,0.0,0.0,5.0703,5.1298,5.1846,0.0,0.0,0.0,0.0,0.0,0.0,0.0,0.0,0.0,0.0,0.0,0.0,0.0,0.0,0.0,0.0,5.929,5.929,5.929,5.929,5.9281,5.9215,5.9215,5.9177,5.9053,5.8981,5.893,5.893,5.8779,5.8706,5.8706,5.8706,5.859,5.8393,5.8393,5.8242,5.7997,5.7997,5.7997,5.7973,5.7649,5.7528,5.7486,5.7209,5.6576,5.5826,5.5618,5.5152,5.4636,0.0,1.6492,1.694,1.7235,1.8259,1.9094,1.9226,2.0465,2.1495,2.1763,2.3026,2.4081,2.4584,2.5073,2.5718,2.6664,2.7128,2.798,2.931,2.9939,3.0589,3.136,3.1938,3.2552,3.3184,3.4147,3.5099,3.6056,3.6827,3.7692,3.866,3.8744,3.9622,4.1123,4.1544,4.2406,4.3535,0.0,4.5179,4.6687,4.7008,0.0,4.8978,5.0266,5.0799,5.0942,5.1343,5.1824,5.2241,5.2205,5.1926,0.0,0.0,5.1484,5.1457,0.0,5.1209,5.1368,0.0,0.0,0.0,5.0302,0.0,0.0,0.0,5.1222,5.1592,0.0,0.0,0.0,0.0,0.0,0.0,0.0,0.0,0.0,0.0,0.0,0.0,0.0,0.0,0.0,0.0,5.929,5.929,5.929,5.9272,5.9234,5.9205,5.9139,5.9072,5.8994,5.8931,5.8889,5.8889,5.8768,5.8706,5.8706,5.8706,5.859,5.8393,5.8393,5.8242,5.7997,5.7997,5.7892,5.7685,5.7474,5.7094,5.6639,5.6421,5.6033,5.5557,5.5104,5.4759,5.4496,1.777,1.8275,1.8714,1.9171,2.0126,2.0892,2.1039,2.2351,2.3444,2.371,2.4913,2.5921,2.6281,2.6979,2.777,2.858,2.9174,2.9919,0.0,0.0,3.1948,3.2434,3.3041,3.3646,3.418,3.5416,3.626,3.6684,3.7574,3.8486,3.9422,3.9488,4.061,4.2601,4.2707,4.3362,4.4394,0.0,0.0,4.7636,0.0,4.8472,4.9452,5.085,5.1453,5.1705,5.2641,5.2997,5.3028,5.2984,0.0,5.2322,5.2571,5.2437,0.0,0.0,0.0,0.0,0.0,0.0,0.0,0.0,0.0,5.045,0.0,0.0,0.0,5.1973,0.0,0.0,0.0,0.0,0.0,0.0,0.0,0.0,0.0,0.0,0.0,0.0,0.0,0.0,0.0,5.9318,5.9281,5.9281,5.9234,5.9186,5.9148,5.9041,5.8974,5.8935,5.8891,5.8859,5.8859,5.8758,5.8706,5.8706,5.8667,5.8569,5.8393,5.8371,5.8231,5.7997,5.7927,5.7697,5.7375,5.7188,5.6626,5.5872,5.5676,5.5528,5.537,5.4728,5.4496,5.4496,1.9864,1.9831,2.0102,2.0735,2.1724,2.2501,2.2703,2.3789,2.4773,2.5268,2.6372,2.7274,2.7788,0.0,0.0,0.0,0.0,0.0,3.2744,0.0,0.0,3.4775,3.5015,3.5616,3.6668,3.6866,3.7212,3.7738,3.7914,3.8502,3.9497,3.9554,4.0624,4.2554,4.337,4.4054,4.4729,0.0,4.8267,0.0,5.0323,5.059,0.0,5.119,5.1547,5.1713,5.3366,5.39,5.3862,0.0,5.4327,5.4561,0.0,5.3703,5.4364,0.0,0.0,0.0,0.0,0.0,0.0,0.0,5.0206,0.0,0.0,0.0,5.0195,5.0284,0.0,5.0184,5.0196,0.0,0.0,0.0,0.0,0.0,0.0,0.0,0.0,0.0,0.0,0.0,0.0,0.0,5.9281,5.9224,5.9196,5.9119,5.894,5.892,5.8869,5.8729,5.8737,5.8727,5.8727,5.8716,5.8706,5.8706,5.8574,5.8476,5.8393,5.8282,5.8141,5.7985,5.7625,5.7437,5.7326,5.6438,5.6,5.5872,5.5676,5.5299,5.4855,5.4606,5.4496,5.4496,2.1688,2.1885,2.2229,2.2592,2.3543,2.433,2.4548,2.5762,2.6811,2.7229,2.7972,2.8702,0.0,0.0,0.0,0.0,0.0,3.4084,0.0,0.0,0.0,0.0,0.0,0.0,3.6803,3.7307,3.7927,3.8653,3.8791,3.959,4.0947,4.1059,4.2237,4.4261,4.466,0.0,4.6327,0.0,4.8959,0.0,0.0,0.0,0.0,5.266,5.3309,5.3849,5.4492,5.4714,5.4681,0.0,5.4876,0.0,0.0,0.0,0.0,0.0,0.0,0.0,0.0,0.0,0.0,0.0,0.0,0.0,0.0,0.0,5.0005,0.0,0.0,0.0,0.0,0.0,0.0,0.0,0.0,0.0,0.0,0.0,0.0,0.0,0.0,0.0,0.0,0.0,0.0,0.0,0.0,5.899,5.8899,5.8828,5.8758,5.8706,5.8625,5.8625,5.8706,5.8625,5.8625,5.8706,5.8553,5.8465,5.8393,5.8253,5.8141,5.7973,5.7559,5.7195,5.6832,5.6164,5.5645,5.5249,5.5171,5.5007,5.4781,5.4575,5.4496,5.4496,2.372,2.3869,2.4118,2.4402,2.5261,2.6038,2.6361,0.0,0.0,0.0,0.0,0.0,3.1215,3.2404,0.0,0.0,3.5454,3.6258,0.0,0.0,3.6928,0.0,0.0,0.0,0.0,3.8312,3.8861,3.9526,3.972,4.0566,4.2002,4.2143,4.3254,4.5167,4.5623,4.6405,4.7498,0.0,5.0164,5.0888,5.2024,5.2895,5.3543,5.3907,5.46,5.539,5.5294,5.5222,5.5139,5.486,5.4945,0.0,5.479,0.0,0.0,0.0,0.0,0.0,5.104,0.0,0.0,0.0,0.0,0.0,0.0,0.0,0.0,0.0,0.0,0.0,0.0,0.0,5.0485,0.0,0.0,0.0,0.0,0.0,0.0,0.0,0.0,0.0,0.0,0.0,0.0,0.0,0.0,0.0,5.8513,5.8413,5.8465,5.8687,5.8564,5.8543,5.8646,5.8529,5.8519,5.8622,5.8486,5.8389,5.8338,5.8208,5.8031,5.7804,5.7345,5.6832,5.6298,5.5801,5.5279,5.478,5.4733,5.4717,5.4702,5.4543,5.4496,5.4496,2.6127,2.562,2.5282,2.5997,2.6744,0.0,0.0,0.0,0.0,0.0,0.0,0.0,0.0,0.0,0.0,0.0,0.0,3.8649,3.9237,0.0,3.9811,0.0,0.0,3.9671,0.0,4.0485,4.021,4.0357,4.0554,4.1112,4.2002,4.2143,4.2932,4.4311,4.5948,4.6938,4.7618,5.1026,5.2493,5.2678,5.4524,5.5282,5.5224,0.0,5.4632,5.5396,5.5396,0.0,0.0,5.4358,5.4613,0.0,0.0,0.0,0.0,0.0,0.0,0.0,0.0,0.0,0.0,5.1377,0.0,0.0,0.0,0.0,4.9885,0.0,0.0,0.0,0.0,0.0,4.9444,0.0,0.0,0.0,0.0,0.0,0.0,0.0,0.0,0.0,0.0,0.0,0.0,0.0,0.0,0.0,5.7509,5.7546,5.7899,5.8669,5.8564,5.8511,5.8511,5.844,5.8404,5.8404,5.8264,5.8208,5.8197,5.8065,5.7792,5.7394,5.6793,5.6298,5.5861,5.5131,5.4811,5.478,5.4592,5.4512,5.4512,5.4496,5.4496,5.4496,2.8776,2.8968,2.8598,2.7295,0.0,0.0,0.0,3.1203,0.0,0.0,0.0,0.0,0.0,3.638,3.7436,0.0,0.0,4.0219,4.057,4.0831,0.0,0.0,0.0,4.088,0.0,0.0,4.114,4.1397,4.1513,4.202,4.2938,4.3016,4.3783,4.5111,4.621,4.7595,0.0,0.0,0.0,0.0,0.0,5.5396,5.5358,0.0,0.0,5.5466,5.5943,5.5725,0.0,5.5519,5.5437,5.5152,5.4852,5.4592,5.4325,5.3964,5.3441,0.0,0.0,0.0,5.266,5.1547,0.0,0.0,0.0,0.0,0.0,0.0,0.0,0.0,0.0,0.0,0.0,0.0,0.0,0.0,0.0,0.0,0.0,0.0,0.0,0.0,0.0,0.0,0.0,0.0,0.0,0.0,0.0,5.7509,5.7881,5.8669,5.8526,5.8454,5.85,5.8353,5.8316,5.8393,5.8253,5.8197,5.8186,5.778,5.7541,5.7351,5.6492,5.5936,5.5647,5.5053,5.4717,5.459,5.4527,5.4496,5.4496,5.4496,5.4496,5.4496,3.0549,3.0976,0.0,0.0,0.0,0.0,0.0,0.0,0.0,0.0,3.5032,0.0,3.7157,0.0,3.9011,0.0,4.1103,4.1868,4.2403,4.2636,0.0,4.3021,4.2858,0.0,0.0,0.0,4.2479,4.275,4.2532,4.2757,4.3403,4.3869,4.459,4.5556,4.6731,4.8454,5.0562,5.1957,5.3273,0.0,0.0,5.5823,0.0,0.0,5.611,5.5931,0.0,5.6635,5.6196,5.6397,5.6125,5.5643,5.5304,5.5068,5.4814,5.4393,5.4078,5.3777,5.3417,5.3473,0.0,5.2329,5.2169,0.0,5.0934,0.0,0.0,0.0,0.0,0.0,0.0,0.0,0.0,0.0,0.0,0.0,0.0,4.9467,0.0,0.0,0.0,0.0,0.0,0.0,0.0,0.0,5.4657,0.0,0.0,0.0,5.7583,5.8669,5.8494,5.8426,5.8465,5.8234,5.8174,5.8271,5.8174,5.8141,5.8099,5.7625,5.7289,5.7043,5.6174,5.5607,5.5269,5.4869,5.4623,5.4496,5.4496,5.4496,5.4496,5.4496,5.4496,5.4496,3.157,0.0,0.0,0.0,3.2277,0.0,0.0,0.0,3.5477,0.0,3.7187,3.8694,3.931,3.9994,4.1017,4.2469,4.2907,0.0,4.467,4.4638,0.0,0.0,4.5134,4.5,4.5795,0.0,0.0,0.0,4.3652,4.3378,4.3494,4.4627,4.5326,4.5694,4.7488,4.9457,5.143,5.2257,5.3625,5.533,5.6243,5.6632,5.6766,5.7619,5.7447,5.6823,5.7657,5.7925,5.7772,5.6995,5.667,5.6479,5.574,5.5974,5.6331,5.5469,5.5722,5.6113,5.5277,5.4325,5.3569,5.3595,0.0,0.0,0.0,0.0,5.2284,0.0,0.0,0.0,0.0,0.0,0.0,0.0,0.0,0.0,0.0,0.0,0.0,0.0,0.0,0.0,0.0,0.0,5.0813,5.2419,5.2605,5.372,0.0,0.0,5.7035,5.864,5.8494,5.8393,5.8393,5.8141,5.7997,5.7997,5.7997,5.7997,5.7985,5.7547,5.7056,5.647,5.5844,5.5286,5.478,5.4575,5.4496,5.4496,5.4496,5.4496,5.4496,5.4496,5.4496,5.4496,3.409,3.4681,3.5067,0.0,3.4955,3.5066,0.0,0.0,0.0,0.0,3.9734,4.0933,4.157,4.2041,4.2766,4.3886,4.4156,0.0,0.0,0.0,0.0,4.6284,4.6427,4.6368,4.6036,4.5913,0.0,4.4371,0.0,4.4876,4.438,4.5483,4.6474,4.7394,4.8076,4.9845,5.2348,5.2525,5.398,5.6189,5.6491,5.6995,0.0,0.0,5.8644,5.8491,5.8701,5.8421,5.7963,5.8326,5.7638,5.6657,5.6998,5.6796,5.6497,5.6779,5.6573,5.6156,5.5822,5.5124,5.4292,5.3611,5.3223,5.2843,0.0,0.0,0.0,0.0,0.0,0.0,0.0,0.0,0.0,0.0,0.0,0.0,0.0,0.0,0.0,0.0,0.0,0.0,0.0,5.0339,5.1249,5.1676,5.2828,5.4314,0.0,0.0,0.0,5.8487,5.8451,5.8349,5.8242,5.8077,5.7997,5.7997,5.7997,5.7997,5.7973,5.7215,5.6736,5.6456,5.5552,5.5022,5.478,5.4575,5.4496,5.4496,5.4496,5.4496,5.4496,5.4496,5.4496,5.448,3.5411,0.0,0.0,3.7266,0.0,0.0,3.7743,0.0,0.0,4.0149,4.1287,0.0,4.2874,4.3376,4.4009,4.4899,4.5102,0.0,4.5837,0.0,0.0,4.6578,4.7091,4.7223,4.686,4.6883,0.0,4.5718,0.0,4.5815,4.5546,4.6634,4.7517,4.8234,4.8845,5.0231,5.2209,5.3307,5.4853,5.6611,5.7376,0.0,0.0,5.9357,5.9663,5.9656,5.964,5.9349,5.8994,5.9083,5.8451,5.766,5.7695,5.7592,5.7452,5.7483,5.7366,5.7037,5.6225,5.5624,5.5012,5.4105,5.3836,5.376,5.3671,5.3628,5.3856,0.0,0.0,0.0,0.0,0.0,0.0,0.0,0.0,0.0,0.0,0.0,0.0,0.0,0.0,0.0,0.0,5.0841,5.1677,5.2354,5.2948,5.3979,0.0,0.0,0.0,5.7944,5.785,5.7914,5.8197,5.7723,5.7648,5.7997,5.7997,5.7997,5.7973,5.7096,5.6586,5.6362,5.5405,5.4869,5.467,5.4543,5.4496,5.4496,5.4496,5.4496,5.4496,5.4496,5.4496,5.448,3.6247,0.0,0.0,0.0,0.0,0.0,0.0,3.9848,0.0,4.1351,0.0,4.3228,4.3674,4.4257,4.4903,4.558,0.0,4.5963,4.6211,4.6369,4.6572,4.6888,4.7364,4.7713,4.7866,4.7693,0.0,0.0,0.0,4.6657,4.6786,4.7879,4.8499,4.8708,4.9618,5.0653,0.0,5.43,5.5936,5.7026,5.8503,5.9179,5.935,6.0102,6.0389,6.0375,6.0316,6.0337,6.026,5.9482,5.9128,5.8861,5.8206,5.8379,5.8665,5.8012,5.8142,5.8164,5.656,5.6061,5.5758,5.4865,5.4693,5.4933,5.5761,5.5929,5.6144,5.6841,5.6504,5.6199,0.0,0.0,0.0,0.0,0.0,0.0,0.0,0.0,0.0,0.0,0.0,0.0,0.0,0.0,5.2085,5.3455,5.3059,0.0,0.0,0.0,0.0,5.7384,5.7246,0.0,5.8009,0.0,5.7262,5.7831,5.7941,5.7997,5.7973,5.7071,5.6532,5.6248,5.5346,5.4792,5.4496,5.4496,5.4496,5.4496,5.4496,5.4496,5.4496,5.4496,5.448,5.4431,3.7944,0.0,0.0,0.0,0.0,3.9928,4.0513,4.1807,4.2872,4.3271,4.3992,4.4575,4.4876,4.5106,4.5441,4.5897,4.6055,0.0,0.0,0.0,0.0,4.737,4.7634,4.7927,4.8298,4.853,4.823,0.0,0.0,0.0,4.7625,4.8856,4.9485,4.9595,4.9981,5.139,5.3552,5.4835,0.0,5.8532,5.8939,5.9529,6.0186,6.0339,6.0373,6.0327,6.0294,6.032,6.0282,6.0006,5.9481,5.9002,5.9448,5.922,5.8885,5.9346,5.9011,5.827,5.7205,5.684,5.6577,5.5645,5.5938,5.6502,5.6669,5.6707,5.6745,5.6895,5.7255,5.7351,5.6799,0.0,0.0,0.0,0.0,0.0,0.0,0.0,0.0,0.0,0.0,0.0,0.0,0.0,0.0,0.0,0.0,0.0,0.0,0.0,0.0,0.0,5.8017,0.0,0.0,0.0,5.7538,5.7024,5.7685,5.7997,5.7973,5.6982,5.6456,5.6248,5.5259,5.4717,5.4496,5.4496,5.4496,5.4496,5.4496,5.4496,5.4496,5.4496,5.4383,5.4239,0.0,0.0,0.0,0.0,0.0,0.0,0.0,4.3244,0.0,4.4061,4.453,4.4957,4.5222,4.5529,4.5841,4.6179,4.6338,4.6453,4.6602,4.6865,4.7187,4.7634,4.7947,0.0,4.8746,4.9084,4.9041,4.853,0.0,0.0,4.8844,4.9504,4.9868,5.005,5.1002,5.236,0.0,0.0,0.0,5.9004,5.9538,6.0033,6.0396,6.0396,6.0366,6.0279,6.0223,6.0167,6.0148,6.011,5.9821,5.9536,5.9896,5.9705,5.943,5.9796,5.9563,5.8988,5.8077,5.7775,5.7493,5.657,5.6638,5.7043,5.744,5.7525,5.7638,5.8051,5.8372,5.8428,5.7987,5.7432,0.0,0.0,0.0,0.0,0.0,0.0,0.0,0.0,0.0,0.0,0.0,0.0,0.0,0.0,0.0,0.0,0.0,0.0,0.0,0.0,0.0,0.0,0.0,0.0,0.0,5.7428,5.7813,5.7997,5.7973,5.6956,5.655,5.6546,5.5319,5.4824,5.4852,5.4605,5.4496,5.4496,5.4496,5.4496,5.4496,5.4496,5.4367,5.4191,0.0,4.081,0.0,0.0,4.2458,0.0,4.321,4.4197,4.4828,4.4561,4.4818,4.5152,4.5412,4.5811,4.613,4.6386,4.6554,4.6719,4.6893,4.7149,4.7493,4.7955,4.8299,4.8776,4.9441,4.9735,4.9943,0.0,0.0,0.0,0.0,4.9994,5.0234,0.0,0.0,0.0,0.0,0.0,5.8247,5.93,6.0086,6.0396,6.0396,6.0396,6.0332,6.0238,6.0133,6.0049,5.9998,6.0041,6.0018,5.999,5.999,5.9942,5.9893,5.9893,5.9847,5.9612,5.874,5.8579,5.8429,5.7486,5.7385,5.7679,5.8211,5.8352,5.853,5.915,5.9206,5.9129,5.9014,5.833,0.0,0.0,0.0,0.0,0.0,0.0,0.0,0.0,0.0,0.0,0.0,0.0,0.0,0.0,0.0,0.0,0.0,0.0,0.0,0.0,0.0,5.7281,5.774,0.0,5.7299,0.0,5.7923,5.7997,5.7973,5.702,5.6652,5.6704,5.5434,5.4946,5.5018,5.4652,5.4496,5.4496,5.4496,5.4496,5.4513,5.4654,5.456,5.4383,0.0,0.0,0.0,0.0,0.0,0.0,4.3372,4.4506,4.5336,4.531,4.5446,4.5641,4.5909,4.6092,4.6235,4.6398,4.6637,4.6916,4.7225,4.7457,4.7856,4.8504,4.8685,4.9325,5.0517,5.0696,5.1107,0.0,0.0,0.0,0.0,0.0,0.0,0.0,0.0,0.0,0.0,5.7547,5.8585,6.0026,6.0294,6.0396,6.0396,6.0396,6.0285,6.0125,6.0099,6.0018,5.991,5.991,5.991,5.991,5.991,5.9902,5.9893,5.9893,5.9847,5.9612,5.874,5.8986,5.925,5.8323,5.8673,5.9241,5.9112,5.9131,5.9187,5.9215,5.9101,5.9004,5.8994,5.8777,5.8636,0.0,0.0,0.0,0.0,0.0,0.0,0.0,0.0,0.0,0.0,0.0,0.0,0.0,0.0,0.0,0.0,0.0,0.0,5.7873,0.0,5.7574,5.6921,5.7556,5.7556,5.6921,5.7648,5.7997,5.7973,5.7209,5.6678,5.6317,5.5505,5.4944,5.4557,5.4527,5.4496,5.4496,5.4496,5.4496,5.4566,5.5111,5.5188,5.5091,0.0,0.0,0.0,0.0,0.0,0.0,0.0,4.5182,4.5585,4.5727,4.5808,4.5947,4.6216,4.6301,4.641,4.6625,4.6928,4.7214,4.746,4.7816,4.8452,4.9462,4.9665,5.0312,5.1469,5.1647,5.1884,0.0,0.0,0.0,0.0,0.0,0.0,0.0,0.0,5.6642,5.7631,5.8686,5.9561,6.0231,6.0347,6.0396,6.041,6.0488,6.036,6.0114,6.0235,6.0121,5.9893,5.9893,5.9893,5.9893,5.9893,5.9893,5.9893,5.9893,5.9847,5.9725,5.9375,5.9439,5.9495,5.9087,5.9184,5.9355,5.9234,5.9149,5.9101,5.9081,5.9002,5.8921,5.8823,5.8698,5.8604,0.0,0.0,0.0,0.0,0.0,0.0,0.0,0.0,0.0,0.0,0.0,0.0,0.0,0.0,0.0,0.0,0.0,0.0,5.7262,0.0,5.785,5.7519,5.7831,5.7831,5.7519,5.785,5.7997,5.7973,5.7234,5.6452,5.5618,5.5331,5.4926,5.4496,5.4496,5.4496,5.4496,5.4496,5.4772,5.5187,5.5335,5.5549,5.5843,4.3324,0.0,4.4333,0.0,4.4998,4.5422,4.5879,4.6018,4.6267,4.6835,4.6945,4.6956,4.6914,4.7175,4.7482,4.7771,4.8051,4.8315,4.8581,4.8956,4.9594,5.0564,5.0746,0.0,5.2402,5.2545,5.2768,5.3058,5.2921,0.0,0.0,0.0,0.0,0.0,5.6504,5.7438,5.7996,5.9216,5.9916,6.0245,6.0344,6.0375,6.0417,6.0507,6.0361,6.0114,6.0263,6.0125,5.9893,5.9893,5.9893,5.9893,5.9893,5.9893,5.9904,5.988,5.9841,5.9793,5.9748,5.9678,5.9589,5.9511,5.942,5.9318,5.9177,5.911,5.9072,5.9062,5.8981,5.8869,5.8768,5.8646,5.8543,5.8511,0.0,0.0,0.0,0.0,0.0,0.0,5.561,5.4606,5.4544,0.0,0.0,0.0,0.0,0.0,0.0,0.0,0.0,0.0,0.0,0.0,0.0,5.7997,5.7997,5.7997,5.7997,5.7985,5.7909,5.7045,5.6211,5.5393,5.5109,5.4805,5.4496,5.4496,5.4616,5.4823,5.4823,5.5289,5.5962,5.5973,5.62,5.6594,4.3958,4.4421,4.4886,4.5136,4.531,4.5714,4.6637,4.7008,4.7621,4.8898,4.9174,4.896,4.8174,4.9039,4.9792,5.013,5.0286,5.0525,5.0932,5.1092,5.1359,0.0,0.0,5.2341,5.3371,5.3398,5.3872,5.4875,0.0,0.0,5.3688,0.0,5.4233,5.5035,5.593,5.7203,5.8688,5.8786,5.93,6.0106,6.0257,6.0344,6.0396,6.0396,6.0277,6.0091,6.0099,6.0018,5.9893,5.9893,5.9893,5.9893,5.9893,5.9893,5.9896,5.9816,5.9801,5.9765,5.9633,5.9607,5.9589,5.9511,5.9493,5.942,5.9081,5.9149,5.9281,5.9206,5.9049,5.8889,5.8908,5.8779,5.8656,5.8521,0.0,0.0,0.0,0.0,0.0,0.0,5.5527,5.4533,5.4599,0.0,0.0,0.0,0.0,0.0,0.0,0.0,0.0,5.7978,5.7997,0.0,5.7997,5.7997,5.7997,5.7997,5.7997,5.7939,5.7768,5.6621,5.6042,5.5847,5.4898,5.4512,5.4496,5.4496,5.4927,5.5582,5.5582,5.6065,5.6825,5.7158,5.7277,5.7344,4.5228,4.5963,4.657,4.6339,4.689,4.7609,4.8272,4.8514,4.8882,4.9557,5.0283,5.0714,5.0689,5.0308,5.0155,0.0,5.0684,5.0912,0.0,5.1467,5.1947,5.2723,5.2825,5.3266,5.4132,5.4281,5.4518,5.4829,0.0,0.0,0.0,5.5424,5.5868,5.6637,5.693,5.7692,5.8767,5.879,5.9357,6.0231,6.0279,6.0391,6.054,6.054,6.0449,6.0293,6.0293,6.0136,5.9893,5.9893,6.0254,6.0727,6.0727,6.0348,5.9896,5.9816,5.974,5.9633,5.9564,5.9465,5.9392,5.9364,5.9328,5.9272,5.9158,5.9071,5.9021,5.901,5.886,5.8758,5.8758,5.8612,5.8473,5.844,5.8279,0.0,0.0,0.0,0.0,0.0,0.0,5.6088,0.0,5.5574,0.0,0.0,0.0,0.0,0.0,0.0,0.0,0.0,5.7703,0.0,5.7997,5.7997,5.7997,5.7997,5.7997,5.7892,5.7637,5.6577,5.6024,5.5861,5.4915,5.4496,5.453,5.503,5.5392,5.5651,5.6202,5.6874,5.7531,5.7364,5.7653,5.8096,4.6324,4.6965,4.75,4.7265,4.7941,4.8753,4.9407,4.9764,5.0225,5.0995,5.1653,5.2189,5.2569,5.2028,0.0,5.1861,5.2026,5.2206,5.2398,5.2612,5.3002,5.362,5.3703,5.4013,5.4563,0.0,0.0,5.4837,5.4871,5.5185,5.5716,5.5716,5.5981,5.6474,5.6796,5.7434,5.8304,5.8619,5.9327,6.0223,6.0223,6.0344,6.0521,6.0521,6.0639,6.0769,6.0769,6.0807,6.0833,6.0833,6.1174,6.1591,6.1591,6.0997,6.0293,6.0238,5.9915,5.9562,5.9456,5.9355,5.929,5.929,5.9262,5.9234,5.9215,5.9031,5.8889,5.8889,5.8789,5.8677,5.8635,5.8519,5.8407,5.8338,5.8186,5.8054,5.8008,0.0,0.0,0.0,0.0,0.0,0.0,5.6412,0.0,0.0,0.0,0.0,0.0,0.0,0.0,5.7244,5.774,0.0,5.7997,5.7997,5.7997,5.7997,5.7904,5.7897,5.7929,5.6613,5.5982,5.5847,5.5193,5.4909,5.4961,5.5737,5.6202,5.6513,5.7029,5.7667,5.8272,5.7895,5.8063,5.8437,4.7275,4.7633,0.0,0.0,4.863,0.0,5.0254,5.0814,5.161,5.2973,5.3149,5.3304,5.3746,5.3926,5.3991,5.4019,0.0,0.0,0.0,5.4317,5.4333,5.4409,5.4455,5.4554,5.47,5.4771,5.4829,5.4901,5.4901,5.4901,5.4901,5.4958,5.4996,5.5034,5.5906,5.672,5.7535,5.8358,5.9249,6.0091,6.0084,6.0215,6.041,6.0446,6.0861,6.1401,6.1461,6.1864,6.2397,6.2397,6.2435,6.2473,6.2473,6.1883,6.1154,6.1019,6.0332,5.9563,5.943,5.9347,5.929,5.929,5.929,5.9281,5.9224,5.904,5.8899,5.8889,5.8789,5.8656,5.8521,5.85,5.8425,5.8253,5.8208,5.8163,5.8031,0.0,0.0,0.0,0.0,0.0,0.0,5.7081,5.7007,0.0,0.0,0.0,0.0,0.0,5.7171,5.796,5.7997,5.7997,5.7997,5.7997,5.8015,5.8077,5.7849,5.8057,5.8531,5.6785,5.5975,5.5953,5.5714,5.5634,5.5737,5.6546,5.7288,5.7909,5.7961,5.8409,5.8961,5.8614,5.8508,5.8437,0.0,0.0,4.9963,4.9643,5.0507,5.1473,5.2082,5.2337,5.2717,5.3461,5.36,5.3678,5.3793,5.3926,5.4019,5.4082,5.4164,5.4272,5.4366,5.4375,5.4383,5.4409,5.4455,5.4554,5.47,5.4771,5.4829,5.4901,5.4901,5.4901,5.492,5.5583,5.5887,5.5925,5.6739,5.76,5.8415,5.8605,5.9249,6.011,6.0049,6.021,6.0525,6.0983,6.129,6.1544,6.2065,6.2308,6.2397,6.2397,6.2814,6.3326,6.3326,6.3132,6.276,6.2029,6.0741,5.9652,6.0144,5.9816,5.929,5.929,5.929,5.9281,5.9224,5.909,5.8962,5.8909,5.8789,5.8656,5.8521,5.8454,5.8415,5.836,5.8264,5.8186,5.8163,5.8152,0.0,0.0,5.7877,5.7767,5.7767,5.7767,5.7756,0.0,0.0,0.0,0.0,5.7244,5.7171,5.796,5.7997,5.7997,5.7997,5.7997,5.8262,5.8779,5.9219,5.9143,5.8567,5.7366,5.68,5.6699,5.5925,5.5944,5.6581,5.734,5.7736,5.7961,5.8513,5.884,5.8961,5.8614,5.8508,5.8437,4.96,5.0342,5.0968,5.0885,5.17,5.2477,5.2791,5.3072,5.339,5.3706,5.3831,5.3879,5.3879,5.4037,5.4156,5.4191,5.4263,5.4324,5.44,5.4409,5.4407,5.443,5.4541,5.463,5.4736,5.4814,5.4856,5.4901,5.5299,5.5489,5.5508,5.6341,5.6739,5.6796,5.7611,5.8263,5.8718,5.9097,5.9567,6.0057,6.001,6.0376,6.0955,6.1283,6.1881,6.2608,6.2949,6.3297,6.3534,6.3534,6.3837,6.4197,6.4197,6.3844,6.3424,6.3275,6.2004,6.0641,6.0614,6.0248,5.9797,5.9403,5.9281,5.9234,5.912,5.9032,5.8941,5.882,5.8748,5.8656,5.8521,5.8451,5.8382,5.8327,5.8197,5.8118,5.8118,5.8118,0.0,5.8008,5.7997,5.7997,5.7997,5.7997,5.7997,5.7997,0.0,0.0,5.7978,5.7593,5.7556,5.7997,5.7997,5.7997,5.7997,5.8305,5.898,5.9998,5.9946,5.9607,5.9022,5.8038,5.737,5.6985,5.6741,5.6909,5.7357,5.8116,5.8409,5.8426,5.884,5.8995,5.8961,5.8614,5.8508,5.8437,5.0583,5.1044,5.15,5.1885,5.2458,5.2908,5.3019,5.3418,5.3724,5.3793,5.3926,5.401,5.401,5.4174,5.4308,5.4308,5.4317,5.4342,5.44,5.4407,5.4449,5.4505,5.4649,5.4728,5.4791,5.4875,5.4958,5.511,5.5849,5.6266,5.6398,5.7213,5.7592,5.7638,5.851,5.8889,5.8927,5.9609,5.9942,5.9994,5.9979,6.0558,6.1408,6.1506,6.2466,6.3795,6.3928,6.4362,6.4907,6.4907,6.4907,6.4898,6.489,6.4272,6.37,6.437,6.3502,6.2146,6.1224,6.0783,6.0454,5.9835,5.945,5.9195,5.9211,5.9036,5.8859,5.8727,5.8706,5.8646,5.85,5.844,5.836,5.8242,5.8129,5.8031,5.8054,0.0,5.802,5.8008,5.7997,5.7997,5.7997,5.7997,5.7997,5.7997,5.7997,5.7997,0.0,5.7997,5.7997,5.7997,5.7997,5.8052,5.818,5.8968,5.9987,6.1193,6.0492,6.0036,5.9738,5.8816,5.8007,5.737,5.7732,5.7961,5.8099,5.8737,5.8995,5.8995,5.8995,5.8995,5.8961,5.8614,5.8508,5.8437,5.1334,5.1848,5.2297,5.2597,5.2962,5.3297,5.3538,5.3646,5.3724,5.3793,5.3926,5.401,5.401,5.4174,5.4308,5.4308,5.434,5.4392,5.4409,5.4447,5.4497,5.4505,5.4678,5.4783,5.4791,5.4875,5.5261,5.6,5.6133,5.655,5.7232,5.8093,5.8491,5.8529,5.9344,5.9704,5.9723,5.9856,5.9942,5.9994,5.9942,6.0478,6.1378,6.2018,6.2829,6.3731,6.447,6.4802,6.4907,6.4907,6.4907,6.4871,6.478,6.4585,6.4426,6.4425,6.4206,6.377,6.2932,6.1675,6.0736,6.128,6.0294,5.9364,5.9948,5.9483,5.8859,5.8727,5.8706,5.8643,5.844,5.8404,5.8393,5.8371,5.8271,5.8208,5.8327,0.0,5.8141,5.8008,5.7997,5.7997,5.7997,5.7997,5.7997,5.7997,5.7997,5.7997,5.7997,5.7997,5.7997,5.7997,5.7997,5.8327,5.9013,6.0347,6.1101,6.1211,6.1633,6.1397,6.0571,5.9651,5.912,5.8905,5.82,5.8254,5.884,5.8944,5.8995,5.8995,5.8995,5.8995,5.8961,5.8614,5.8508,5.8437,5.1927,5.2303,5.2624,5.2994,5.3266,5.3479,5.3666,5.3734,5.3764,5.3803,5.3954,5.4055,5.4055,5.4235,5.434,5.434,5.4383,5.4409,5.4409,5.4455,5.453,5.4598,5.4728,5.4814,5.4841,5.4879,5.5337,5.619,5.6626,5.7278,5.8131,5.8965,5.9344,5.9363,5.9723,5.9893,5.9893,5.9893,5.9918,5.995,5.991,6.0695,6.1925,6.2263,6.3193,6.4349,6.4766,6.4907,6.4907,6.4907,6.4853,6.4789,6.4725,6.4605,6.4482,6.4424,6.4044,6.3571,6.3195,6.22,6.1317,6.1616,6.1059,6.051,6.0781,6.0108,5.9398,5.9311,5.8919,5.8551,5.8426,5.8393,5.8393,5.8393,5.8294,0.0,0.0,5.8174,5.8065,5.8008,5.8382,5.8646,5.8646,5.8646,5.8646,5.8646,5.8235,5.7997,5.7997,5.7997,5.8198,5.8627,5.8646,5.9216,6.0372,6.0998,6.1443,6.1732,6.1986,6.1643,6.0788,6.0243,5.9742,5.9277,5.8738,5.8685,5.8995,5.8995,5.8995,5.8995,5.8995,5.8961,5.8875,5.8596,5.8437,5.8295,5.2442,5.2658,5.2879,5.3287,5.3469,5.3588,5.3705,5.3774,5.3803,5.3803,5.3972,5.41,5.41,5.4287,5.4409,5.4409,5.4409,5.4409,5.4409,5.4455,5.4554,5.4681,5.4964,5.5155,5.5197,5.5394,5.5906,5.6785,5.7411,5.815,5.8984,5.9609,5.9893,5.9893,5.9893,5.9893,5.9893,5.9893,6.0007,6.0178,6.0178,6.1174,6.2663,6.2473,6.3439,6.4869,6.4671,6.4728,6.4907,6.4907,6.4807,6.4688,6.4689,6.4549,6.4404,6.4385,6.3893,6.3383,6.3383,6.2735,6.2076,6.2165,6.18,6.1481,6.1592,6.089,6.0189,6.0151,5.9591,5.9103,5.9013,5.8991,5.8991,5.8991,0.0,0.0,0.0,5.8669,5.8565,5.8565,5.9104,5.949,5.949,5.949,5.949,5.949,5.8914,5.8565,5.8565,5.8565,5.8909,5.9699,5.9717,6.0243,6.1333,6.1407,6.1691,6.2203,6.206,6.1684,6.1077,6.081,6.0273,5.9557,5.9305,5.9115,5.8995,5.8995,5.8995,5.8995,5.8995,5.8909,5.8771,5.8561,5.8367,5.817,5.2872,5.3101,5.3308,5.3469,5.3598,5.3715,5.3774,5.3803,5.3803,5.3803,5.3972,5.41,5.41,5.4287,5.4409,5.4409,5.4409,5.4409,5.4409,5.4455,5.4554,5.4681,5.5594,5.6095,5.6095,5.6834,5.7638,5.8529,5.8586,5.9022,5.9818,5.9874,5.9893,5.9893,5.9893,5.9893,5.9893,5.9893,6.0329,6.1012,6.1012,6.2027,6.3439,6.2682,6.3439,6.4785,6.3989,6.4216,6.4907,6.4907,6.4807,6.4698,6.4624,6.4511,6.4394,6.4334,6.4257,6.4219,6.4219,6.353,6.2999,6.3728,6.2608,6.1526,6.2319,6.1775,6.1102,6.1102,6.1046,6.0965,6.0837,6.0815,6.0815,6.0815,0.0,0.0,6.0586,6.039,6.0217,6.0217,6.0279,6.0297,6.0297,6.0297,6.0297,6.0297,6.0272,6.0217,6.0217,6.0217,6.0542,6.1213,6.1249,6.1223,6.1206,6.181,6.2144,6.2203,6.206,6.1973,6.1906,6.1444,6.0942,6.0384,5.9937,5.9467,5.8995,5.8995,5.8995,5.8995,5.8995,5.8909,5.8771,5.8561,5.8367,5.817,5.312,5.3256,5.3369,5.3588,5.3666,5.3724,5.3793,5.3803,5.3803,5.3803,5.3935,5.4055,5.41,5.4244,5.434,5.44,5.4409,5.4615,5.5114,5.5245,5.5381,5.5508,5.6439,5.6929,5.6929,5.7232,5.7827,5.8699,5.8699,5.9116,5.9893,5.9893,5.9893,5.9893,5.9893,5.9893,5.9893,5.9893,6.0083,6.0367,6.0367,6.105,6.2027,6.1705,6.2633,6.3989,6.3155,6.3743,6.4804,6.423,6.4301,6.4624,6.4511,6.4404,6.4334,6.4304,6.4294,6.4294,6.4294,6.3988,6.3688,6.3915,6.3403,6.292,6.3159,6.2558,6.1927,6.183,6.1411,6.1026,6.0896,6.0948,6.097,6.0885,0.0,6.0706,6.0679,6.0526,6.0401,6.0401,6.0841,6.1135,6.1135,6.1135,6.1135,6.1135,6.0676,6.0401,6.0401,6.0793,6.1066,6.1147,6.1639,6.1881,6.1828,6.2066,6.215,6.2073,6.2019,6.201,6.1978,6.1508,6.1007,6.0454,5.9987,5.9501,5.8995,5.8995,5.8995,5.8995,5.8995,5.884,5.8596,5.8525,5.8295,5.7991,5.3238,5.3339,5.342,5.3656,5.3715,5.3745,5.3793,5.3803,5.3803,5.3803,5.3926,5.4028,5.4091,5.4218,5.4437,5.4748,5.4776,5.5132,5.5958,5.6355,5.6501,5.6417,5.7275,5.7777,5.7801,5.8047,5.8491,5.9078,5.9078,5.9363,5.9893,5.9893,5.9893,5.9893,5.9893,5.9893,5.9893,5.9893,6.0045,6.0273,6.0273,6.0765,6.1515,6.1515,6.2387,6.3534,6.2966,6.3498,6.4362,6.3713,6.3623,6.3766,6.369,6.3584,6.3506,6.3506,6.3506,6.3514,6.3485,6.3581,6.3711,6.3859,6.3834,6.3702,6.3613,6.3163,6.2751,6.2654,6.2197,6.1775,6.1643,6.1729,6.1775,6.1643,6.162,6.1586,6.1493,6.1345,6.125,6.1214,6.1691,6.2028,6.1979,6.1979,6.1979,6.1979,6.1484,6.1147,6.1092,6.1487,6.162,6.1372,6.1877,6.2154,6.2154,6.2154,6.21,6.201,6.201,6.201,6.1978,6.1508,6.1007,6.0454,5.9987,5.9501,5.8995,5.8995,5.8995,5.8995,5.8995,5.8806,5.8508,5.8508,5.8242,5.79,5.3266,5.341,5.3539,5.3684,5.3754,5.3803,5.3803,5.3803,5.3803,5.3803,5.3926,5.4028,5.4091,5.4218,5.4653,5.5509,5.5612,5.5977,5.6849,5.7717,5.7942,5.7343,5.8078,5.8573,5.8718,5.9495,5.9893,5.9893,5.9893,5.9893,5.9893,5.9893,5.9893,5.9893,5.9893,5.9893,5.9893,5.9893,6.0367,6.1088,6.1088,6.161,6.2397,6.2397,6.289,6.361,6.3591,6.3558,6.3506,6.3487,6.2822,6.1996,6.1996,6.1911,6.1797,6.1797,6.1797,6.1796,6.1717,6.2177,6.2878,6.3689,6.375,6.359,6.359,6.359,6.359,6.359,6.359,6.3557,6.3424,6.3522,6.3557,6.3424,6.34,6.34,6.34,6.3284,6.3153,6.3014,6.3002,6.2953,6.2805,6.2793,6.2793,6.2793,6.2793,6.273,6.2603,6.248,6.2336,6.2203,6.2073,6.201,6.201,6.201,6.201,6.201,6.201,6.201,6.1982,6.1508,6.1007,6.0472,6.0005,5.9501,5.8995,5.8995,5.8995,5.8995,5.8995,5.8806,5.8508,5.8508,5.8242,5.79,5.3266,5.341,5.3539,5.3684,5.3754,5.3803,5.3803,5.3803,5.3803,5.3803,5.3832,5.3926,5.4082,5.4641,5.5171,5.5565,5.6165,5.6868,5.7685,5.851,5.8921,5.8857,5.9213,5.9421,5.9465,5.9747,5.9893,5.9893,5.9893,5.9893,5.9893,5.9893,5.9893,5.9893,5.9893,5.9893,5.9893,5.9893,6.0045,6.0254,6.0254,6.0746,6.1496,6.1496,6.2368,6.3507,6.2859,6.3013,6.3384,6.2682,6.225,6.1987,6.1892,6.1835,6.1797,6.1797,6.1797,6.1796,6.1717,6.1785,6.2046,6.2793,6.3304,6.359,6.359,6.359,6.359,6.359,6.359,6.3579,6.3545,6.3568,6.3557,6.3424,6.34,6.3366,6.3272,6.3225,6.3153,6.3014,6.3002,6.2953,6.2805,6.2793,6.2793,6.2793,6.2705,6.2603,6.248,6.2336,6.219,6.206,6.2005,6.201,6.201,6.201,6.201,6.201,6.201,6.184,6.1508,6.1361,6.0828,6.0005,5.986,5.9501,5.8995,5.8995,5.8995,5.8995,5.8995,5.8806,5.8508,5.8508,5.8242,5.7966,5.3266,5.341,5.3539,5.3684,5.3754,5.3803,5.3803,5.3803,5.3803,5.3803,5.3851,5.4066,5.453,5.507,5.5704,5.6522,5.7356,5.8051,5.853,5.9027,5.9337,5.9411,5.9582,5.9697,5.9731,5.9753,5.9778,5.9778,5.9778,5.9803,5.9855,5.9855,5.9872,5.9893,5.9893,5.9893,5.9893,5.9893,6.0083,6.0367,6.0367,6.0871,6.1648,6.197,6.2702,6.353,6.3269,6.3074,6.2822,6.2203,6.1761,6.1488,6.1731,6.1797,6.1797,6.1797,6.1533,6.1222,6.1161,6.1051,6.104,6.1427,6.2327,6.3126,6.3126,6.3368,6.359,6.359,6.359,6.3579,6.3534,6.3557,6.3557,6.3424,6.3447,6.3424,6.3296,6.3284,6.3213,6.3026,6.3002,6.2953,6.2805,6.2793,6.2768,6.2717,6.2641,6.2513,6.2336,6.2243,6.2136,6.1992,6.201,6.201,6.201,6.201,6.201,6.201,6.1808,6.1565,6.1275,6.0888,6.0384,5.9796,5.9583,5.93,5.8995,5.8995,5.8995,5.8995,5.8944,5.8753,5.8524,5.8743,5.8612,5.844,5.3248,5.341,5.3539,5.3684,5.3754,5.3803,5.3803,5.3803,5.3803,5.3803,5.3982,5.4419,5.5202,5.5546,5.6376,5.7958,5.884,5.929,5.929,5.929,5.929,5.929,5.9411,5.9501,5.9562,5.9579,5.9607,5.9607,5.9607,5.965,5.9774,5.9801,5.9832,5.9877,5.9904,5.9893,5.9893,5.9885,6.0351,6.109,6.1082,6.1641,6.2561,6.33,6.3578,6.3696,6.4405,6.3568,6.209,6.2005,6.1413,6.0848,6.1562,6.1787,6.1778,6.1778,6.1175,6.0467,6.0312,6.0182,6.0069,5.9916,6.1102,6.2309,6.2383,6.2959,6.3516,6.359,6.359,6.3557,6.3435,6.3522,6.3557,6.3435,6.3522,6.3557,6.3435,6.3412,6.3301,6.3051,6.3014,6.2953,6.2805,6.2798,6.2717,6.259,6.2578,6.2462,6.2217,6.219,6.2141,6.1992,6.201,6.201,6.201,6.201,6.201,6.1978,6.1523,6.1275,6.1202,6.0243,5.978,5.9698,5.9199,5.8995,5.8995,5.8995,5.8995,5.8978,5.8926,5.8786,5.866,5.9195,5.9265,5.9199,5.3287,5.341,5.3539,5.3684,5.3754,5.3803,5.3803,5.3803,5.3803,5.3803,5.4475,5.5025,5.5277,5.6584,5.7641,5.8052,5.884,5.929,5.929,5.929,5.929,5.929,5.9327,5.9355,5.9355,5.9518,5.9607,5.9607,5.9607,5.9616,5.9661,5.9748,5.9818,5.9816,5.988,5.9893,5.9904,5.9849,6.0289,6.1026,6.0957,6.181,6.3123,6.3293,6.3775,6.4379,6.4445,6.3804,6.2833,6.2099,6.1713,6.1562,6.175,6.1729,6.1631,6.1631,6.1449,6.1105,6.0358,6.012,6.0069,5.9916,6.0693,6.1633,6.2253,6.2532,6.2829,6.346,6.359,6.3579,6.3557,6.3579,6.3579,6.3557,6.3579,6.3579,6.3557,6.3458,6.3342,6.3189,6.3063,6.2953,6.2805,6.2705,6.259,6.2454,6.2349,6.2252,6.2203,6.21,6.2019,6.201,6.201,6.201,6.201,6.201,6.201,6.1978,6.1523,6.1081,6.0641,6.0068,5.9567,5.9166,5.9047,5.8995,5.8995,5.8995,5.8995,5.903,5.9493,5.9539,5.9428,5.996,6.0029,5.9979,5.3279,5.3459,5.3626,5.3694,5.3754,5.3803,5.3803,5.3803,5.3933,5.4323,5.4865,5.551,5.6303,5.7304,5.81,5.8569,5.9019,5.9262,5.9309,5.929,5.929,5.929,5.929,5.929,5.929,5.941,5.9455,5.9455,5.9455,5.9501,5.9545,5.9652,5.9695,5.9704,5.9816,5.9814,5.9753,5.9721,6.0402,6.1517,6.1491,6.2464,6.3917,6.3917,6.4162,6.4492,6.4434,6.3858,6.3086,6.2595,6.2377,6.2394,6.2788,6.281,6.2699,6.2699,6.2384,6.1927,6.1435,6.0981,6.0601,6.0548,6.086,6.141,6.2216,6.2699,6.3089,6.3516,6.359,6.359,6.359,6.359,6.359,6.359,6.359,6.3557,6.3431,6.3342,6.3237,6.3026,6.2941,6.288,6.2823,6.2679,6.2539,6.2415,6.2283,6.2177,6.2114,6.2033,6.201,6.201,6.201,6.201,6.201,6.201,6.1882,6.1668,6.1154,6.0838,6.0658,6.0206,5.9838,5.9582,5.9582,5.934,5.903,5.9409,5.9582,5.9616,6.009,6.0237,6.0178,6.0647,6.0988,6.1264,5.3339,5.3499,5.3675,5.3705,5.3754,5.3821,5.397,5.4007,5.4304,5.5122,5.5442,5.6124,5.7455,5.7862,5.8351,5.9121,5.9206,5.9244,5.9309,5.929,5.929,5.929,5.929,5.929,5.929,5.929,5.929,5.929,5.929,5.9355,5.9466,5.9545,5.9581,5.9589,5.9874,5.993,5.9833,5.9948,6.0891,6.2295,6.2277,6.3191,6.4549,6.4549,6.4491,6.4385,6.4385,6.3893,6.3259,6.3259,6.3171,6.3202,6.3865,6.3987,6.3891,6.3891,6.335,6.2734,6.2603,6.2006,6.141,6.141,6.141,6.1633,6.242,6.3015,6.3423,6.3572,6.359,6.359,6.359,6.359,6.359,6.359,6.359,6.3522,6.3296,6.3225,6.3117,6.288,6.2836,6.2768,6.2748,6.2629,6.25,6.2336,6.223,6.2128,6.201,6.201,6.201,6.201,6.201,6.201,6.201,6.2054,6.1838,6.1354,6.0947,6.0813,6.0882,6.0532,6.0392,6.0392,6.0392,6.0013,5.9426,6.0116,6.0392,6.0426,6.0753,6.0897,6.0927,6.135,6.1873,6.24,5.344,5.3509,5.3579,5.3755,5.3745,5.3966,5.4722,5.4843,5.514,5.6004,5.68,5.7362,5.7586,5.8444,5.9055,5.9187,5.9244,5.93,5.929,5.929,5.929,5.929,5.929,5.929,5.929,5.929,5.929,5.929,5.929,5.9318,5.9327,5.9466,5.9511,5.9548,6.039,6.0746,6.0766,6.1411,6.2212,6.305,6.2992,6.3526,6.4334,6.4334,6.4324,6.4314,6.4314,6.4159,6.3954,6.3954,6.3871,6.3777,6.3889,6.387,6.3802,6.3802,6.3639,6.3308,6.2621,6.2331,6.2235,6.2235,6.2235,6.2439,6.3256,6.2978,6.2755,6.346,6.359,6.359,6.359,6.359,6.359,6.359,6.359,6.3579,6.3545,6.3361,6.3189,6.3153,6.2929,6.2723,6.248,6.2441,6.2323,6.2073,6.2033,6.2005,6.201,6.201,6.201,6.201,6.201,6.201,6.201,6.2231,6.2114,6.1659,6.1804,6.1542,6.0917,6.1068,6.1151,6.1151,6.1151,6.1099,6.0996,6.1116,6.1151,6.1184,6.1525,6.1649,6.1695,6.2096,6.2316,6.24,5.338,5.3499,5.3637,5.3725,5.4116,5.4553,5.4936,5.54,5.6042,5.6859,5.7308,5.7719,5.8165,5.8647,5.8962,5.909,5.912,5.9178,5.9281,5.929,5.929,5.929,5.929,5.929,5.929,5.929,5.929,5.929,5.929,5.929,5.929,5.9448,5.9466,5.943,6.0377,6.0762,6.0792,6.1554,6.2362,6.3142,6.3121,6.3571,6.4294,6.4294,6.4294,6.4284,6.4224,6.4143,6.4092,6.4,6.3923,6.3837,6.3837,6.3769,6.3699,6.3699,6.3654,6.3516,6.3163,6.307,6.307,6.307,6.307,6.3163,6.3516,6.333,6.3163,6.3535,6.359,6.359,6.359,6.359,6.359,6.359,6.359,6.3568,6.3511,6.3389,6.326,6.3099,6.2917,6.2743,6.2629,6.2493,6.2349,6.2217,6.2136,6.2087,6.1992,6.2073,6.2073,6.1992,6.201,6.2209,6.2675,6.2787,6.2686,6.2379,6.3222,6.296,6.1797,6.1931,6.1961,6.1961,6.1961,6.172,6.1341,6.1772,6.1961,6.1994,6.233,6.2319,6.2159,6.2324,6.24,6.24]}]]